[[{"header":{"parameterUnit":"m.s-1","parameterCategory":1,"la1":30.6,"la2":29.2853,"lo1":-89.7004,"lo2":-87.6739,"dy":0.0162,"dx":0.0183,"nx":112,"ny":82,"refTime":"2024-04-19T12:00:00:Z","depth":0,"parameterNumber":2,"parameterNumberName":"U-component_of_WINDS"},"data":[0.0,0.0,0.0,0.0,0.0,0.0,0.0,0.0,0.0,0.0,0.0,0.0,0.0,0.0,0.0,0.0,0.0,0.0,0.0,0.0,0.0,0.0,0.0,0.0,0.0,0.0,0.0,0.0,0.0,0.0,0.0,0.0,0.0,0.0,0.0,0.0,0.0,0.0,0.0,0.0,0.0,0.0,0.0,0.0,0.0,0.0,0.0,0.0,0.0,0.0,0.0,0.0,0.0,0.0,0.0,0.0,0.0,0.0,0.0,0.0,0.0,0.0,0.0,0.0,0.0,0.0,0.0,0.0,0.0,0.0,0.0,0.0,0.0,0.0,0.0,0.0,0.0,0.0,0.0,0.0,0.0,0.0,0.0,0.0,0.0,0.0,0.0,0.0,0.0,0.0,-3.5088,-3.8488,-4.0022,-4.0713,-4.0482,-4.0454,-3.889,-3.5239,0.0,0.0,0.0,0.0,0.0,0.0,0.0,0.0,0.0,0.0,0.0,0.0,0.0,0.0,0.0,0.0,0.0,0.0,0.0,0.0,0.0,0.0,0.0,0.0,0.0,0.0,0.0,0.0,0.0,0.0,0.0,0.0,0.0,0.0,0.0,0.0,0.0,0.0,0.0,0.0,0.0,0.0,0.0,0.0,0.0,0.0,0.0,0.0,0.0,0.0,0.0,0.0,0.0,0.0,0.0,0.0,0.0,0.0,0.0,0.0,0.0,0.0,0.0,0.0,0.0,0.0,0.0,0.0,0.0,0.0,0.0,0.0,0.0,0.0,0.0,0.0,0.0,0.0,0.0,0.0,0.0,0.0,0.0,0.0,0.0,0.0,0.0,0.0,0.0,0.0,0.0,0.0,0.0,0.0,0.0,0.0,0.0,0.0,0.0,0.0,0.0,0.0,0.0,0.0,-3.6992,-4.086,-4.208,-4.2236,-4.1312,-4.1185,-3.9392,-3.5268,0.0,0.0,0.0,0.0,0.0,0.0,0.0,0.0,0.0,0.0,0.0,0.0,0.0,0.0,0.0,0.0,0.0,0.0,0.0,0.0,0.0,0.0,0.0,0.0,0.0,0.0,0.0,0.0,0.0,0.0,0.0,0.0,0.0,0.0,0.0,0.0,0.0,0.0,0.0,0.0,0.0,0.0,0.0,0.0,0.0,0.0,0.0,0.0,0.0,0.0,0.0,0.0,0.0,0.0,0.0,0.0,0.0,0.0,0.0,0.0,0.0,0.0,0.0,0.0,0.0,0.0,0.0,0.0,0.0,0.0,0.0,0.0,0.0,0.0,0.0,0.0,0.0,0.0,0.0,0.0,0.0,0.0,0.0,0.0,0.0,0.0,0.0,0.0,0.0,0.0,0.0,0.0,0.0,0.0,0.0,0.0,0.0,0.0,0.0,0.0,0.0,0.0,0.0,-3.7932,-4.0676,-4.2276,-4.278,-4.2563,-4.1493,-4.1336,-3.9505,-3.5268,-3.519,0.0,0.0,0.0,0.0,0.0,0.0,0.0,0.0,0.0,0.0,0.0,0.0,0.0,0.0,0.0,0.0,0.0,0.0,0.0,0.0,0.0,0.0,0.0,0.0,0.0,0.0,0.0,0.0,0.0,0.0,0.0,0.0,0.0,0.0,0.0,0.0,0.0,0.0,0.0,0.0,0.0,0.0,0.0,0.0,0.0,0.0,0.0,0.0,0.0,0.0,0.0,0.0,0.0,0.0,0.0,0.0,0.0,0.0,0.0,0.0,0.0,0.0,0.0,0.0,0.0,0.0,0.0,0.0,0.0,0.0,0.0,0.0,0.0,0.0,0.0,0.0,0.0,0.0,0.0,0.0,0.0,0.0,0.0,0.0,0.0,0.0,0.0,0.0,0.0,0.0,0.0,0.0,0.0,0.0,0.0,0.0,0.0,0.0,0.0,0.0,0.0,0.0,-4.1081,-4.308,-4.334,-4.3532,-4.3132,-4.1848,-4.1673,-3.9802,-3.5534,-3.5201,0.0,0.0,0.0,0.0,0.0,0.0,0.0,0.0,0.0,0.0,0.0,0.0,0.0,0.0,0.0,0.0,0.0,0.0,0.0,0.0,0.0,0.0,0.0,0.0,0.0,0.0,0.0,0.0,0.0,0.0,0.0,0.0,0.0,0.0,0.0,0.0,0.0,0.0,0.0,0.0,0.0,0.0,0.0,0.0,0.0,0.0,0.0,0.0,0.0,0.0,0.0,0.0,0.0,0.0,0.0,0.0,0.0,0.0,0.0,0.0,0.0,0.0,0.0,0.0,0.0,0.0,0.0,0.0,0.0,0.0,0.0,0.0,0.0,0.0,0.0,0.0,0.0,0.0,0.0,0.0,0.0,0.0,0.0,0.0,0.0,0.0,0.0,0.0,0.0,0.0,0.0,0.0,0.0,0.0,0.0,0.0,0.0,0.0,0.0,0.0,0.0,0.0,-4.0061,-4.2007,-4.416,-4.5111,-4.482,-4.2871,-4.2642,-4.072,-3.6309,-3.5964,0.0,0.0,0.0,0.0,0.0,0.0,0.0,0.0,0.0,0.0,0.0,0.0,0.0,0.0,0.0,0.0,0.0,0.0,0.0,0.0,0.0,0.0,0.0,0.0,0.0,0.0,0.0,0.0,0.0,0.0,0.0,0.0,0.0,0.0,0.0,0.0,0.0,0.0,0.0,0.0,0.0,0.0,0.0,0.0,0.0,0.0,0.0,0.0,0.0,0.0,0.0,0.0,0.0,0.0,0.0,0.0,0.0,0.0,0.0,0.0,0.0,0.0,0.0,0.0,0.0,0.0,0.0,0.0,0.0,0.0,0.0,0.0,0.0,0.0,0.0,0.0,0.0,0.0,0.0,0.0,0.0,0.0,0.0,0.0,0.0,0.0,0.0,0.0,0.0,0.0,0.0,0.0,0.0,0.0,0.0,0.0,0.0,0.0,0.0,0.0,0.0,0.0,-4.1721,-4.3911,-4.5182,-4.5602,-4.501,-4.3096,-4.2822,-4.0912,-3.6557,0.0,0.0,0.0,0.0,0.0,0.0,0.0,0.0,0.0,0.0,0.0,0.0,0.0,0.0,0.0,0.0,0.0,0.0,0.0,0.0,0.0,0.0,0.0,0.0,0.0,0.0,0.0,0.0,0.0,0.0,0.0,0.0,0.0,0.0,0.0,0.0,0.0,0.0,0.0,0.0,0.0,0.0,0.0,0.0,0.0,0.0,0.0,0.0,0.0,0.0,0.0,0.0,0.0,0.0,0.0,0.0,0.0,0.0,0.0,0.0,0.0,0.0,0.0,0.0,0.0,0.0,0.0,0.0,0.0,0.0,0.0,0.0,0.0,0.0,0.0,0.0,0.0,0.0,0.0,0.0,0.0,0.0,0.0,0.0,0.0,0.0,0.0,0.0,0.0,0.0,0.0,0.0,0.0,0.0,0.0,0.0,0.0,0.0,0.0,0.0,0.0,0.0,-3.9722,-4.2535,-4.4864,-4.5822,-4.5906,-4.5137,-4.3248,-4.2999,-4.108,-3.6672,0.0,0.0,0.0,0.0,0.0,0.0,0.0,0.0,0.0,0.0,0.0,0.0,0.0,0.0,0.0,0.0,0.0,0.0,0.0,0.0,0.0,0.0,0.0,0.0,0.0,0.0,0.0,0.0,0.0,0.0,0.0,0.0,0.0,0.0,0.0,0.0,0.0,0.0,0.0,0.0,0.0,0.0,0.0,0.0,0.0,0.0,0.0,0.0,0.0,0.0,0.0,0.0,0.0,0.0,0.0,0.0,0.0,0.0,0.0,0.0,0.0,0.0,0.0,0.0,0.0,0.0,0.0,0.0,0.0,0.0,0.0,0.0,0.0,0.0,0.0,0.0,0.0,0.0,0.0,0.0,0.0,0.0,0.0,0.0,0.0,0.0,0.0,0.0,0.0,0.0,0.0,0.0,0.0,0.0,0.0,0.0,0.0,0.0,0.0,0.0,0.0,0.0,-3.9559,-4.2015,-4.427,-4.6011,-4.6134,-4.5341,-4.3464,-4.3291,-4.1331,0.0,0.0,0.0,0.0,0.0,0.0,0.0,0.0,0.0,0.0,0.0,0.0,0.0,0.0,0.0,0.0,0.0,0.0,0.0,0.0,0.0,0.0,0.0,0.0,0.0,0.0,0.0,0.0,0.0,0.0,0.0,0.0,0.0,0.0,0.0,0.0,0.0,0.0,0.0,0.0,0.0,0.0,0.0,0.0,0.0,0.0,0.0,0.0,0.0,0.0,0.0,0.0,0.0,0.0,0.0,0.0,0.0,0.0,0.0,0.0,0.0,0.0,0.0,0.0,0.0,0.0,0.0,0.0,0.0,0.0,0.0,0.0,0.0,0.0,0.0,0.0,0.0,0.0,0.0,0.0,0.0,0.0,0.0,0.0,0.0,0.0,0.0,0.0,0.0,0.0,0.0,0.0,0.0,0.0,0.0,0.0,0.0,0.0,0.0,0.0,0.0,0.0,0.0,-3.8744,-4.1696,-4.4323,-4.6014,-4.6176,-4.5457,-4.3669,-4.3413,-4.1445,-3.6901,0.0,0.0,0.0,0.0,0.0,0.0,0.0,0.0,0.0,0.0,0.0,0.0,0.0,0.0,0.0,0.0,0.0,0.0,0.0,0.0,0.0,0.0,0.0,0.0,0.0,0.0,0.0,0.0,0.0,0.0,0.0,0.0,0.0,0.0,0.0,0.0,0.0,0.0,0.0,0.0,0.0,0.0,0.0,0.0,0.0,0.0,0.0,0.0,0.0,0.0,0.0,0.0,0.0,0.0,0.0,0.0,0.0,0.0,0.0,0.0,0.0,0.0,0.0,0.0,0.0,0.0,0.0,0.0,0.0,0.0,0.0,0.0,0.0,0.0,0.0,0.0,0.0,0.0,0.0,0.0,0.0,0.0,0.0,0.0,0.0,0.0,0.0,0.0,0.0,0.0,0.0,0.0,0.0,0.0,0.0,0.0,0.0,0.0,0.0,0.0,0.0,0.0,-3.8351,-4.1544,-4.4339,-4.6027,-4.62,-4.5495,-4.3757,-4.3533,-4.1709,-3.7553,0.0,0.0,0.0,0.0,0.0,0.0,0.0,0.0,0.0,0.0,0.0,0.0,0.0,0.0,0.0,0.0,0.0,0.0,0.0,0.0,0.0,0.0,0.0,0.0,0.0,0.0,0.0,0.0,0.0,0.0,0.0,0.0,0.0,0.0,0.0,0.0,0.0,0.0,0.0,0.0,0.0,0.0,0.0,0.0,0.0,0.0,0.0,0.0,0.0,0.0,0.0,0.0,0.0,0.0,0.0,0.0,0.0,0.0,0.0,0.0,0.0,0.0,0.0,0.0,0.0,0.0,0.0,0.0,0.0,0.0,0.0,0.0,0.0,0.0,0.0,0.0,0.0,0.0,0.0,0.0,0.0,0.0,0.0,0.0,0.0,0.0,0.0,0.0,0.0,0.0,0.0,0.0,0.0,0.0,0.0,0.0,0.0,0.0,0.0,0.0,0.0,0.0,-3.828,-4.1538,-4.4337,-4.6016,-4.6131,-4.5404,-4.3755,-4.3549,-4.1976,-3.8433,0.0,0.0,0.0,0.0,0.0,0.0,0.0,0.0,0.0,0.0,0.0,0.0,0.0,0.0,0.0,0.0,0.0,0.0,0.0,0.0,0.0,0.0,0.0,0.0,0.0,0.0,0.0,0.0,0.0,0.0,0.0,0.0,0.0,0.0,0.0,0.0,0.0,0.0,0.0,0.0,0.0,0.0,0.0,0.0,0.0,0.0,0.0,0.0,0.0,0.0,0.0,0.0,0.0,0.0,0.0,0.0,0.0,0.0,0.0,0.0,-4.3548,0.0,0.0,0.0,0.0,0.0,0.0,0.0,0.0,0.0,0.0,0.0,0.0,0.0,0.0,0.0,0.0,0.0,0.0,0.0,0.0,0.0,0.0,0.0,0.0,0.0,0.0,0.0,0.0,0.0,0.0,0.0,0.0,0.0,0.0,0.0,0.0,0.0,0.0,0.0,0.0,0.0,-3.8284,-4.154,-4.4333,-4.6028,-4.5587,-4.4765,-4.376,-4.3044,-4.1406,-3.8466,-3.7715,0.0,0.0,0.0,0.0,0.0,0.0,0.0,0.0,0.0,0.0,0.0,0.0,0.0,0.0,0.0,0.0,0.0,0.0,0.0,0.0,0.0,0.0,0.0,0.0,0.0,0.0,0.0,0.0,0.0,0.0,0.0,0.0,0.0,0.0,0.0,0.0,0.0,0.0,0.0,0.0,0.0,0.0,0.0,0.0,0.0,0.0,0.0,0.0,0.0,0.0,0.0,0.0,0.0,0.0,0.0,0.0,0.0,0.0,0.0,0.0,-4.3152,0.0,0.0,0.0,0.0,0.0,0.0,0.0,0.0,0.0,0.0,0.0,0.0,0.0,0.0,0.0,0.0,0.0,0.0,0.0,0.0,0.0,0.0,0.0,0.0,0.0,0.0,0.0,0.0,0.0,0.0,0.0,0.0,0.0,0.0,0.0,0.0,0.0,0.0,0.0,0.0,-3.7708,-4.0912,-4.3569,-4.4854,-4.4586,-4.3979,-4.3156,-4.2627,-4.1582,-3.9754,-3.8408,0.0,0.0,0.0,0.0,0.0,0.0,0.0,0.0,0.0,0.0,0.0,0.0,0.0,0.0,0.0,0.0,0.0,0.0,0.0,0.0,0.0,0.0,0.0,0.0,0.0,0.0,0.0,0.0,0.0,0.0,0.0,0.0,0.0,0.0,0.0,0.0,0.0,0.0,0.0,0.0,0.0,0.0,0.0,0.0,0.0,0.0,0.0,0.0,0.0,0.0,0.0,0.0,0.0,-4.4311,-4.4581,-4.4853,-4.4043,-4.3454,-4.317,-4.431,-4.4805,-4.4675,-4.336,0.0,0.0,0.0,0.0,0.0,0.0,0.0,0.0,0.0,0.0,0.0,0.0,0.0,0.0,0.0,0.0,0.0,0.0,0.0,0.0,0.0,0.0,0.0,0.0,-3.8575,-3.7036,0.0,0.0,0.0,0.0,0.0,0.0,0.0,0.0,0.0,0.0,0.0,0.0,-3.7084,-4.023,-4.2729,-4.3585,-4.3551,-4.3173,-4.2463,-4.2204,-4.1813,-4.1132,-3.9026,-3.7621,0.0,0.0,0.0,0.0,0.0,0.0,0.0,0.0,0.0,0.0,0.0,0.0,0.0,0.0,0.0,0.0,0.0,0.0,0.0,0.0,0.0,0.0,0.0,0.0,0.0,0.0,0.0,0.0,0.0,0.0,0.0,0.0,-3.7281,-3.9009,0.0,0.0,0.0,0.0,0.0,0.0,0.0,0.0,0.0,0.0,0.0,0.0,0.0,-4.3468,-4.3468,-4.4899,-4.5624,-4.5624,-4.6396,-4.6781,-4.6816,-4.6161,-4.6027,-4.6177,-4.4158,0.0,-4.3855,-4.3707,0.0,0.0,0.0,0.0,0.0,0.0,0.0,0.0,0.0,0.0,0.0,0.0,0.0,0.0,0.0,0.0,0.0,0.0,0.0,0.0,0.0,0.0,-4.2205,-4.2813,-3.9823,-3.7637,0.0,-3.6774,-3.3393,-3.4977,-3.4162,0.0,0.0,0.0,0.0,0.0,0.0,0.0,-3.7014,-4.0164,-4.2654,-4.3514,-4.2984,-4.2518,-4.2417,-4.1696,-4.12,-4.1115,-4.0777,-3.9558,-3.7297,-3.9312,0.0,0.0,0.0,0.0,0.0,0.0,0.0,0.0,0.0,0.0,0.0,0.0,0.0,0.0,0.0,0.0,0.0,0.0,0.0,0.0,0.0,0.0,0.0,0.0,0.0,0.0,0.0,0.0,0.0,-3.6356,-3.8364,-3.9436,-4.0548,-4.0781,0.0,0.0,0.0,0.0,0.0,0.0,0.0,0.0,0.0,-4.3142,-4.4054,-4.4565,-4.4638,-4.6152,-4.6915,-4.6915,-4.7299,-4.7601,-4.7794,-4.7038,-4.691,-4.7207,-4.5568,-4.511,-4.538,-4.3665,-4.3024,-4.2979,0.0,0.0,0.0,0.0,-3.8337,-3.9014,-3.8946,-3.9948,0.0,-4.1223,0.0,0.0,0.0,0.0,0.0,0.0,0.0,0.0,0.0,0.0,-4.2616,-4.302,-4.146,-4.0094,-4.0889,-3.821,-3.5951,0.0,-3.5643,-3.4226,-3.3348,0.0,0.0,0.0,0.0,-3.7388,-3.7784,-3.9994,-4.1671,-4.2087,-4.1781,-4.1557,-4.1556,-4.1206,-4.0994,-4.1035,-4.1015,-4.0487,-3.9374,-4.0416,-3.9668,0.0,0.0,0.0,0.0,0.0,0.0,0.0,0.0,0.0,0.0,0.0,0.0,0.0,0.0,0.0,0.0,0.0,0.0,0.0,0.0,0.0,0.0,0.0,0.0,0.0,0.0,0.0,0.0,-3.6895,-3.8766,-3.9855,-4.1268,-4.1857,0.0,0.0,0.0,0.0,0.0,0.0,-4.314,-4.3216,-4.3436,-4.391,-4.5068,-4.5725,-4.5825,-4.6997,-4.7615,-4.7615,-4.7615,-4.7747,-4.8015,-4.7375,-4.7277,-4.7589,-4.6723,-4.6542,-4.6676,-4.4178,-4.33,-4.3445,-4.2682,-4.1699,-4.0615,-4.0034,-4.011,-4.0469,-4.0375,-4.1343,-4.2637,-4.2624,-4.2248,-4.1712,-4.1255,0.0,0.0,0.0,0.0,-4.0723,-4.1801,-4.2227,-4.2468,-4.2822,-4.2464,-4.1794,-4.0891,-3.918,-3.7983,0.0,-3.7287,-3.5789,-3.4628,0.0,0.0,0.0,0.0,-3.828,-3.8315,-3.9789,-4.0875,-4.0929,-4.0919,-4.0903,-4.0894,-4.0896,-4.091,-4.0972,-4.0927,-4.0912,-4.0966,-4.097,-4.0389,-3.9132,0.0,0.0,0.0,0.0,0.0,0.0,0.0,0.0,0.0,0.0,0.0,0.0,0.0,0.0,0.0,0.0,0.0,0.0,0.0,0.0,0.0,0.0,0.0,0.0,0.0,0.0,0.0,0.0,0.0,-4.0176,-4.2811,0.0,0.0,0.0,0.0,-4.2394,-4.2474,-4.3212,-4.4599,-4.4812,-4.5533,-4.6932,-4.7132,-4.7194,-4.7194,-4.7266,-4.7302,-4.7302,-4.7302,-4.7323,-4.7345,-4.7309,-4.7431,-4.7634,-4.685,-4.6607,-4.6728,-4.5808,-4.5658,-4.5779,-4.336,-4.2356,-4.2067,-4.0266,-4.0652,-4.2071,-4.186,-4.2921,-4.4369,-4.4313,-4.3142,-4.1474,-3.9751,-3.9325,0.0,0.0,-4.0483,-4.1804,-4.174,-4.229,-4.2872,-4.2895,-4.2255,-4.1464,-4.0827,-3.9383,-3.8561,0.0,-3.8892,-3.7852,-3.7763,0.0,-3.7378,-3.5654,-3.7008,-3.8178,-3.8112,-3.9621,-4.0701,-4.0701,-4.0835,-4.0899,-4.0893,-4.0892,-4.0908,-4.0903,-4.0905,-4.0905,-4.0905,-4.0908,-4.0879,-4.0777,-3.9215,0.0,0.0,0.0,0.0,0.0,0.0,0.0,0.0,0.0,0.0,0.0,0.0,0.0,0.0,0.0,0.0,0.0,0.0,0.0,0.0,0.0,0.0,0.0,0.0,0.0,0.0,0.0,0.0,-4.067,-4.2299,0.0,-4.4182,-4.4489,-4.4436,-4.3864,-4.4753,-4.553,-4.606,-4.6051,-4.63,-4.6916,-4.6976,-4.7022,-4.7116,-4.7116,-4.7116,-4.7116,-4.7116,-4.7116,-4.7116,-4.7116,-4.7165,-4.7222,-4.6952,-4.697,-4.7181,-4.6376,-4.5794,-4.5379,-4.4861,-4.4291,-4.3672,-4.2991,-4.3147,-4.3668,-4.36,-4.3924,-4.4358,-4.4188,-4.3722,-4.3096,-4.2552,-4.2429,-4.2487,-4.2468,-4.2959,-4.3422,-4.3334,-4.3539,-4.3778,-4.3636,-4.3007,-4.2381,-4.2108,-4.0865,-3.9958,-4.0427,-3.9013,-3.7805,-3.7978,-3.8914,-3.9089,-3.7411,-3.8601,-3.9688,-3.97,-4.0249,-4.0642,-4.0643,-4.068,-4.0726,-4.0773,-4.0765,-4.0791,-4.0834,-4.0839,-4.0844,-4.0842,-4.0874,-4.0906,-4.0902,-4.0315,-3.8921,0.0,0.0,0.0,0.0,0.0,0.0,0.0,0.0,0.0,0.0,0.0,0.0,0.0,0.0,0.0,0.0,0.0,0.0,0.0,0.0,0.0,0.0,0.0,0.0,0.0,-3.5886,-3.8452,-4.1059,-4.2433,-4.3682,-4.4971,-4.5258,-4.5343,-4.5343,-4.6191,-4.6731,-4.6737,-4.6643,-4.6643,-4.6731,-4.6719,-4.6783,-4.6854,-4.6883,-4.6865,-4.6865,-4.6865,-4.6865,-4.6865,-4.6865,-4.6557,-4.6054,-4.6611,-4.6645,-4.6298,-4.6552,-4.6085,-4.5259,-4.5509,-4.5217,-4.4628,-4.4341,-4.4229,-4.4214,-4.4155,-4.4173,-4.4177,-4.4036,-4.4005,-4.402,-4.4119,-4.4135,-4.4135,-4.4195,-4.4192,-4.4121,-4.3784,-4.3725,-4.3647,-4.3216,-4.2748,-4.2281,-4.1927,-4.07,-3.9746,-4.0061,-3.9157,-3.824,-3.7943,-3.8823,-3.9019,-3.7434,-3.8125,-3.8818,-3.8842,-3.9367,-3.9714,-3.9723,-4.0258,-4.0619,-4.066,-4.0165,-4.0114,-4.0707,-4.0216,-4.017,-4.0705,-4.025,-3.9996,-3.9996,-3.9427,-3.8321,-3.6647,0.0,0.0,0.0,0.0,0.0,0.0,0.0,0.0,0.0,0.0,0.0,0.0,0.0,0.0,0.0,0.0,0.0,0.0,0.0,0.0,0.0,0.0,0.0,-3.4492,-3.7153,-3.9725,-4.1356,-4.3375,-4.503,-4.5979,-4.6507,-4.6754,-4.6795,-4.6661,-4.6596,-4.659,-4.6537,-4.6531,-4.6519,-4.6536,-4.6524,-4.6506,-4.6542,-4.659,-4.659,-4.659,-4.659,-4.659,-4.659,-4.5688,-4.4271,-4.5888,-4.5582,-4.4132,-4.6372,-4.6657,-4.5672,-4.5185,-4.5002,-4.4856,-4.3985,-4.3658,-4.3642,-4.3384,-4.3607,-4.3955,-4.3989,-4.3989,-4.3971,-4.3989,-4.4005,-4.4005,-4.3989,-4.3989,-4.3804,-4.2962,-4.2709,-4.2471,-4.1653,-4.1419,-4.1145,-4.0222,-3.8785,-3.7954,-3.886,-3.9439,-3.9347,-3.7993,-3.7753,-3.7252,-3.5775,-3.5607,0.0,-3.5561,-3.7024,-3.8084,-3.8084,-3.9538,-4.0549,-4.0607,-3.9109,-3.8885,-4.0498,-3.9136,-3.8968,-4.0537,-3.9097,-3.8266,-3.8279,-3.6629,-3.6596,-3.8271,0.0,0.0,0.0,0.0,0.0,0.0,0.0,0.0,0.0,0.0,0.0,0.0,0.0,0.0,0.0,0.0,0.0,0.0,0.0,0.0,0.0,-3.4563,-3.605,-3.6188,-3.7965,-3.9984,-4.1916,-4.3144,-4.4313,-4.5554,-4.5868,-4.62,-4.6613,-4.6625,-4.656,-4.6465,-4.5302,-4.464,-4.4641,-4.4633,-4.4638,-4.4624,-4.5756,-4.6319,-4.6319,-4.6319,-4.6319,-4.6319,-4.6319,-4.6066,-4.5655,-4.6101,-4.6079,-4.5758,-4.6265,-4.6383,-4.6147,-4.5574,-4.4913,-4.4181,-4.336,-4.3051,-4.2869,-4.1704,-4.2103,-4.3177,-4.3474,-4.3559,-4.361,-4.3862,-4.3929,-4.3913,-4.3867,-4.3851,-4.3795,-4.3557,-4.3058,-4.2559,-4.234,-4.1825,-4.1311,-4.0956,-4.0075,-3.9396,-3.9617,-3.9254,-3.8955,-3.8995,-3.9017,-3.8934,-3.8756,-3.8746,0.0,-3.8997,-3.9495,-3.9807,-3.9807,-3.9112,-3.9161,-4.0484,-3.9047,-3.8779,-4.0491,-4.0177,-4.0139,-4.0575,-4.0177,-3.9877,-3.9719,-3.802,-3.7314,0.0,0.0,0.0,0.0,0.0,0.0,0.0,0.0,0.0,0.0,0.0,0.0,0.0,0.0,0.0,0.0,0.0,0.0,0.0,0.0,0.0,0.0,-3.6311,-3.808,-3.8471,-3.9418,-4.0605,-4.2113,-4.2933,-4.3698,-4.4461,-4.4834,-4.5181,-4.5528,-4.5507,-4.5578,-4.5842,-4.4932,-4.426,-4.3914,-4.453,-4.4561,-4.3903,-4.5431,-4.6196,-4.6196,-4.6196,-4.6196,-4.6196,-4.6196,-4.5846,-4.5291,-4.5989,-4.5956,-4.5464,-4.611,-4.6398,0.0,0.0,0.0,0.0,0.0,-4.2541,-4.2415,-4.1516,-4.19,-4.2829,-4.3014,-4.3069,-4.3123,-4.3458,-4.3083,-4.2511,-4.2313,-4.2013,-4.1736,-4.1723,-4.1356,-4.108,-4.1399,-4.0814,-4.016,-4.0063,-3.9116,-3.8465,-3.9067,-3.823,0.0,-3.8827,-3.8574,-3.8107,-3.7702,-3.7661,-3.7713,-3.7909,-3.8604,-3.9108,-3.9237,-3.8978,-3.924,-4.0419,-3.8962,0.0,0.0,0.0,-3.9478,-3.9385,-3.9276,0.0,0.0,0.0,-3.6822,-3.7395,0.0,0.0,0.0,-3.6474,-3.5708,0.0,0.0,0.0,0.0,0.0,0.0,0.0,0.0,0.0,0.0,0.0,0.0,0.0,0.0,0.0,0.0,-3.8062,-4.0055,-4.0753,-4.1008,-4.1342,-4.2013,-4.2645,-4.3087,-4.3147,-4.3648,-4.3994,-4.408,-4.3973,-4.4234,-4.4921,0.0,0.0,0.0,0.0,-4.5242,-4.3874,-4.5372,-4.6147,-4.6147,-4.6147,-4.6147,-4.6172,-4.6147,-4.5418,-4.4214,-4.5686,-4.5558,-4.4436,-4.5888,-4.6412,-4.6136,-4.4929,-4.4341,-4.3981,-4.2436,-4.1973,-4.2077,-4.1899,0.0,0.0,-4.2544,-4.2524,-4.2582,-4.2904,-4.2013,-4.0792,-4.0386,-3.9758,-3.9205,-3.9197,-3.9142,-3.9222,-3.9879,-3.9323,-3.8588,-3.8435,-3.7207,-3.6565,-3.7954,-3.7051,-3.6542,-3.802,-3.7408,-3.6298,-3.5079,-3.4899,-3.4944,-3.5027,-3.6393,-3.747,-3.7697,0.0,0.0,-4.027,-3.8816,-3.8618,-4.0281,-3.9004,-3.8108,-3.7922,-3.769,-3.6879,-3.5419,-3.541,-3.613,-3.7559,-3.757,-3.8336,-3.9697,-3.6805,-3.6264,0.0,0.0,0.0,0.0,0.0,0.0,0.0,0.0,0.0,0.0,0.0,0.0,0.0,0.0,0.0,-3.792,-3.9232,-4.0236,-4.1091,-4.1234,-4.1413,-4.1866,-4.2061,-4.2333,-4.2831,-4.3073,-4.3416,-4.3896,-4.4013,-4.4097,-4.414,-4.3467,-4.3014,-4.2848,-4.3605,-4.3867,-4.3585,-4.5112,-4.5871,-4.5871,0.0,0.0,-4.6023,-4.5922,-4.5765,-4.5603,-4.5808,-4.5805,-4.5642,-4.5858,-4.5222,-4.4093,-4.4154,-4.3341,-4.1965,-4.0433,-4.058,-4.1389,-4.013,-4.0498,-4.1561,-4.1927,-4.2032,-4.2095,-4.2366,-4.223,0.0,-4.1452,-4.1214,-4.1176,-4.1539,-4.1128,-4.0689,-4.0773,-4.0154,-3.9321,-3.85,-3.8069,-3.7909,-3.8153,-3.7938,-3.7846,-3.8171,-3.8067,-3.7958,-3.796,-3.8011,-3.8096,-3.8347,-3.8763,-3.9065,-3.9123,-3.8199,-3.8169,-3.964,-3.8188,-3.7932,-3.9662,-3.9464,-3.9264,-3.9221,-3.9176,-3.8919,-3.8471,-3.8489,-3.8533,-3.853,-3.8572,-3.8711,-3.8927,-3.8923,-3.9083,0.0,0.0,0.0,0.0,0.0,0.0,0.0,0.0,0.0,0.0,0.0,-3.186,-3.3077,0.0,-3.5674,-3.8039,-3.8756,-3.9508,-4.0881,-4.1055,-4.1223,-4.167,-4.1752,-4.1851,-4.2158,-4.2269,-4.2426,-4.2722,-4.2794,-4.2998,-4.3321,-4.2941,-4.2523,-4.2099,-4.3132,-4.3488,-4.3053,-4.457,-4.5503,-4.5795,-4.5795,-4.5821,-4.5897,-4.5821,-4.5821,-4.5897,-4.5821,-4.5897,-4.5953,-4.5586,-4.4715,-4.3568,-4.3413,-4.2549,-4.1243,-4.0413,-4.0577,-4.1157,-4.0374,-4.0582,-4.1232,-4.1436,-4.1498,-4.1547,-4.1825,-4.1342,-4.0603,-4.021,-3.9802,-3.9642,-4.0275,-3.9788,-3.9283,-4.0076,-3.9229,-3.8062,-3.7396,-3.7199,-3.7216,-3.7407,-3.7442,-3.7569,-3.7984,-3.8072,-3.8189,-3.8407,-3.8455,-3.8514,-3.8693,-3.8853,-3.8962,-3.8994,-3.834,-3.8314,-3.932,-3.8686,-3.8632,-3.9542,-3.95,-3.9445,-3.9445,-3.932,-3.9195,-3.9101,-3.9129,-3.9045,-3.8851,-3.8851,-3.8822,-3.8765,-3.9082,-3.9231,0.0,0.0,0.0,0.0,0.0,0.0,0.0,-3.0059,-3.0569,-3.0513,-3.1507,-3.2544,-3.3155,-3.4324,-3.5779,-3.7509,-3.8077,-3.8811,-4.0236,-4.0578,-4.0867,-4.1388,-4.1472,-4.1507,-4.1492,-4.1557,-4.1588,-4.1588,-4.1588,-4.1884,-4.2553,-4.2684,-4.2459,-4.1813,-4.311,-4.3491,-4.2775,-4.4007,-4.4865,-4.5354,-4.5354,-4.5372,-4.5398,-4.5494,-4.5546,-4.5598,-4.5693,-4.5708,-4.5608,-4.4981,-4.4187,-4.3282,-4.2533,-4.1748,-4.1023,-4.0959,-4.0959,-4.1023,-4.1047,-4.1082,-4.1111,-4.1076,-4.1047,-4.1099,-4.1305,-4.0477,-3.9349,-3.8812,-3.8222,-3.785,-3.8386,-3.7918,-3.7627,-3.8881,-3.8048,-3.6805,-3.6373,-3.616,-3.6198,-3.6595,-3.6719,-3.6986,-3.7649,-3.781,-3.7898,-3.8035,-3.8035,-3.8018,-3.8068,-3.8218,-3.8362,-3.8415,-3.8576,-3.8755,-3.8976,-3.9133,-3.9251,-3.9314,-3.9163,-3.9078,-3.9078,-3.8902,-3.8803,-3.8803,-3.8848,-3.8851,-3.8773,-3.8728,-3.8683,-3.8621,-3.851,-3.8507,-2.4347,-2.4685,-2.5459,-2.6758,-2.7831,-2.8741,0.0,-3.0781,-3.1976,-3.1976,-3.2509,-3.3532,-3.5287,-3.5783,-3.6319,-3.7604,-3.848,-3.902,-3.9175,-3.9814,-4.0436,-4.0851,-4.1031,-4.116,-4.1155,-4.1445,-4.1588,-4.1588,-4.1588,-4.1654,-4.1737,-4.2314,-4.259,-4.2481,-4.3191,-4.3518,-4.341,-4.3577,-4.3689,-4.3777,-4.3777,-4.3818,-4.3946,-4.444,-4.4708,-4.4845,-4.5257,-4.5079,-4.4439,-4.3696,-4.2918,-4.2116,-4.1254,-4.0838,-4.0769,-4.1,-4.0953,-4.0745,-4.0888,-4.0864,-4.0752,-4.0888,-4.0935,-4.0935,-4.0965,-4.0844,-4.0464,-3.9285,-3.8902,-3.8733,-3.8344,-3.8155,-3.8078,-3.8076,-3.7927,-3.7533,-3.6646,-3.6452,-3.6452,-3.6509,-3.686,-3.7159,-3.7248,-3.7541,-3.7775,-3.7916,-3.7967,-3.8001,-3.8018,-3.8068,-3.8135,-3.8133,-3.8167,-3.8183,-3.8232,-3.8231,-3.8263,-3.8263,-3.8249,-3.8232,-3.8232,-3.8382,-3.8446,-3.8446,-3.8683,-3.867,-3.8372,-3.8417,-3.8287,-3.8003,-3.7986,-3.8204,-2.4566,-2.6102,-2.7576,-2.8489,-2.9659,-3.0674,-3.0988,-3.1675,-3.2314,-3.28,-3.3383,-3.4166,-3.5325,-3.512,-3.5277,-3.6856,-3.6722,-3.6942,-3.8436,-3.903,-3.9529,-4.0101,-4.0166,-4.0266,-4.0507,-4.0995,-4.1185,-4.0873,-4.1187,-4.1489,-4.1588,-4.1868,-4.2029,-4.2029,-4.2253,-4.2584,-4.2956,-4.2986,-4.3169,-4.3512,-4.3512,-4.3525,-4.3584,-4.3823,-4.3939,-4.4009,-4.4197,-4.4073,-4.3608,-4.2302,-4.1553,-4.1095,-3.9674,-3.914,-3.9256,-4.0254,-4.0624,-4.0558,-4.0485,-4.0558,-4.0697,-4.068,-4.0435,-4.0122,-4.0051,-3.9665,-3.9144,-3.8528,-3.8362,-3.8316,-3.8084,-3.7588,-3.7129,-3.704,-3.6587,-3.5992,-3.5399,-3.5288,-3.5351,-3.5638,-3.5841,-3.61,-3.6539,-3.6726,-3.6781,-3.6643,-3.7274,-3.7775,-3.7775,-3.7898,-3.7967,-3.7967,-3.7967,-3.7967,-3.7967,-3.8052,-3.8101,-3.8101,-3.8101,-3.8101,-3.8101,-3.8168,-3.8236,-3.8236,-3.835,-3.8318,-3.817,-3.817,-3.8104,-3.7968,-3.7916,-3.8021,-2.4196,-2.6123,-2.7818,-2.9158,-3.0209,-3.1106,-3.1796,-3.2071,-3.2391,-3.321,-3.3884,-3.4535,-3.5148,-3.4798,-3.4796,-3.6052,-3.564,-3.5735,-3.7567,-3.8329,-3.8845,-3.9204,-3.9341,-3.9316,-3.9075,-4.0124,-4.0718,-4.0549,-4.0957,-4.1305,-4.1439,-4.1472,-4.1439,-4.139,-4.139,-4.1573,-4.2013,-4.2013,-4.2269,-4.2769,-4.2769,-4.2769,-4.2847,-4.3015,-4.3196,-4.336,-4.3178,-4.29,-4.2484,-4.1038,-4.029,-3.9931,-3.8603,-3.809,-3.8185,-3.9289,-3.9817,-4.0011,-4.0045,-4.0238,-4.0478,-4.0412,-3.9949,-3.9422,-3.9327,-3.8721,-3.798,-3.7642,-3.7543,-3.7493,-3.7219,-3.6599,-3.6014,-3.6007,-3.5424,-3.4828,-3.46,-3.4533,-3.4644,-3.4972,-3.4951,-3.5052,-3.5587,-3.5568,-3.5445,-3.519,-3.5901,-3.6534,-3.6735,-3.6681,-3.6718,-3.6916,-3.6862,-3.6898,-3.7077,-3.7198,-3.7231,-3.7231,-3.7231,-3.7356,-3.759,-3.752,-3.7662,-3.8035,-3.7843,-3.7773,-3.7843,-3.7667,-3.756,-3.7505,-3.745,-3.7449,-2.258,-2.3087,-2.3948,-2.7159,-2.7851,-2.8385,-3.0773,-3.1746,-3.2352,-3.3154,-3.395,-3.4673,-3.5265,-3.5507,-3.5588,-3.5467,-3.6123,-3.6579,-3.6389,-3.7776,-3.8612,-3.8116,-3.8721,-3.8455,-3.66,-3.8682,-4.0382,-4.1016,-4.1099,-4.1117,-4.1117,-4.1117,-4.1034,-4.0833,-4.0833,-4.073,-4.0558,-4.0558,-4.0662,-4.0885,-4.0885,-4.0969,-4.1203,-4.1787,-4.2394,-4.2979,-4.2321,-4.1583,-4.0816,-4.0118,-3.9285,-3.8448,-3.8416,-3.8316,-3.8181,-3.8101,-3.837,-3.887,-3.9644,-3.9926,-3.9952,-4.0087,-3.9605,-3.9012,-3.9012,-3.8488,-3.7743,-3.6875,-3.6626,-3.6411,-3.5449,-3.5161,-3.5115,-3.498,-3.4916,-3.4899,-3.489,-3.489,-3.489,-3.4897,-3.4582,-3.4329,-3.4346,-3.404,-3.3757,-3.3759,-3.3679,-3.3874,-3.4521,-3.397,-3.3791,-3.4443,-3.4276,-3.4373,-3.5031,-3.5102,-3.5084,-3.5084,-3.5084,-3.5457,-3.6328,-3.6111,-3.6593,-3.7881,-3.7193,-3.6967,-3.7228,-3.677,-3.6446,-3.6256,-3.6236,-3.6319,-2.189,-2.3207,-2.4914,-2.645,-2.8014,-2.9366,-3.0088,-3.1302,-3.248,-3.3181,-3.3232,-3.3362,-3.3977,-3.3593,-3.3225,-3.3369,-3.3979,-3.4781,-3.5751,-3.6592,-3.7491,-3.8596,-3.866,-3.8711,-3.9067,-3.9462,-3.9418,-3.8766,-4.0088,-4.095,-4.1083,-4.1117,-4.1068,-4.1,-4.0882,-4.0765,-4.0696,-4.0558,-4.0524,-4.0593,-4.0593,-4.0643,-4.0696,-4.0605,-4.0666,-4.0831,-4.0167,-3.9763,-3.9476,-3.8432,-3.7881,-3.7594,-3.6846,-3.6543,-3.66,-3.698,-3.713,-3.7338,-3.8557,-3.9092,-3.9305,-3.9696,-3.9059,-3.8126,-3.8092,-3.7158,-3.6025,-3.5653,-3.5538,-3.53,-3.4303,-3.4077,-3.3945,-3.328,-3.3182,-3.3228,-3.3228,-3.3228,-3.3228,-3.3228,-3.3129,-3.3038,-3.3038,-3.2934,-3.2818,-3.2719,-3.3149,-3.3567,-3.3759,-3.354,-3.3478,-3.3716,-3.3659,-3.3682,-3.3916,-3.3936,-3.3936,-3.3936,-3.3936,-3.4076,-3.4357,-3.4803,-3.5264,-3.5705,-3.6025,-3.6239,-3.634,-3.6172,-3.6066,-3.5998,-3.5895,-3.5895,-2.1646,-2.3096,-2.4708,-2.5959,-2.7455,-2.8718,-2.8954,-3.0217,-3.1547,-3.2357,-3.2593,-3.2778,-3.3105,-3.2803,-3.2503,-3.2501,-3.2995,-3.3826,-3.5075,-3.5831,-3.6618,-3.761,-3.7819,-3.8159,-3.8876,-3.9028,-3.8812,-3.8262,-3.9516,-4.0375,-4.0525,-4.0525,-4.0616,-4.083,-4.0608,-4.0489,-4.042,-4.0211,-4.0141,-4.0211,-4.0366,-4.0263,-3.9933,-3.964,-3.928,-3.8853,-3.8421,-3.8121,-3.7881,-3.7108,-3.6814,-3.6767,-3.5953,-3.5658,-3.5752,-3.618,-3.6274,-3.6352,-3.7706,-3.8262,-3.8414,-3.8767,-3.813,-3.719,-3.7162,-3.6238,-3.5096,-3.4665,-3.4532,-3.4303,-3.3322,-3.3101,-3.2988,-3.244,-3.2368,-3.2458,-3.2498,-3.2498,-3.2507,-3.2472,-3.2212,-3.1976,-3.1932,-3.1665,-3.1395,-3.1264,-3.1682,-3.2121,-3.2438,-3.2114,-3.1969,-3.2203,-3.216,-3.2224,-3.2476,-3.2496,-3.2534,-3.2571,-3.2534,-3.2652,-3.2947,-3.3554,-3.4104,-3.4589,-3.5126,-3.5487,-3.5649,-3.5487,-3.5397,-3.5397,-3.5305,-3.5266,-2.18,-2.2655,-2.335,-2.5539,-2.6144,-2.6475,-2.7476,-2.8598,-2.9749,-3.0799,-3.1951,-3.2744,-3.2592,-3.2987,-3.3156,-3.2646,-3.3091,-3.3705,-3.4238,-3.5386,-3.5967,-3.5349,-3.6344,-3.6801,-3.6216,-3.7451,-3.8622,-3.9373,0.0,-3.9536,-3.9536,-3.9536,-3.976,-4.0281,-4.0101,-3.9925,-3.9717,-3.9517,-3.9517,-3.9681,-4.0056,-3.976,-3.8963,-3.8922,-3.8245,-3.7111,-3.7096,-3.6683,-3.6072,-3.6103,-3.6039,-3.5928,-3.5752,-3.5655,-3.5655,-3.5655,-3.5655,-3.5832,-3.7055,-3.7413,-3.7354,-3.7399,-3.685,-3.6224,-3.6227,-3.5694,-3.4886,-3.3914,-3.3628,-3.3417,-3.2468,-3.2228,-3.2256,-3.2331,-3.2358,-3.2412,-3.2535,-3.2562,-3.2551,-3.2504,-3.181,-3.1206,-3.1073,-3.028,-2.9611,-2.9498,-2.9314,-2.9566,-3.0569,-2.978,-2.9357,-2.9973,-2.9881,-3.0059,-3.0737,-3.0818,-3.0874,-3.0988,-3.0874,-3.1197,-3.2009,-3.2324,-3.3122,-3.4415,-3.4432,-3.4649,-3.5128,-3.4682,-3.4472,-3.4472,-3.4472,-3.4472,-2.2029,-2.2744,-2.3516,-2.4243,-2.5284,-2.6171,-2.6276,-2.8117,-2.9785,-2.9647,-2.9828,-2.9943,-2.9578,-2.9502,-2.972,-3.0431,-3.1505,-3.2498,-3.3186,-3.4043,-3.4685,-3.4917,-3.5815,-3.6625,-3.7088,-3.7739,-3.8266,-3.8587,-3.9612,-4.0243,-4.0243,-4.0243,-4.032,-4.0455,-4.0296,-4.0207,-4.0156,-3.996,-3.9818,-3.9681,-3.9289,-3.8922,-3.8537,-3.7662,-3.6791,-3.5896,-3.5415,-3.4812,-3.421,-3.455,-3.4775,-3.4898,-3.52,-3.5329,-3.5329,-3.5329,-3.5231,-3.5184,-3.5655,-3.6196,-3.6753,-3.7235,-3.6387,-3.5187,-3.5229,-3.4434,-3.3381,-3.2994,-3.286,-3.2631,-3.1472,-3.1265,-3.117,-3.0632,-3.0563,-3.0681,-3.0812,-3.0839,-3.0829,-3.083,-3.0618,-3.0473,-3.0444,-2.9695,-2.9089,-2.9079,-2.8421,-2.8356,-2.9397,-2.937,-2.9282,-2.9357,-2.9403,-2.9454,-2.955,-2.955,-2.9617,-2.975,-2.9728,-2.9808,-3.003,-3.0736,-3.1494,-3.2346,-3.2999,-3.3656,-3.4366,-3.4259,-3.4201,-3.4201,-3.4101,-3.405,-2.2395,-2.3013,-2.359,-2.3894,-2.4627,-2.5177,-2.474,-2.619,-2.7649,-2.775,-2.8074,-2.8348,-2.8395,-2.8646,-2.9051,-2.9691,-3.0815,-3.1833,-3.2501,-3.3142,-3.3617,-3.3926,-3.4628,-3.5473,-3.6562,-3.6852,-3.7158,-3.7623,-3.8811,-3.9669,-4.0043,-4.0043,-4.0197,-4.0489,-4.0366,-4.0277,-4.0172,-4.0137,-3.9879,-3.94,-3.8937,-3.8151,-3.7109,-3.6324,-3.5275,-3.4095,0.0,-3.3587,-3.302,-3.3599,-3.3867,-3.4019,-3.4483,-3.4718,-3.4812,-3.5109,-3.5115,-3.5082,-3.5216,-3.5479,-3.5802,-3.6181,-3.563,-3.4805,-3.4649,-3.3817,-3.2856,-3.2363,-3.1976,-3.1531,-3.0703,-3.0539,-3.0522,-3.011,-3.0078,-3.019,-3.0342,-3.037,-3.0363,-3.0295,-2.9894,-2.9571,-2.9571,-2.8849,-2.8262,-2.8211,-2.7754,-2.76,-2.8143,-2.8295,-2.8247,-2.8056,-2.8115,-2.816,-2.8138,-2.8138,-2.8183,-2.8332,-2.8489,-2.8595,-2.8595,-2.9604,-3.0378,-3.0806,-3.17,-3.2407,-3.2924,-3.2974,-3.299,-3.299,-3.2915,-3.2891,-2.2785,-2.3193,-2.3503,-2.3937,-2.411,-2.3992,-2.3423,-2.4012,-2.4913,-2.5664,-2.66,-2.7514,-2.8051,-2.8988,-2.9729,-2.988,-3.0746,-3.1537,-3.1938,-3.2447,-3.2772,-3.2695,-3.317,-3.3989,-3.5251,-3.5346,-3.5706,-3.6549,-3.7461,-3.8346,-3.9207,-3.9291,-3.9619,-4.032,-4.0211,-4.0076,-3.9874,-3.9844,-3.939,-3.8601,-3.8327,-3.7199,-3.5249,-3.4953,-3.3871,-3.2255,-3.2817,0.0,-3.2106,-3.2775,-3.3059,-3.3102,-3.3625,-3.3861,-3.4063,-3.4744,-3.4949,-3.4996,-3.5204,-3.507,-3.4835,-3.4902,-3.481,-3.4633,-3.4221,-3.3421,-3.2529,-3.1801,-3.0978,-3.0231,-2.9915,-2.9868,-2.9884,-3.0021,-3.0139,-3.0227,-3.0422,-3.0451,-3.0337,-3.0098,-2.9304,-2.8666,-2.8666,-2.7976,-2.7395,-2.7251,-2.7152,-2.7038,-2.6883,-2.702,-2.7024,-2.6777,-2.6776,-2.6827,-2.6923,-2.6923,-2.6983,-2.7108,-2.7455,-2.7659,-2.7659,-2.8702,-2.9407,-2.9623,-3.0476,-3.1067,-3.1295,-3.1496,-3.1568,-3.1568,-3.1568,-3.1568,-2.259,-2.2751,-2.2969,-2.3232,-2.358,-2.3844,-2.3735,-2.4405,-2.4965,-2.4465,-2.5474,-2.6532,-2.6837,-2.81,-2.9352,-3.0319,-3.0984,-3.1273,-3.0934,-3.1691,-3.2164,-3.171,-3.2475,-3.3305,-3.3972,-3.3981,-3.4446,-3.5721,-3.6129,-3.6775,-3.78,-3.8149,-3.87,-3.9499,-3.9478,-3.938,-3.918,-3.7876,-3.6997,-3.6516,-3.5907,-3.5105,-3.4104,-3.4036,-3.3188,-3.1721,-3.1836,0.0,-3.0793,-3.1503,-3.1809,-3.1882,-3.2521,-3.2768,-3.2888,-3.3561,-3.3795,-3.3868,-3.4393,-3.4534,-3.4534,-3.4802,-3.4383,-3.3747,-3.3664,-3.2392,-3.0963,-3.0635,-2.9709,-2.8728,-2.8569,-2.8526,-2.8569,-2.8713,-2.916,-2.9608,-2.9725,-2.9608,-2.92,-2.841,-2.8097,-2.7969,-2.7969,-2.7427,-2.7015,-2.6987,-2.6409,-2.5898,-2.5647,-2.6589,-2.7215,-2.7056,-2.7131,-2.7156,-2.7066,-2.7066,-2.7116,-2.7255,-2.7335,-2.737,-2.737,-2.757,-2.8021,-2.8701,-2.9271,-2.9954,-3.0826,-3.1238,-3.1425,-3.1425,-3.1425,-3.1425,-2.2703,-2.2812,-2.2969,-2.3101,-2.3266,-2.3212,-2.2334,-2.2897,-2.3371,-2.2529,-2.3569,-2.4899,-2.563,-2.6881,-2.8347,-2.9914,-3.0633,-3.1097,-3.1411,-3.1888,-3.2114,-3.1851,-3.2259,-3.265,-3.2874,-3.2867,-3.3135,-3.3779,-3.4242,-3.5302,-3.7181,-3.7596,-3.7898,-3.8169,-3.79,-3.7631,-3.7433,-3.6365,-3.5565,-3.5011,-3.4512,-3.3699,-3.2659,-3.2479,-3.1833,-3.0887,-3.0887,0.0,-3.0024,-3.0573,-3.07,-3.058,-3.1453,-3.1796,-3.197,-3.2571,-3.2814,-3.2901,-3.3135,-3.3206,-3.3241,-3.3402,-3.3679,-3.3925,-3.3689,-3.237,-3.0984,-3.1076,-2.9797,-2.8483,-2.8843,-2.8685,-2.8468,-2.844,-2.8613,-2.8799,-2.8857,-2.877,-2.8568,-2.811,-2.7554,-2.7199,-2.7199,-2.6524,-2.6022,-2.6022,-2.5772,-2.5494,-2.5283,-2.5803,-2.6117,-2.5879,-2.5906,-2.5906,-2.5856,-2.5856,-2.5881,-2.5931,-2.6213,-2.6353,-2.6353,-2.6648,-2.7033,-2.755,-2.7845,-2.8438,-2.9295,-2.9578,-2.985,-3.0107,-3.0107,-3.0107,-2.2609,-2.2838,-2.3091,-2.3091,-2.3091,-2.2691,-2.1201,-2.151,-2.188,-2.0947,-2.194,-2.3366,-2.4501,-2.5843,-2.7388,-2.9341,-2.9961,-3.067,-3.1876,-3.1938,-3.1951,-3.219,-3.2215,-3.2265,-3.239,-3.229,-3.2265,-3.239,-3.2963,-3.4284,-3.6562,-3.7021,-3.708,-3.669,-3.624,-3.5874,-3.548,-3.4692,-3.3988,-3.3415,-3.3152,-3.2408,-3.1264,-3.1123,-3.0717,-3.0167,-3.0167,0.0,0.0,-3.0018,-2.9925,-2.9603,-3.0508,-3.0924,-3.1112,-3.1632,-3.1905,-3.2041,-3.2085,-3.2037,-3.1965,-3.2074,-3.2925,-3.3842,-3.3461,-3.2209,-3.0916,-3.1091,-2.9565,-2.7994,-2.8422,-2.8181,-2.7826,-2.7769,-2.7611,-2.7508,-2.759,-2.7618,-2.7618,-2.7573,-2.6891,-2.6298,-2.6298,-2.5719,-2.5267,-2.5267,-2.541,-2.5481,-2.5314,-2.5286,-2.5162,-2.4904,-2.4815,-2.475,-2.475,-2.475,-2.475,-2.475,-2.5154,-2.5412,-2.5424,-2.584,-2.619,-2.6498,-2.6693,-2.7103,-2.7692,-2.7902,-2.8213,-2.8683,-2.8683,-2.8727,-2.1725,-2.2429,-2.3091,-2.3091,-2.3091,-2.2857,-2.1973,-2.1798,-2.16,-2.0789,-2.1404,-2.2481,-2.3627,-2.534,-2.7179,-2.8907,-2.9096,-2.9602,-3.1248,-3.106,-3.1122,-3.2089,-3.2215,-3.2416,-3.2943,-3.2516,-3.2428,-3.2998,-3.3395,-3.4124,-3.5223,-3.599,-3.6057,-3.5336,-3.5253,-3.4765,-3.3817,-3.2387,-3.1511,-3.1172,-3.1147,-3.0795,-3.0157,-3.0692,-3.059,-3.0006,-3.0006,-2.9699,0.0,-2.9912,-2.9849,-2.9374,-2.9833,-3.0123,-3.0357,-3.0769,-3.1042,-3.1287,-3.187,-3.1829,-3.1533,-3.1951,-3.2196,-3.229,-3.2272,-3.0944,-2.942,-2.9154,-2.7702,-2.6064,-2.5331,-2.5099,-2.509,-2.521,-2.521,-2.5295,-2.5677,-2.5733,-2.5683,-2.5503,-2.5414,-2.5312,-2.5312,-2.5393,-2.5472,-2.5472,-2.5587,-2.5674,-2.5674,-2.5564,-2.5453,-2.5425,-2.5163,-2.4982,-2.4982,-2.4982,-2.4982,-2.4982,-2.5037,-2.5106,-2.5218,-2.5273,-2.5467,-2.5784,-2.6203,-2.6537,-2.6735,-2.7108,-2.7543,-2.7982,-2.7982,-2.8208,-2.047,-2.1372,-2.228,-2.2467,-2.2775,-2.274,-2.1254,-2.1202,-2.1115,-1.9886,-2.0539,-2.1614,-2.2527,-2.353,-2.4825,-2.6618,-2.7171,-2.8147,-3.0405,-3.0925,-3.1486,-3.2604,-3.2729,-3.2692,-3.2566,-3.2353,-3.2428,-3.2962,-3.3129,-3.3462,-3.3983,-3.4324,-3.4232,-3.3617,-3.2948,-3.2319,-3.1809,-3.0881,-3.0342,-3.0241,-3.0241,-3.0088,-2.9897,-3.0139,-3.0088,-2.9897,-2.9897,-2.9415,0.0,-2.9619,-2.9461,-2.8828,-2.9554,-2.979,-2.965,-2.9753,-2.974,-2.9658,-2.9872,-2.9794,-2.9679,-2.9884,-2.9922,-3.0088,-3.0977,-3.0387,-2.9291,-2.8681,-2.7341,-2.6069,-2.5803,-2.5384,-2.4986,-2.471,-2.4602,-2.4606,-2.4895,-2.4947,-2.5063,-2.5381,-2.5395,-2.5332,-2.5332,-2.5309,-2.534,-2.5437,-2.5484,-2.5518,-2.5518,-2.5107,-2.4777,-2.4675,-2.5037,-2.5464,-2.5821,-2.5848,-2.5848,-2.5848,-2.5848,-2.5598,-2.5103,-2.509,-2.509,-2.5174,-2.5335,-2.5634,-2.606,-2.6219,-2.6522,-2.6933,-2.6933,-2.7037,-1.9255,-2.029,-2.1284,-2.1507,-2.1917,-2.1897,-2.0294,-2.0293,-2.0323,-1.9298,-1.9803,-2.0663,-2.1428,-2.2081,-2.303,-2.4631,-2.5497,-2.6847,-2.9275,-3.0114,-3.1012,-3.2441,-3.2579,-3.2554,-3.2466,-3.2466,-3.2559,-3.2769,-3.2797,-3.2816,-3.2866,-3.2699,-3.2446,-3.212,-3.1318,-3.0718,-3.0369,-2.9993,-2.9792,-2.9792,-2.9792,-2.9654,-2.9378,-2.9679,-2.9642,-2.9378,-2.9679,-2.9339,0.0,-2.9441,-2.9124,-2.8213,-2.9164,-2.9249,-2.8812,-2.8831,-2.8743,-2.8642,-2.8524,-2.8431,-2.8351,-2.8471,-2.8431,-2.8445,-2.9185,-2.9076,-2.8543,-2.7729,-2.6467,-2.539,-2.5477,-2.5011,-2.4446,-2.406,-2.3909,-2.3927,-2.426,-2.4317,-2.4525,-2.5239,-2.532,-2.532,-2.532,-2.5317,-2.5312,-2.5416,-2.5236,-2.508,-2.508,-2.45,-2.4032,-2.3898,-2.4458,-2.4997,-2.5385,-2.5426,-2.5426,-2.5426,-2.5528,-2.5237,-2.4463,-2.4524,-2.4466,-2.4266,-2.4266,-2.4464,-2.4902,-2.5106,-2.5322,-2.5541,-2.5739,-2.5906,-1.8161,-1.9232,-2.0232,-2.0232,-2.0342,-2.0208,-1.9328,-1.9203,-1.9307,-1.9287,-1.9297,-1.9597,-2.0449,-2.1375,-2.2304,-2.3276,-2.4417,-2.5874,-2.7766,-2.8211,-2.91,-3.1192,-3.1411,-3.1851,-3.2998,-3.3111,-3.297,-3.2653,-3.2603,0.0,-3.1856,-3.1269,-3.0925,-3.0925,-3.0925,-3.0541,-2.9804,-2.9792,-2.9792,-2.9792,-2.9792,-2.9277,-2.8366,-2.9353,-2.9252,-2.8391,-2.9378,-2.9465,0.0,-2.9553,-2.8912,-2.7607,-2.8494,-2.8346,-2.7779,-2.8096,-2.8339,-2.8498,-2.851,-2.8243,-2.7962,-2.8351,-2.8231,-2.7733,-2.6662,-2.6635,-2.6741,-2.5882,-2.4574,-2.3442,-2.3442,-2.3098,-2.2741,-2.2707,-2.2707,-2.2902,-2.3561,-2.37,-2.3945,-2.4672,-2.4981,-2.5099,-2.5099,-2.5316,-2.5498,-2.5498,-2.4811,-2.4323,-2.4323,-2.3717,-2.3314,-2.3314,-2.3314,-2.3255,-2.316,-2.3118,-2.3118,-2.3118,-2.3443,-2.3461,-2.3143,-2.338,-2.3362,-2.3042,-2.303,-2.303,-2.303,-2.3673,-2.3936,-2.3723,-2.4397,-2.4978,-1.6099,-1.707,-1.7968,-1.8128,-1.8941,-1.9497,-1.865,-1.8918,-1.9287,-1.9287,-1.9287,-1.9588,-2.0449,-2.075,-2.1222,-2.2402,-2.3192,-2.4489,-2.6744,-2.7864,-2.8966,-3.041,-3.0715,-3.1208,-3.2271,-3.1504,-3.1445,-3.2507,-3.1863,-3.1356,-3.1179,-3.1001,-3.0833,-3.0687,-3.0322,-3.0045,-2.9792,-2.9792,-2.9792,-2.9792,-2.9792,-2.9504,-2.8934,-2.9517,-2.9492,-2.8922,-2.9013,0.0,0.0,-2.8201,-2.773,-2.7016,-2.7642,-2.7742,-2.7523,-2.7612,-2.7475,-2.7277,-2.7277,-2.7301,-2.7352,-2.7289,-2.7221,-2.6986,-2.6144,-2.6153,-2.6219,-2.4991,-2.4309,-2.3959,-2.3959,-2.3844,-2.3626,-2.3282,-2.3167,-2.3271,-2.3619,-2.3688,-2.3921,-2.4648,-2.4861,-2.4897,-2.4897,-2.485,-2.4802,-2.4802,-2.423,-2.3754,-2.3754,-2.2849,-2.2209,-2.2209,-2.1808,-2.2164,-2.3717,-2.3847,-2.3773,-2.3669,-2.4006,-2.3788,-2.2798,-2.3251,-2.3304,-2.2882,-2.3235,-2.3417,-2.3417,-2.3254,-2.2972,-2.2621,-2.2807,-2.2997,-1.4951,-1.5739,-1.636,-1.6476,-1.7473,-1.8234,-1.7752,-1.8227,-1.8896,-1.9219,-1.9541,-1.9969,-2.0507,-2.0761,-2.1013,-2.1307,-2.2389,-2.3657,-2.4953,-2.6455,-2.7808,-2.8909,-2.9508,-3.0107,-3.0729,-3.0107,-2.9951,-3.0638,-3.0163,-2.9698,-2.949,-2.9478,-2.9398,-2.929,-2.9642,-2.9792,-2.9792,-2.9792,-2.9792,-2.9792,-2.9792,-2.9492,-2.8884,-2.9338,-2.9151,-2.8457,-2.8437,0.0,0.0,-2.7545,-2.7091,-2.6542,-2.709,-2.7046,-2.6709,-2.691,-2.6788,-2.6543,-2.6543,-2.6671,-2.6722,-2.6269,-2.5986,-2.5702,-2.4959,-2.5078,-2.5329,-2.4445,-2.42,-2.42,-2.42,-2.42,-2.412,-2.3763,-2.3694,-2.3765,-2.3955,-2.399,-2.4048,-2.4192,-2.4202,-2.4166,-2.4141,-2.3984,-2.402,-2.4345,-2.3752,-2.3279,-2.3279,-2.2354,-2.1677,-2.1486,-2.1106,-2.1371,-2.2672,-2.2841,-2.2841,-2.2715,-2.3091,-2.2887,-2.1932,-2.2408,-2.2503,-2.2025,-2.2341,-2.2554,-2.2674,-2.2261,-2.1973,-2.171,-2.1459,-2.1471,0.0,-1.5017,-1.525,-1.525,-1.5929,-1.6535,-1.6535,-1.7243,0.0,-1.9107,-1.9972,-2.0586,-2.0693,-2.1377,-2.1557,-2.0248,-2.1977,-2.3302,-2.2838,-2.4416,-2.5945,-2.6915,-2.7965,-2.8634,-2.869,-2.879,-2.8515,-2.7671,-2.7801,-2.7667,-2.7174,-2.7151,-2.7151,-2.7151,-2.8752,-2.9624,-2.9624,-2.9663,-2.9625,-2.9512,-2.9625,-2.9126,-2.8145,-2.8717,-2.8346,0.0,0.0,0.0,0.0,-2.7348,-2.6846,-2.6166,-2.6585,-2.6215,-2.5536,-2.6001,-2.6188,-2.6188,-2.6153,-2.6142,-2.6015,-2.5226,-2.463,-2.406,-2.33,-2.3566,-2.4116,-2.408,-2.4043,-2.4043,-2.4043,-2.4043,-2.4043,-2.4043,-2.4043,-2.408,-2.4309,-2.4345,-2.4105,-2.3327,-2.3121,-2.3047,-2.2909,-2.2787,-2.3047,-2.3849,-2.3239,-2.2664,-2.2664,-2.2055,-2.1443,-2.0994,-2.0973,-2.0774,-2.0347,-2.0541,-2.0669,-2.0669,-2.1106,-2.1151,-2.0691,-2.1151,-2.1195,-2.0768,-2.0791,-2.0906,-2.113,-2.0984,-2.0963,-2.104,-2.0422,-2.0476,-1.377,0.0,-1.3953,-1.3953,-1.4511,-1.511,0.0,-1.6051,-1.7391,-1.9059,-1.9916,-2.0624,-2.1455,-2.2327,-2.2578,-2.1595,-2.2291,-2.3106,-2.3477,-2.4832,-2.5885,-2.6209,-2.6606,-2.6978,-2.7379,-2.691,-2.6856,-2.753,-2.7292,-2.7195,-2.7395,-2.7395,-2.7395,-2.7395,-2.7799,-2.7931,-2.773,-2.8462,-2.8105,-2.6762,-2.7767,-2.763,-2.6493,-2.7234,-2.764,0.0,0.0,0.0,-2.6963,-2.5861,-2.5476,-2.5481,-2.5349,-2.5321,-2.5324,-2.513,-2.5066,-2.5011,-2.453,-2.4467,-2.4508,-2.3785,-2.3485,-2.3268,-2.2734,-2.2992,-2.3423,-2.2953,-2.2606,-2.2408,-2.2558,-2.2483,-2.2371,-2.2371,-2.2371,-2.2408,-2.2633,-2.267,-2.2547,-2.2209,-2.2124,-2.2,-2.16,-2.141,-2.1372,-2.1562,-2.0978,-2.0518,-2.0518,-2.0052,-1.9705,-1.9595,-1.9584,-1.9544,-1.9409,-2.0066,-2.041,-2.0248,-2.0737,-2.0846,-2.0475,-2.1172,-2.1441,-2.124,-2.1599,-2.1621,-2.1341,-2.1152,-2.0897,-2.0561,-2.0511,-2.0552,-1.3492,-1.3492,-1.3565,-1.3865,-1.4278,-1.4689,-1.4977,-1.5635,-1.6651,-1.8319,-1.9332,-2.0101,-2.0842,-2.1665,-2.2115,-2.1635,-2.1964,-2.2729,-2.3894,-2.4713,-2.5129,-2.5007,-2.4977,-2.5018,-2.523,-2.5016,-2.5111,-2.568,-2.555,-2.5526,-2.5777,-2.5819,-2.5819,-2.5819,-2.5694,-2.6016,-2.676,-2.729,-2.6731,-2.5226,-2.6319,-2.6285,-2.526,-2.5907,-2.6251,0.0,0.0,0.0,-2.527,-2.4543,-2.4393,-2.4656,-2.455,-2.4637,-2.4725,-2.4234,-2.4046,-2.3971,-2.3314,-2.2949,-2.2663,-2.2296,-2.2185,-2.2076,-2.1428,-2.1728,-2.2312,-2.2392,-2.2241,-2.208,-2.2231,-2.2155,-2.208,-2.208,-2.208,-2.2069,-2.2048,-2.2048,-2.1859,-2.1211,-2.0981,-2.0827,-2.0459,-2.0236,-2.0246,-2.0624,-2.0361,-2.0071,-1.9985,-1.9782,-1.9484,-1.918,-1.9161,-1.9084,-1.8966,-1.9384,-1.9675,-1.9641,-1.9952,-2.0088,-1.9894,-2.0411,-2.0762,-2.0951,-2.1321,-2.148,-2.1386,-2.1407,-2.1058,-2.0379,-2.0429,-2.0257,-1.3564,-1.3601,-1.3785,-1.4357,-1.4479,-1.4616,-1.5272,-1.5486,-1.5948,-1.7483,-1.8614,-1.9424,-1.9858,-2.0684,-2.1221,-2.098,-2.1266,-2.207,-2.3556,-2.3996,-2.3982,-2.3557,-2.3419,-2.33,-2.3115,-2.3442,-2.3589,-2.3446,-2.3624,-2.3797,-2.3841,-2.3841,-2.3841,-2.3841,-2.3721,-2.4327,-2.587,-2.6077,-2.5488,-2.4126,-2.5049,-2.4995,-2.4187,-2.4596,-2.4724,-2.4559,0.0,0.0,-2.3566,-2.3531,-2.3652,-2.3833,-2.3913,-2.3913,-2.387,-2.3218,-2.2991,-2.2879,-2.2224,-2.153,-2.0914,-2.0875,-2.0875,-2.0798,-2.0128,-2.0391,-2.1106,-2.1863,-2.2052,-2.2014,-2.2063,-2.2014,-2.1939,-2.1939,-2.1863,-2.1776,-2.1583,-2.1535,-2.1229,-2.0168,-1.9825,-1.9638,-1.9402,-1.9213,-1.9332,-2.0031,-2.0109,-2.006,-1.9894,-1.9855,-1.9635,-1.9067,-1.9029,-1.8928,-1.8704,-1.8676,-1.8741,-1.8917,-1.9178,-1.9308,-1.9354,-1.9518,-1.9814,-2.0268,-2.0488,-2.0789,-2.1139,-2.1317,-2.0966,-2.014,-2.0175,-1.9809,-1.3761,-1.4102,-1.4441,-1.4493,-1.4134,-1.3941,-1.4587,-1.4734,-1.5272,-1.7281,-1.836,-1.9135,-1.9988,-2.1328,-2.1703,-1.9982,-2.0272,-2.0826,-2.09,-2.2171,-2.2796,-2.2162,-2.2856,-2.3166,-2.2568,-2.2763,-2.3003,-2.3144,-2.3406,-2.3721,-2.411,-2.4153,-2.4153,-2.4153,-2.412,-2.3927,-2.3594,-2.4542,-2.4169,-2.2493,-2.375,-2.3782,-2.2757,-2.3198,-2.3836,-2.4459,0.0,-2.3664,-2.3866,-2.3319,-2.3268,-2.3503,-2.2899,-2.2696,-2.2564,-2.183,-2.1523,-2.1424,-2.0807,-2.0394,-2.0059,-1.9902,-1.9942,-2.005,-1.9942,-2.0137,-2.045,-2.0566,-2.045,-2.0323,-2.0566,-2.0206,-1.9766,-1.9766,-1.9508,-1.9311,-1.942,-1.946,-1.9341,-1.9002,-1.8922,-1.8763,-1.8313,-1.8233,-1.8233,-1.8353,-1.8393,-1.8385,-1.8345,-1.8345,-1.8278,-1.8186,-1.8178,-1.816,-1.8139,-1.8131,-1.8131,-1.817,-1.8873,-1.939,-1.9555,-1.9591,-1.9633,-1.9716,-1.9767,-1.9813,-1.9895,-1.9767,-1.9597,-1.9472,-1.9582,-1.957,-1.3964,-1.4272,-1.4698,-1.5048,-1.4675,-1.4479,-1.5356,-1.5021,-1.504,-1.6908,-1.7494,-1.7973,-1.8996,-1.9853,-2.0228,-1.9701,-2.0757,-2.1508,-2.1224,-2.1683,-2.1849,-2.1276,0.0,-2.1545,-2.1692,-2.185,-2.229,-2.3047,-2.3232,-2.3363,-2.358,-2.3624,-2.3624,-2.3624,-2.3493,-2.3319,-2.3091,-2.3507,-2.3018,-2.1607,-2.2566,-2.2528,-2.1607,-2.2121,-2.2589,-2.2974,0.0,-2.2389,-2.2422,-2.2133,-2.2043,-2.2063,-2.1858,-2.1734,-2.1673,-2.0977,-2.0464,-2.0108,-1.986,-1.9666,-1.9539,-1.9469,-1.9508,-1.9587,-1.9715,-1.9587,-1.942,-1.9244,-1.9726,-2.0255,-2.0108,-1.9863,-1.9587,-1.9341,-1.9152,-1.9002,-1.8851,-1.8851,-1.8603,-1.7781,-1.761,-1.7408,-1.6714,-1.6591,-1.6755,-1.7245,-1.6919,-1.6714,-1.709,-1.6714,-1.6386,-1.6221,-1.6221,-1.6468,-1.709,-1.7131,-1.7383,-1.7959,-1.8389,-1.8638,-1.8724,-1.8724,-1.8881,-1.9162,-1.8966,-1.9078,-1.9487,-1.9171,-1.8873,-1.862,-1.8665,-1.8451,-1.4093,-1.4419,-1.485,-1.534,-1.5148,-1.5137,-1.6279,-1.5496,-1.4973,-1.6587,-1.6751,-1.6921,-1.7923,-1.8215,-1.8633,-1.9437,-2.0658,-2.1461,-2.1189,-2.1077,-2.0853,-2.0334,-2.0067,-2.0101,-2.0651,-2.0891,-2.1472,-2.2599,-2.2731,-2.2775,-2.2775,-2.2775,-2.2775,-2.2775,-2.2608,-2.2658,-2.2911,-2.2737,-2.2284,-2.1569,-2.187,-2.1665,-2.1067,-2.1296,-2.1403,-2.1385,-2.1256,-2.1108,-2.0943,-2.102,-2.0931,-2.0806,-2.087,-2.085,-2.0686,-2.0011,-1.9447,-1.9094,-1.9094,-1.8975,-1.8856,-1.9094,-1.9015,-1.8856,-1.8904,-1.8616,-1.8238,-1.7931,-1.8731,-1.958,-1.9234,-1.9076,-1.8917,-1.8598,-1.8439,-1.8287,-1.7991,-1.791,-1.7619,-1.6576,-1.6412,-1.6165,-1.5519,-1.5394,-1.5643,-1.6288,-1.5842,-1.5602,-1.6105,-1.5602,-1.5103,-1.4901,-1.4859,-1.5228,-1.618,-1.6221,-1.655,-1.7335,-1.7578,-1.7708,-1.7708,-1.7578,-1.7709,-1.813,-1.806,-1.8324,-1.8933,-1.8577,-1.8201,-1.7804,-1.7723,-1.7326,-1.4093,-1.461,-1.5089,-1.4824,-1.484,-1.524,-1.6573,-1.5697,-1.5022,-1.6587,-1.6647,-1.6661,-1.7335,-1.752,-1.7839,-1.8744,-1.8796,-1.8767,-1.8992,-1.9532,-1.9669,-1.9082,-1.9521,-1.9832,-1.9633,-1.9832,-2.0385,-2.1382,-2.165,-2.1784,-2.1784,-2.1784,-2.1784,-2.1784,-2.1784,-2.1926,-2.2269,-2.2269,-2.239,-2.2663,-2.2111,-2.1706,-2.145,-2.0835,-2.0613,-2.0604,-2.0576,-2.0558,-2.0558,-2.053,-2.0521,-2.0484,-2.0118,-1.9773,-1.9344,-1.85,-1.8256,-1.8381,-1.8381,-1.798,-1.7585,-1.8447,-1.8207,-1.748,-1.7025,-1.7009,-1.7041,-1.6585,-1.6659,-1.6887,-1.6846,-1.6569,-1.6291,-1.625,-1.5944,-1.5684,-1.5643,-1.5643,-1.5602,-1.5519,-1.5477,-1.5477,-1.5394,-1.5394,-1.5436,-1.5477,-1.5436,-1.5436,-1.5477,-1.5436,-1.5352,-1.5352,-1.5352,-1.547,-1.5745,-1.5745,-1.5703,-1.5602,-1.6337,-1.678,-1.678,-1.637,-1.615,-1.6201,-1.705,-1.7472,-1.7553,-1.7334,-1.7188,-1.7172,-1.6894,-1.6771,-1.4281,-1.4906,-1.5549,-1.5736,-1.5797,-1.6001,-1.6668,-1.6041,-1.5676,-1.7122,-1.6876,-1.6601,-1.7236,-1.7705,-1.816,-1.8738,-1.8687,-1.8695,-1.8789,-1.8674,-1.8472,-1.8255,-1.827,-1.8473,-1.9026,-1.9155,-1.9613,-2.0557,-2.0692,-2.0782,-2.0782,-2.0782,-2.0782,-2.0782,-2.0598,-2.058,-2.0708,-2.0508,-2.0454,-2.0641,-2.1028,-2.1217,-2.1123,-2.067,-2.0521,-2.0521,-2.0521,-2.0383,-2.0113,-2.0113,-1.9998,-1.9661,-1.898,-1.8709,-1.8576,-1.7683,-1.7513,-1.7747,-1.7747,-1.7585,-1.7432,-1.7764,-1.7472,-1.6984,-1.7058,-1.6568,-1.5951,-1.5771,-1.5406,-1.5247,-1.6003,-1.6119,-1.5928,-1.5703,-1.5511,-1.5394,-1.5394,-1.5394,-1.5269,-1.4852,-1.4636,-1.4426,-1.4013,-1.3844,-1.388,-1.4468,-1.409,-1.3964,-1.4685,-1.4307,-1.4019,-1.4146,-1.465,-1.4852,-1.4496,-1.5199,-1.553,-1.515,-1.5628,-1.5752,-1.5489,-1.5289,-1.5206,-1.5206,-1.5255,-1.5296,-1.5296,-1.497,-1.481,-1.481,-1.4685,-1.465,-1.4553,-1.5125,-1.5786,-1.6146,-1.6168,-1.6234,-1.6751,-1.6337,-1.6169,-1.7287,-1.7095,-1.6839,-1.722,-1.7715,-1.8173,-1.8599,-1.8672,-1.8658,-1.865,-1.8247,-1.7889,-1.7684,-1.7417,-1.7552,-1.8241,-1.8334,-1.8742,-1.9695,-1.9786,-1.9786,-1.9786,-1.9669,-1.9602,-1.9602,-1.9339,-1.9183,-1.9238,-1.9067,-1.8837,-1.86,-1.9404,-1.99,-2.006,-1.9891,-1.9713,-1.9505,-1.9505,-1.9519,-1.9489,-1.9236,-1.8864,-1.8407,-1.7836,-1.7594,-1.7464,-1.6617,-1.6404,-1.6568,-1.6601,-1.6445,-1.6288,-1.6731,-1.6453,-1.6,-1.6247,-1.5677,-1.4943,-1.4796,-1.4349,-1.4075,-1.4949,-1.5143,-1.4983,-1.4636,-1.4552,-1.4552,-1.4552,-1.4601,-1.4559,-1.4062,-1.3886,-1.3675,-1.3264,-1.3052,-1.313,-1.3717,-1.3294,-1.3215,-1.3977,-1.3561,-1.3179,-1.3179,-1.3724,-1.3844,-1.3324,-1.4203,-1.4573,-1.4092,-1.4287,-1.4378,-1.4238,-1.4203,-1.4119,-1.4077,-1.4041,-1.3999,-1.3999,-1.3675,-1.347,-1.347,-1.3434,-1.3398,-1.4838,-1.5268,-1.5722,-1.5866,-1.5678,-1.5723,-1.6852,-1.6639,-1.6378,-1.7041,-1.733,-1.7385,-1.729,-1.7418,-1.7697,-1.82,-1.8326,-1.8376,-1.8293,-1.8291,-1.8057,-1.7359,-1.7279,-1.7279,-1.7279,-1.7279,-1.7692,-1.8696,-1.8796,-1.8796,-1.8796,-1.8454,-1.8263,-1.8263,-1.7958,-1.7822,-1.7971,-1.8188,-1.7838,-1.7,-1.7277,-1.7713,-1.8304,-1.8307,-1.7974,-1.7399,-1.7399,-1.7885,-1.8616,-1.7764,-1.7107,-1.6698,-1.6698,-1.6396,-1.588,-1.5032,-1.4699,-1.474,-1.4928,-1.4413,-1.3942,-1.5247,-1.5088,-1.4356,-1.4166,-1.4088,-1.4004,-1.3525,-1.3398,-1.3398,-1.3398,-1.327,-1.3052,-1.279,-1.2705,-1.2705,-1.2705,-1.2924,-1.3094,-1.31,-1.3264,-1.3398,-1.3398,-1.3398,-1.3398,-1.3398,-1.3392,-1.3392,-1.3392,-1.3392,-1.3179,-1.2747,-1.2705,-1.2619,-1.2406,-1.2577,-1.2491,-1.2015,-1.2235,-1.265,-1.3269,-1.3075,-1.2875,-1.2705,-1.3542,-1.3957,-1.3957,-1.3789,-1.3662,-1.3662,-1.347,-1.3398,-1.5109,-1.5457,-1.5722,-1.5849,-1.6313,-1.6755,-1.6737,-1.6617,-1.6609,-1.7094,-1.7248,-1.7213,-1.7064,-1.7381,-1.7768,-1.7914,-1.7945,-1.7974,-1.7928,-1.7765,-1.7545,-1.7308,-1.7279,-1.7279,-1.7279,-1.7279,-1.7419,-1.7738,-1.7738,-1.7738,-1.7738,-1.7294,-1.7032,-1.7032,-1.6353,-1.6058,-1.6312,-1.6121,-1.6005,-1.5873,-1.6435,-1.7049,-1.7679,-1.7652,-1.7561,-1.7399,-1.7399,-1.7561,-1.7723,-1.7147,-1.6642,-1.6134,-1.5523,-1.5282,-1.5199,-1.43,-1.4139,-1.43,-1.4336,-1.4216,-1.4055,-1.4601,-1.4391,-1.3942,-1.4237,-1.4075,-1.3828,-1.387,-1.387,-1.387,-1.3652,-1.3561,-1.3483,-1.3222,-1.3179,-1.3179,-1.3179,-1.3264,-1.3355,-1.3483,-1.3483,-1.344,-1.361,-1.3483,-1.3398,-1.3398,-1.2833,-1.2357,-1.2235,-1.2046,-1.2083,-1.2448,-1.2003,-1.1483,-1.0982,-1.0486,-1.0048,-0.9584,-0.9802,-1.0539,-1.1849,-1.1854,-1.1774,-1.1731,-1.1983,-1.2106,-1.2106,-1.202,-1.202,-1.202,-1.1946,-1.1903,-1.4793,-1.4984,-1.5264,-1.5562,-1.592,-1.6111,-1.5979,-1.6315,-1.6762,-1.7288,-1.7331,-1.7185,-1.7086,-1.7465,-1.7816,-1.7816,-1.7925,-1.7962,-1.783,-1.7647,-1.7425,-1.7301,-1.7279,-1.7279,-1.7279,-1.7279,-1.7279,-1.7279,-1.7279,-1.7228,-1.6965,-1.6531,-1.6256,-1.6135,-1.5504,-1.5241,-1.5418,-1.5274,-1.5257,-1.5305,-1.579,-1.6188,-1.6591,-1.6878,-1.6878,-1.6591,-1.678,-1.6657,-1.6329,-1.6239,-1.5696,-1.4907,-1.4378,-1.4126,-1.3999,-1.3512,-1.3428,-1.3548,-1.3548,-1.3548,-1.3591,-1.3808,-1.3688,-1.3519,-1.3893,-1.3857,-1.3652,-1.3483,-1.3483,-1.3434,-1.2875,-1.2747,-1.2741,-1.2833,-1.2833,-1.2747,-1.2357,-1.2662,-1.3052,-1.3179,-1.3137,-1.3179,-1.3264,-1.2875,-1.2577,-1.2577,-1.1923,-1.1311,-1.1004,-1.0821,-1.0821,-1.109,-1.0735,-1.0221,-0.9637,-0.9274,-0.8921,-0.8544,-0.8759,-0.9283,-1.0164,-1.0294,-1.0294,-1.0207,-1.0207,-1.0255,-1.0342,-1.0342,-1.0342,-1.0342,-1.0424,-1.0381,-1.4105,-1.4143,-1.4475,-1.5006,-1.4695,-1.4392,-1.4772,-1.5638,-1.6587,-1.7355,-1.7358,-1.7196,-1.7037,-1.7282,-1.7476,-1.7532,-1.7819,-1.7913,-1.7719,-1.7676,-1.7567,-1.7268,-1.7286,-1.7286,-1.7286,-1.7286,-1.7279,-1.7279,-1.7326,-1.7101,-1.6567,-1.6199,-1.5884,-1.5619,-1.5254,-1.509,-1.509,-1.5257,-1.5305,-1.5131,-1.5305,-1.5389,-1.5347,-1.5989,-1.5948,-1.534,-1.5684,-1.5345,-1.4608,-1.5039,-1.4461,-1.3355,-1.3355,-1.3094,-1.2705,-1.2705,-1.2705,-1.2705,-1.2705,-1.2705,-1.2747,-1.3009,-1.307,-1.3046,-1.3217,-1.3357,-1.3291,-1.2514,-1.2428,-1.2342,-1.1516,-1.13,-1.1386,-1.1732,-1.1871,-1.1709,-1.0852,-1.1542,-1.232,-1.232,-1.2448,-1.2577,-1.2577,-1.1837,-1.1192,-1.1063,-1.0659,-1.0173,-0.9774,-0.9682,-0.9557,-0.9213,-0.9083,-0.8873,-0.8452,-0.854,-0.8496,-0.8281,-0.8452,-0.8496,-0.8237,-0.8627,-0.8759,-0.85,-0.85,-0.8632,-0.889,-0.889,-0.889,-0.8934,-0.9104,-0.8973,-1.3873,-1.3997,-1.3992,-1.3909,-1.3717,-1.3658,-1.4237,-1.4188,-1.4374,-1.5644,-1.6278,-1.6267,-1.513,-1.4987,-1.5175,-1.5565,-1.5665,-1.5972,-1.6734,-1.6869,-1.6848,-1.6784,-1.6925,-1.7066,-1.7066,-1.7192,-1.7279,-1.7279,-1.7481,-1.7387,-1.6826,-1.6505,-1.6097,-1.5619,-1.5078,-1.4908,-1.509,-1.5131,-1.5215,0.0,-1.5389,-1.5215,-1.4866,-1.5374,-1.5333,-1.4824,-1.4615,-1.4201,-1.3688,-1.3808,-1.3421,-1.2833,-1.2833,-1.279,-1.2705,-1.2705,-1.2705,-1.2705,-1.2705,-1.2705,-1.2747,-1.3009,-1.2665,-1.2207,-1.2382,-1.2065,-1.1629,-1.1448,-1.1403,-1.1403,-1.1177,-1.1131,-1.0995,-1.0364,-1.0834,-1.1408,-1.1192,-1.137,-1.1542,-1.1542,-1.158,-1.158,-1.158,-1.1144,-1.0394,-0.9266,-0.869,-0.8384,-0.8261,-0.8093,-0.8269,-0.8886,-0.8317,-0.7834,-0.7705,-0.6918,-0.6349,-0.6305,-0.6349,-0.6349,-0.6305,-0.7753,-0.8544,-0.85,-0.85,-0.8632,-0.889,-0.889,-0.8973,-0.9148,-0.9192,-0.9148,-1.2397,-1.2293,-1.2216,-1.2361,-1.2367,-1.2368,-1.2683,-1.2901,-1.3084,-1.3332,-1.4248,-1.4794,-1.404,-1.3926,-1.4022,-1.4262,-1.4262,-1.4501,-1.5032,-1.5127,-1.5127,-1.5127,-1.5229,-1.5324,-1.5324,-1.5412,-1.5792,-1.6513,-1.6427,-1.6441,-1.6638,-1.6228,-1.5828,-1.539,-1.5042,-1.4999,-1.5257,-1.5257,-1.5298,-1.5389,-1.5173,-1.4642,-1.3864,-1.4473,-1.4622,-1.4398,-1.3948,-1.3616,-1.3392,-1.3179,-1.2918,-1.2674,-1.2282,-1.211,-1.2078,-1.1883,-1.1794,-1.1794,-1.1932,-1.1899,-1.1871,-1.2114,-1.1849,-1.1455,-1.1544,-1.1394,-1.1051,-1.0551,-1.0505,-1.0553,-1.0057,-0.9967,-0.9876,-0.9298,-0.9889,-1.0404,-0.9961,-1.023,-1.0538,-1.0538,-1.0538,-1.0415,-1.0093,-0.9327,-0.8436,-0.7478,-0.7214,-0.7037,-0.6827,-0.683,-0.7003,-0.7489,-0.7224,-0.6959,-0.6959,-0.6387,-0.5994,-0.5908,-0.5994,-0.5994,-0.5908,-0.6918,-0.7401,-0.7183,-0.7272,-0.7489,-0.7705,-0.7841,-0.7929,-0.8061,-0.8145,-0.8053,-1.0597,-1.0343,-1.0395,-1.0899,-1.0967,-1.0958,-1.0935,-1.1536,-1.1895,-1.1082,-1.2242,-1.329,-1.3006,-1.2958,-1.3006,-1.3102,-1.3097,-1.3145,-1.3343,-1.3343,-1.3343,-1.3343,-1.3392,-1.344,-1.344,-1.3482,-1.4016,-1.5317,-1.4952,-1.4982,-1.5702,-1.5364,-1.5013,-1.4755,-1.4824,-1.4999,-1.5257,-1.5298,-1.5215,-1.5082,-1.444,-1.3598,-1.2715,-1.3262,-1.3632,-1.374,-1.3404,-1.3222,-1.3094,-1.2705,-1.2443,-1.2252,-1.1586,-1.1357,-1.129,-1.089,-1.0801,-1.0825,-1.1014,-1.1005,-1.091,-1.1051,-1.091,-1.0661,-1.0661,-1.0676,-1.0527,-0.9615,-0.9593,-0.9678,-0.8779,-0.8624,-0.8692,-0.8556,-0.9001,-0.9237,-0.8498,-0.894,-0.9493,-0.9477,-0.9389,-0.91,-0.8377,-0.7389,-0.6561,-0.6083,-0.6169,-0.6124,-0.5733,-0.5952,-0.6083,-0.6083,-0.6257,-0.6308,-0.6195,-0.615,-0.5983,-0.5695,-0.5989,-0.6019,-0.5665,-0.6,-0.5899,-0.5327,-0.5861,-0.6169,-0.6207,-0.6435,-0.6479,-0.639,-0.6517,-0.6425,-0.9608,-0.9909,-1.0271,-1.0251,-1.0134,-0.9953,-0.9849,-0.9839,-0.9816,-0.9838,-1.1414,-1.242,-1.1086,-1.0797,-1.0988,-1.1414,-1.1512,-1.1804,-1.2678,-1.2823,-1.2823,-1.2823,-1.3017,-1.3167,-1.3167,-1.3349,-1.3578,-1.3771,-1.3814,-1.3598,-1.3211,-1.32,-1.3194,-1.3281,-1.3662,-1.4181,-1.4783,-1.4776,-1.4517,-1.3922,-1.2431,-1.1744,-1.1755,-1.1473,-1.1717,-1.2481,-1.2709,-1.2448,-1.1929,-1.1843,-1.1456,-1.0852,-1.0753,-1.0725,-1.0725,-1.0668,-1.0721,-1.086,-1.0749,-1.0794,-1.086,-1.0733,-1.0214,-0.9669,-0.9669,-0.9242,-0.8668,-0.8509,-0.8517,-0.8528,-0.837,-0.8335,-0.8346,-0.8327,-0.8396,-0.849,-0.8568,-0.8677,-0.8722,-0.8597,-0.8261,-0.766,-0.6617,-0.6444,-0.6299,-0.5822,-0.5777,-0.5777,-0.5688,-0.5952,-0.6083,-0.6083,-0.6127,-0.5902,-0.5322,-0.5052,-0.4673,-0.4052,-0.4824,-0.4869,-0.3952,-0.4741,-0.4786,-0.3892,-0.5494,-0.6074,-0.5539,-0.5583,-0.527,-0.4645,-0.4645,-0.4643,-0.901,-0.9148,-0.944,-0.9757,-0.9633,-0.9425,-0.9596,-0.9486,-0.9457,-0.9592,-1.035,-1.0734,-1.0068,-0.9969,-1.0019,-1.0256,-1.0306,-1.0449,-1.089,-1.1081,-1.1151,-1.1151,-1.1308,-1.1479,-1.1479,-1.1466,-1.1831,-1.2713,-1.2299,-1.2292,-1.2876,-1.2578,-1.239,-1.2462,-1.2632,-1.2887,-1.3184,-1.319,-1.2967,-1.2513,-1.1866,-1.1252,-1.0723,-1.0938,-1.1288,-1.1634,-1.1808,-1.1675,-1.1413,-1.1413,-1.1162,-1.0711,-1.0293,-1.0041,-0.9948,-0.966,-0.9576,-0.9683,-0.974,-0.9741,-0.9723,-0.975,-0.947,-0.9087,-0.9087,-0.8873,-0.8551,-0.8503,-0.8546,-0.857,-0.857,-0.857,-0.857,-0.857,-0.8546,-0.8509,-0.8678,-0.8562,-0.8333,-0.7994,-0.7519,-0.6891,-0.6105,-0.5902,-0.5612,-0.5003,-0.5056,-0.4983,-0.4627,-0.4772,-0.491,-0.491,-0.5046,-0.4993,-0.4658,-0.4564,-0.4284,-0.3818,-0.4328,-0.4398,-0.381,-0.4314,-0.4425,-0.4022,-0.4648,-0.4872,-0.4559,-0.469,-0.4601,-0.4289,-0.4289,-0.4289,-0.8505,-0.8506,-0.8645,-0.9267,-0.9222,-0.912,-0.9478,-0.9421,-0.9352,-0.9579,-0.9579,-0.9579,-0.9579,-0.9579,-0.9579,-0.9579,-0.9579,-0.9644,-0.9689,-0.9803,-0.99,-0.9949,-1.0126,-1.0212,-1.0212,-1.0034,-1.0459,-1.1603,-1.0832,-1.0849,-1.1994,-1.1409,-1.1128,-1.1295,-1.1489,-1.1695,-1.1911,-1.175,-1.1525,-1.1225,-1.1166,-1.0664,-0.9866,-1.0477,-1.0767,-1.081,-1.1071,-1.1068,-1.093,-1.0871,-1.0668,-1.0317,-0.9648,-0.9369,-0.9217,-0.881,-0.8702,-0.8737,-0.893,-0.8966,-0.8913,-0.9051,-0.9003,-0.8889,-0.8889,-0.8889,-0.8857,-0.8682,-0.8723,-0.8775,-0.8544,-0.8607,-0.8722,-0.8536,-0.8588,-0.8666,-0.8792,-0.8625,-0.8342,-0.7788,-0.711,-0.64,-0.5858,-0.5302,-0.4761,-0.4192,-0.4292,-0.4222,-0.3722,-0.3842,-0.3901,-0.3901,-0.4089,-0.4118,-0.389,-0.3869,-0.3704,-0.3348,-0.3718,-0.3742,-0.3294,-0.3723,-0.3844,-0.3576,-0.3357,-0.3401,-0.3626,-0.3846,-0.3799,-0.3576,-0.3576,-0.3576,-0.7939,-0.817,-0.8394,-0.8771,-0.8848,-0.893,-0.9335,-0.9234,-0.921,-0.9555,-0.9579,-0.9579,-0.9579,-0.9579,-0.9579,-0.9579,-0.9579,-0.9685,-0.9847,-0.988,-0.9949,-1.018,-1.0208,-1.0212,-1.0212,-1.0204,-1.02,-1.0304,-0.9545,-0.9148,-0.9196,-0.87,-0.8675,-0.9318,-1.0161,-1.089,-1.16,-1.1136,-1.0615,-1.0181,-0.9554,-0.9327,-0.9448,-0.9488,-0.9578,-0.9727,-1.0735,-1.0796,-1.0135,-1.0031,-0.9543,-0.8894,-0.8742,-0.8633,-0.8624,-0.8633,-0.8694,-0.8791,-0.8791,-0.8946,-0.9084,-0.9096,-0.9092,-0.9084,-0.9084,-0.9084,-0.9043,-0.8861,-0.8812,-0.8639,-0.7864,-0.8117,-0.8444,-0.7827,-0.8219,-0.8808,-0.882,-0.8863,-0.8766,-0.8124,-0.707,-0.6104,-0.5467,-0.4433,-0.3687,-0.3644,-0.3646,-0.3646,-0.3605,-0.3667,-0.371,-0.371,-0.371,-0.3451,-0.2733,-0.2691,-0.2396,-0.1757,-0.2499,-0.2584,-0.1662,-0.2491,-0.2509,-0.1569,-0.1524,-0.2017,-0.2956,-0.2956,-0.2464,-0.1569,-0.1569,-0.1569,-0.7914,-0.7983,-0.8106,-0.854,-0.8658,-0.8718,-0.8958,-0.9141,-0.9395,-0.9667,-0.9641,-0.9579,-0.9579,-0.9579,-0.9579,-0.9579,-0.9579,-0.9689,-0.986,-0.9985,-1.0132,-1.0314,-1.0436,-1.0501,-1.0501,-1.0404,-1.0335,-1.0335,-0.9422,-0.9001,-0.9372,-0.8631,-0.848,-0.9117,-0.9293,-0.9534,-0.98,-0.9846,-0.9819,-0.9638,-0.9477,-0.947,-0.9531,-0.9531,-0.9563,-0.962,-1.0021,-1.0009,-0.9755,-0.9613,-0.9329,-0.8978,-0.88,-0.8731,-0.8731,-0.8731,-0.8844,-0.8999,-0.8999,-0.9043,-0.9096,-0.9096,-0.9096,-0.9096,-0.9096,-0.9096,-0.906,-0.8873,-0.8535,-0.8112,-0.7641,-0.7326,-0.7023,-0.6601,-0.6957,-0.7401,-0.7401,-0.7601,-0.7449,-0.6408,-0.5583,-0.4934,-0.4377,-0.3924,-0.3498,-0.3018,-0.2975,-0.2797,-0.2394,-0.2314,-0.2374,-0.2374,-0.2348,-0.2239,-0.1962,-0.1906,-0.1792,-0.154,-0.1809,-0.1825,-0.1526,-0.1768,-0.1749,-0.1391,-0.1391,-0.1569,-0.1928,-0.1928,-0.1749,-0.1391,-0.1391,-0.1391,-0.7848,-0.7877,-0.7966,-0.8249,-0.8472,-0.8619,-0.8767,-0.9051,-0.9395,-0.9663,-0.9592,-0.948,-0.948,-0.9377,-0.9377,-0.9579,-0.9577,-0.9674,-1.0106,-1.0188,-1.0371,-1.0605,-1.0677,-1.0747,-1.0857,-1.0641,-1.0521,-1.0521,-0.9493,0.0,-0.9402,-0.8668,-0.855,-0.9173,-0.9064,-0.9027,-0.9092,-0.9328,-0.9445,-0.9445,-0.9567,-0.9579,-0.9579,-0.9579,-0.9579,-0.9575,-0.9563,-0.9535,-0.9522,-0.9344,-0.9165,-0.8995,-0.8869,-0.882,-0.8828,-0.8889,-0.8991,-0.9104,-0.9165,-0.9192,-0.921,-0.9238,-0.9282,-0.9241,-0.8969,-0.8846,-0.876,-0.8303,-0.7861,-0.7374,-0.7041,-0.6516,-0.6135,-0.613,-0.6429,-0.6649,-0.635,-0.6634,-0.6714,-0.5802,-0.489,-0.4119,-0.3733,-0.3281,-0.2844,-0.233,-0.2235,-0.205,-0.1633,-0.1586,-0.159,-0.16,-0.1575,-0.1556,-0.1556,-0.151,-0.1489,-0.151,-0.1418,-0.1264,-0.1007,-0.0949,-0.0762,-0.0448,-0.0448,-0.0448,-0.0448,-0.1076,-0.1391,-0.1391,-0.1391,-0.1211,0.0,0.0,0.0,-0.7832,-0.818,-0.8623,-0.8759,-0.8946,-0.919,-0.9539,-0.9369,-0.9179,-0.9187,-0.8977,-0.8973,-0.9476,-0.9523,-0.9745,-1.0495,-1.0477,-1.0605,-1.1051,-1.0911,-1.0802,-1.1076,-1.0857,-1.0692,-1.0692,-0.9717,-0.9126,-0.9137,-0.862,-0.8659,-0.9396,-0.9408,-0.9445,-0.9616,-0.9575,-0.9579,-0.9579,-0.9579,-0.9579,-0.9579,-0.9579,-0.9575,-0.9608,-0.9482,-0.9396,-0.9324,-0.9161,-0.8982,-0.882,-0.8816,-0.882,-0.8848,-0.9031,-0.91,-0.9129,-0.9303,-0.9389,-0.9392,-0.951,-0.9555,-0.9485,-0.8629,-0.8382,-0.8149,-0.7265,-0.6788,-0.6449,-0.5922,-0.5728,-0.5874,-0.64,-0.6743,-0.6683,-0.5762,-0.6132,-0.6625,-0.6368,-0.5016,-0.3867,-0.3565,-0.2478,-0.156,-0.153,-0.1478,-0.1478,-0.1478,-0.1478,-0.1537,-0.1567,-0.1543,-0.1478,-0.1479,-0.1451,-0.1436,-0.1392,-0.1364,-0.0899,0.0,0.0045,0.0448,0.1388,0.1387,0.1387,0.1387,-0.0448,-0.13,-0.13,-0.13,-0.0807,-0.7714,0.0,0.0,0.0,0.0,0.0,-0.8215,-0.8312,-0.859,-0.9382,-0.9004,-0.8691,-0.911,-0.8832,-0.863,-0.8973,-0.9465,-1.0051,-1.0807,-1.1006,-1.1143,-1.1437,-1.1404,-1.1295,-1.1131,-1.1021,-1.0911,0.0,-0.9812,-0.9353,-0.9609,-0.9203,-0.9102,-0.9408,-0.9482,-0.951,-0.9477,-0.9559,-0.9579,-0.9579,-0.9579,-0.9579,-0.9579,-0.9579,-0.9555,-0.9477,-0.9424,-0.8969,-0.8271,-0.8688,-0.8869,-0.8808,-0.886,-0.8927,-0.9027,-0.9262,-0.9409,-0.9446,-0.8897,-0.8698,-0.8638,-0.8069,-0.7855,-0.7829,-0.7621,-0.7534,-0.7456,-0.7119,-0.6614,-0.5941,-0.5049,-0.465,-0.4549,-0.4696,-0.4947,-0.4955,-0.4275,-0.4331,-0.4412,-0.4155,-0.3077,-0.2178,-0.2082,-0.1784,-0.1536,-0.148,-0.1478,-0.1478,-0.1478,-0.1478,-0.1529,-0.1538,-0.1511,-0.1227,-0.0485,-0.0377,-0.0047,0.0688,0.0811,0.0942,0.1195,0.0977,0.1099,0.1556,0.1129,0.0986,0.1165,0.0806,0.0627,0.0627,0.0627,0.0761,-0.8203,-0.7829,-0.7603,-0.7522,0.0,0.0,-0.8093,-0.8182,-0.8478,-0.929,-0.886,-0.845,-0.8773,-0.8385,-0.794,-0.7884,-0.8664,-0.9587,-1.0703,-1.1177,-1.1499,-1.1719,-1.1678,-1.1568,-1.1459,-1.1236,-1.0988,-1.0808,-0.9968,-0.9517,-0.9532,-0.9345,-0.9288,-0.947,-0.9498,-0.9498,-0.947,-0.9425,-0.9482,-0.9575,-0.9478,-0.9445,-0.951,-0.9437,-0.9348,-0.929,-0.9165,-0.8641,-0.7818,-0.8151,-0.8255,-0.83,-0.8811,-0.9066,-0.9137,-0.9047,-0.9112,-0.908,-0.8227,-0.7929,-0.7921,-0.7387,-0.7198,-0.7159,-0.6822,-0.6689,-0.6623,-0.6202,-0.5787,-0.5338,-0.4587,-0.4386,-0.4284,-0.4185,-0.4185,-0.4135,-0.3679,-0.3356,-0.3036,-0.288,-0.2264,-0.1661,-0.1564,-0.1564,-0.156,-0.1547,-0.1545,-0.14,-0.0916,-0.0862,-0.0669,-0.0193,-0.0142,0.0094,0.0676,0.0758,0.0947,0.1408,0.1476,0.16,0.189,0.1709,0.1869,0.2417,0.2074,0.207,0.236,0.1529,0.1119,0.1119,0.1522,0.179,-0.8889,-0.8255,-0.7723,-0.7561,-0.7645,0.0,-0.8154,-0.8261,-0.8446,-0.9067,-0.8542,-0.8018,-0.7996,-0.7446,-0.687,-0.6379,-0.7233,-0.8493,-1.0039,-1.0877,-1.1391,-1.1642,-1.1442,-1.1396,-1.1614,-1.1122,-1.0724,-1.0551,-0.9824,-0.9267,-0.8901,-0.8985,-0.9133,-0.9426,-0.9401,-0.9482,-0.9596,-0.9267,-0.9259,-0.9563,-0.9246,-0.9177,-0.9367,-0.9118,-0.8956,-0.8948,-0.8647,-0.8162,-0.7517,-0.7375,-0.7351,-0.7484,-0.8526,-0.8931,-0.8913,-0.8511,-0.8375,-0.8256,-0.7384,-0.7094,-0.7146,-0.6991,-0.6952,-0.6875,-0.6108,-0.5892,-0.5739,-0.4985,-0.4784,-0.4734,-0.4487,-0.4585,-0.4636,-0.4388,-0.4135,-0.3831,-0.3528,-0.2886,-0.2374,-0.2313,-0.2114,-0.1858,-0.1607,-0.1506,-0.1397,-0.1423,-0.1321,-0.088,0.0049,0.024,0.0623,0.1609,0.1683,0.1715,0.1814,0.1814,0.1707,0.154,0.1539,0.1803,0.2408,0.2446,0.2851,0.3714,0.3706,0.3779,0.4077,0.2048,0.1083,0.1174,0.203,0.257,-0.8742,-0.8131,0.0,-0.7522,-0.7551,0.0,-0.7853,-0.7467,-0.7194,-0.7675,-0.6665,-0.5735,-0.5941,-0.5272,-0.4637,-0.4544,-0.5356,-0.652,-0.7919,-0.8855,-0.9413,-0.9403,-0.9439,-0.935,-0.9185,-0.9078,-0.8797,-0.8221,-0.7451,-0.6992,-0.6933,-0.7577,-0.8028,-0.8322,-0.9005,-0.942,-0.9457,-0.9202,-0.9133,-0.9198,-0.9133,-0.9116,-0.9145,-0.8492,-0.8196,-0.8106,-0.7229,-0.6418,-0.5717,-0.6059,-0.6455,-0.6824,-0.721,-0.7366,-0.7436,-0.7488,-0.7556,-0.743,-0.6545,-0.6259,-0.6222,-0.5501,-0.527,-0.5259,-0.5079,-0.5035,-0.4985,-0.4834,-0.4784,-0.4784,-0.4736,-0.4435,-0.4133,-0.4085,-0.3732,-0.3229,-0.2724,-0.2515,-0.2261,-0.1817,-0.1676,-0.1592,-0.1544,-0.0819,-0.024,-0.0239,0.0526,0.1149,0.134,0.1383,0.1477,0.1674,0.1526,0.1724,0.2581,0.2487,0.2645,0.3418,0.3669,0.3813,0.3948,0.3936,0.4098,0.4484,0.4224,0.4056,0.3934,0.3678,0.3623,0.3859,0.4047,0.4141,0.0,0.0,0.0,-0.7484,-0.7339,0.0,0.0,-0.7394,-0.7167,-0.762,-0.6784,-0.5858,-0.5482,-0.4749,-0.3952,-0.3033,-0.3781,-0.4583,-0.472,-0.6858,-0.841,-0.8417,-0.8706,-0.8848,-0.8686,-0.8517,-0.8119,-0.7334,-0.683,-0.6494,-0.6426,-0.6775,-0.7325,-0.7971,-0.8373,-0.8914,-0.949,-0.8701,-0.8371,-0.8531,-0.7844,-0.7533,-0.7584,-0.7151,-0.6926,-0.6824,-0.6376,-0.5698,-0.5038,-0.5273,-0.5414,-0.5556,-0.6427,-0.6854,-0.6986,-0.6759,-0.6685,-0.656,-0.5698,-0.5402,-0.5365,-0.492,-0.4784,-0.4784,-0.4784,-0.4784,-0.4734,-0.4483,-0.4384,-0.4334,-0.4083,-0.3781,-0.3581,-0.3581,-0.3179,-0.2573,-0.1765,-0.1412,-0.0958,-0.0151,0.0,-0.0147,-0.0638,0.0147,0.0833,0.0833,0.1323,0.1862,0.24,0.235,0.2449,0.2988,0.2939,0.3049,0.3578,0.3629,0.3776,0.4127,0.4276,0.4309,0.4172,0.4132,0.4159,0.4305,0.4155,0.4059,0.411,0.4246,0.4272,0.4241,0.4241,0.4288,0.0,0.0,0.0,0.0,0.0,-0.7068,0.0,0.0,0.0,-0.7612,-0.7146,-0.6318,-0.5218,-0.4518,-0.3579,-0.1954,0.0,0.0,0.0,-0.4905,0.0,-0.7096,-0.769,-0.8094,-0.8013,-0.7684,-0.7217,-0.6576,-0.6247,-0.6029,-0.5777,-0.5974,-0.6476,-0.7375,-0.7638,-0.816,-0.8928,-0.8002,-0.7556,-0.7586,-0.6446,-0.5976,-0.607,-0.5787,-0.5654,-0.564,-0.5497,-0.5122,-0.457,-0.457,-0.4421,-0.4377,-0.5676,-0.6311,-0.6539,-0.6009,-0.5848,-0.5762,-0.5057,-0.4784,-0.4784,-0.4784,-0.4784,-0.4784,-0.4684,-0.4634,-0.4533,-0.3982,-0.3833,-0.3732,-0.3331,-0.313,-0.3029,-0.3029,-0.2624,-0.1968,-0.0857,-0.0302,0.0302,0.1412,0.1765,0.1562,0.0504,0.121,0.1915,0.1915,0.2066,0.2519,0.3374,0.3323,0.3525,0.4386,0.4438,0.4388,0.4388,0.4535,0.4505,0.4243,0.4288,0.4212,0.4005,0.405,0.4096,0.4096,0.4058,0.4186,0.4385,0.4455,0.4322,0.4096,0.4096,0.4142,0.0,0.0,0.0,0.0,-0.7316,0.0,-0.724,0.0,-0.6873,-0.6572,0.0,-0.5095,-0.3874,0.0,0.0,0.0,-0.1623,-0.1799,-0.1741,-0.3011,-0.3883,-0.3844,-0.4685,-0.5131,-0.4748,-0.4576,-0.4498,-0.4503,-0.3975,-0.3581,-0.358,-0.4483,-0.5033,-0.5183,-0.6856,-0.7427,-0.6614,-0.7187,-0.7029,-0.6155,-0.5986,-0.5926,-0.5879,-0.5223,-0.4984,-0.5057,-0.4148,-0.3752,-0.3712,-0.3712,-0.3865,-0.4062,-0.4428,-0.4784,-0.5053,-0.4964,-0.4968,-0.492,-0.483,-0.4784,-0.4784,-0.4784,-0.4784,-0.4734,-0.4234,-0.4083,-0.3982,-0.343,-0.3281,-0.3281,-0.323,-0.2826,-0.2472,-0.2472,-0.207,-0.1414,-0.0302,-0.005,0.0302,0.1412,0.2368,0.267,0.1613,0.2318,0.3022,0.3022,0.3827,0.4481,0.4582,0.4582,0.4634,0.4734,0.4537,0.4388,0.4388,0.4236,0.4079,0.4021,0.4273,0.437,0.4362,0.4558,0.4706,0.4706,0.4714,0.4718,0.472,0.473,0.4724,0.4706,0.4706,0.4704,0.0,0.0,0.0,0.0,0.0,0.0,-0.7739,0.0,-0.6693,0.0,0.0,0.0,0.0,0.0,0.0,0.0,-0.1562,-0.1758,0.0,0.0,-0.3079,-0.3396,0.0,0.0,-0.4385,-0.4264,0.0,0.0,-0.364,-0.3327,-0.3129,-0.361,-0.4133,-0.4784,-0.5641,-0.616,-0.6303,-0.6059,-0.5696,-0.5256,-0.462,-0.4302,-0.4257,-0.4015,-0.3883,-0.3875,-0.3474,-0.3409,-0.3586,-0.3586,-0.3836,-0.4232,-0.4349,-0.4554,-0.4784,-0.4784,-0.4784,-0.4784,-0.4784,-0.4784,-0.4784,-0.4784,-0.4784,-0.4684,-0.4183,-0.3982,-0.3831,-0.2976,-0.2725,-0.2675,-0.2373,-0.2121,-0.1767,-0.116,-0.0857,-0.0202,0.1511,0.1863,0.2165,0.3274,0.3827,0.3979,0.3525,0.3827,0.413,0.413,0.4533,0.4784,0.4784,0.4686,0.4587,0.4587,0.4487,0.4388,0.4388,0.4435,0.4483,0.4483,0.4585,0.4636,0.4636,0.4734,0.4784,0.4784,0.4784,0.4784,0.4784,0.4784,0.4736,0.4587,0.4587,0.4587,-1.2073,0.0,0.0,0.0,0.0,0.0,0.0,0.0,0.0,0.0,0.0,0.0,0.0,0.0,0.0,0.0,0.0,-0.2017,0.0,-0.2391,-0.2848,-0.3059,0.0,0.0,0.0,-0.4156,-0.3988,0.0,0.0,-0.3287,-0.309,-0.3148,-0.3581,-0.4334,-0.4634,-0.5033,-0.5527,-0.5033,-0.4684,-0.4485,-0.3682,-0.3307,-0.3362,-0.3409,-0.3406,-0.3364,-0.3412,-0.3533,-0.3736,-0.3786,-0.4036,-0.4388,-0.4487,-0.4636,-0.4784,-0.4784,-0.4784,-0.4784,-0.4784,-0.4784,-0.4784,-0.4634,-0.4583,-0.4433,-0.3781,-0.358,-0.3379,-0.2422,-0.217,-0.207,-0.1718,-0.1364,-0.0959,-0.0202,0.0202,0.0957,0.282,0.3224,0.3476,0.4483,0.4734,0.4784,0.4684,0.4734,0.4784,0.4784,0.4784,0.4784,0.4784,0.4636,0.4487,0.4487,0.4487,0.4487,0.4388,0.4587,0.4686,0.4686,0.4636,0.4636,0.4686,0.4636,0.4583,0.4583,0.4583,0.4583,0.4583,0.4583,0.4485,0.4288,0.4388,0.4338,0.0,0.0,0.0,-0.9311,0.0,0.0,0.0,0.0,-0.7151,0.0,0.0,0.0,0.0,0.0,0.0,0.0,0.0,0.0,0.0,-0.2807,-0.2777,-0.2127,-0.2579,0.0,0.0,-0.3539,-0.3434,0.0,0.0,0.0,-0.309,-0.3148,-0.323,-0.323,-0.4284,-0.4334,-0.333,-0.4284,-0.4386,-0.3635,-0.3586,-0.3734,-0.3979,-0.3982,-0.3982,-0.3979,-0.3982,-0.3982,-0.3982,-0.4286,-0.4388,-0.4438,-0.4686,-0.4784,-0.4784,-0.4784,-0.4784,-0.4784,-0.4784,-0.4784,-0.4734,-0.4183,-0.4033,-0.3831,-0.2774,-0.2472,-0.2321,-0.1768,-0.1617,-0.1617,-0.1617,-0.0807,-0.005,0.0,0.0806,0.1865,0.2972,0.3224,0.3426,0.4236,0.4636,0.4736,0.4438,0.4636,0.4784,0.4784,0.4784,0.4784,0.4784,0.4784,0.4784,0.4784,0.4784,0.4686,0.4438,0.4388,0.4388,0.4388,0.4185,0.4135,0.4388,0.4185,0.4033,0.4033,0.4033,0.4033,0.4033,0.4033,0.4033,0.4033,0.4286,0.4236,0.0,0.0,-1.1358,-1.0544,0.0,0.0,0.0,0.0,0.0,0.0,0.0,0.0,0.0,0.0,0.0,0.0,0.0,0.0,0.0,-0.262,-0.2611,-0.2403,-0.294,-0.3345,0.0,0.0,0.0,0.0,-0.3196,0.0,0.0,-0.3115,-0.3121,-0.3121,-0.3509,-0.3632,-0.3484,-0.3835,-0.3935,-0.3883,-0.3883,-0.3934,-0.3982,-0.3982,-0.3982,-0.3982,-0.3982,-0.4085,-0.4286,-0.4388,-0.4487,-0.4686,-0.4784,-0.4784,-0.4784,-0.4784,-0.4784,-0.4784,-0.4784,-0.4583,-0.4234,-0.4083,-0.3783,-0.333,-0.2623,-0.2422,-0.227,-0.1768,-0.1212,-0.0757,-0.0605,0.0101,0.1008,0.1913,0.2266,0.267,0.378,0.3831,0.383,0.4085,0.4234,0.4234,0.4135,0.4234,0.4383,0.4734,0.4784,0.4736,0.4537,0.4537,0.4487,0.4284,0.4284,0.4234,0.4135,0.4135,0.4135,0.4135,0.4033,0.4033,0.4135,0.4033,0.3982,0.3982,0.3982,0.3982,0.3982,0.3982,0.3934,0.3736,0.3836,0.3836,-1.3768,-1.2944,0.0,-1.1531,-1.0945,0.0,-0.9701,0.0,-0.827,0.0,0.0,0.0,0.0,0.0,0.0,0.0,0.0,0.0,0.0,-0.2511,-0.2525,-0.2564,-0.2968,-0.3205,-0.3142,0.0,0.0,0.0,0.0,0.0,0.0,0.0,-0.3382,-0.3382,-0.3447,-0.3581,-0.3734,-0.3734,-0.3885,-0.4135,-0.4135,-0.4185,-0.4282,-0.4282,-0.4282,-0.4282,-0.4282,-0.4384,-0.4537,-0.4537,-0.4636,-0.4784,-0.4784,-0.4834,-0.4937,-0.4834,-0.4784,-0.4784,-0.4583,-0.4282,-0.3932,-0.358,-0.3278,-0.2876,-0.1968,-0.1765,-0.1667,-0.0916,-0.0355,0.0051,0.0254,0.0963,0.1865,0.2722,0.3088,0.3459,0.4124,0.4198,0.4061,0.3959,0.401,0.4061,0.3959,0.401,0.4198,0.4493,0.4535,0.4435,0.4286,0.4236,0.4185,0.4033,0.3982,0.3984,0.3883,0.3783,0.3732,0.3835,0.4133,0.4133,0.3883,0.4133,0.4083,0.3732,0.3732,0.3732,0.3732,0.3732,0.3633,0.3433,0.3433,0.3433]},{"header":{"parameterUnit":"m.s-1","parameterCategory":1,"la1":30.6,"la2":29.2853,"lo1":-89.7004,"lo2":-87.6739,"dy":0.0162,"dx":0.0183,"nx":112,"ny":82,"refTime":"2024-04-19T12:00:00:Z","depth":0,"parameterNumber":3,"parameterNumberName":"V-component_of_WINDS"},"data":[0.0,0.0,0.0,0.0,0.0,0.0,0.0,0.0,0.0,0.0,0.0,0.0,0.0,0.0,0.0,0.0,0.0,0.0,0.0,0.0,0.0,0.0,0.0,0.0,0.0,0.0,0.0,0.0,0.0,0.0,0.0,0.0,0.0,0.0,0.0,0.0,0.0,0.0,0.0,0.0,0.0,0.0,0.0,0.0,0.0,0.0,0.0,0.0,0.0,0.0,0.0,0.0,0.0,0.0,0.0,0.0,0.0,0.0,0.0,0.0,0.0,0.0,0.0,0.0,0.0,0.0,0.0,0.0,0.0,0.0,0.0,0.0,0.0,0.0,0.0,0.0,0.0,0.0,0.0,0.0,0.0,0.0,0.0,0.0,0.0,0.0,0.0,0.0,0.0,0.0,-0.2185,-0.286,-0.5447,-0.7546,-0.8605,-0.8737,-0.8666,-0.8501,0.0,0.0,0.0,0.0,0.0,0.0,0.0,0.0,0.0,0.0,0.0,0.0,0.0,0.0,0.0,0.0,0.0,0.0,0.0,0.0,0.0,0.0,0.0,0.0,0.0,0.0,0.0,0.0,0.0,0.0,0.0,0.0,0.0,0.0,0.0,0.0,0.0,0.0,0.0,0.0,0.0,0.0,0.0,0.0,0.0,0.0,0.0,0.0,0.0,0.0,0.0,0.0,0.0,0.0,0.0,0.0,0.0,0.0,0.0,0.0,0.0,0.0,0.0,0.0,0.0,0.0,0.0,0.0,0.0,0.0,0.0,0.0,0.0,0.0,0.0,0.0,0.0,0.0,0.0,0.0,0.0,0.0,0.0,0.0,0.0,0.0,0.0,0.0,0.0,0.0,0.0,0.0,0.0,0.0,0.0,0.0,0.0,0.0,0.0,0.0,0.0,0.0,0.0,0.0,-0.2952,-0.5515,-0.6618,-0.7685,-0.9017,-0.9319,-0.9185,-0.8548,0.0,0.0,0.0,0.0,0.0,0.0,0.0,0.0,0.0,0.0,0.0,0.0,0.0,0.0,0.0,0.0,0.0,0.0,0.0,0.0,0.0,0.0,0.0,0.0,0.0,0.0,0.0,0.0,0.0,0.0,0.0,0.0,0.0,0.0,0.0,0.0,0.0,0.0,0.0,0.0,0.0,0.0,0.0,0.0,0.0,0.0,0.0,0.0,0.0,0.0,0.0,0.0,0.0,0.0,0.0,0.0,0.0,0.0,0.0,0.0,0.0,0.0,0.0,0.0,0.0,0.0,0.0,0.0,0.0,0.0,0.0,0.0,0.0,0.0,0.0,0.0,0.0,0.0,0.0,0.0,0.0,0.0,0.0,0.0,0.0,0.0,0.0,0.0,0.0,0.0,0.0,0.0,0.0,0.0,0.0,0.0,0.0,0.0,0.0,0.0,0.0,0.0,0.0,-0.2403,-0.3648,-0.6507,-0.7063,-0.7745,-0.9104,-0.9448,-0.9302,-0.8548,-0.9101,0.0,0.0,0.0,0.0,0.0,0.0,0.0,0.0,0.0,0.0,0.0,0.0,0.0,0.0,0.0,0.0,0.0,0.0,0.0,0.0,0.0,0.0,0.0,0.0,0.0,0.0,0.0,0.0,0.0,0.0,0.0,0.0,0.0,0.0,0.0,0.0,0.0,0.0,0.0,0.0,0.0,0.0,0.0,0.0,0.0,0.0,0.0,0.0,0.0,0.0,0.0,0.0,0.0,0.0,0.0,0.0,0.0,0.0,0.0,0.0,0.0,0.0,0.0,0.0,0.0,0.0,0.0,0.0,0.0,0.0,0.0,0.0,0.0,0.0,0.0,0.0,0.0,0.0,0.0,0.0,0.0,0.0,0.0,0.0,0.0,0.0,0.0,0.0,0.0,0.0,0.0,0.0,0.0,0.0,0.0,0.0,0.0,0.0,0.0,0.0,0.0,0.0,-0.3008,-0.3959,-0.6525,-0.6943,-0.7557,-0.8943,-0.9286,-0.9235,-0.8695,-0.8899,0.0,0.0,0.0,0.0,0.0,0.0,0.0,0.0,0.0,0.0,0.0,0.0,0.0,0.0,0.0,0.0,0.0,0.0,0.0,0.0,0.0,0.0,0.0,0.0,0.0,0.0,0.0,0.0,0.0,0.0,0.0,0.0,0.0,0.0,0.0,0.0,0.0,0.0,0.0,0.0,0.0,0.0,0.0,0.0,0.0,0.0,0.0,0.0,0.0,0.0,0.0,0.0,0.0,0.0,0.0,0.0,0.0,0.0,0.0,0.0,0.0,0.0,0.0,0.0,0.0,0.0,0.0,0.0,0.0,0.0,0.0,0.0,0.0,0.0,0.0,0.0,0.0,0.0,0.0,0.0,0.0,0.0,0.0,0.0,0.0,0.0,0.0,0.0,0.0,0.0,0.0,0.0,0.0,0.0,0.0,0.0,0.0,0.0,0.0,0.0,0.0,0.0,-0.2757,-0.3675,-0.5422,-0.6139,-0.7049,-0.8528,-0.887,-0.9074,-0.9137,-0.9385,0.0,0.0,0.0,0.0,0.0,0.0,0.0,0.0,0.0,0.0,0.0,0.0,0.0,0.0,0.0,0.0,0.0,0.0,0.0,0.0,0.0,0.0,0.0,0.0,0.0,0.0,0.0,0.0,0.0,0.0,0.0,0.0,0.0,0.0,0.0,0.0,0.0,0.0,0.0,0.0,0.0,0.0,0.0,0.0,0.0,0.0,0.0,0.0,0.0,0.0,0.0,0.0,0.0,0.0,0.0,0.0,0.0,0.0,0.0,0.0,0.0,0.0,0.0,0.0,0.0,0.0,0.0,0.0,0.0,0.0,0.0,0.0,0.0,0.0,0.0,0.0,0.0,0.0,0.0,0.0,0.0,0.0,0.0,0.0,0.0,0.0,0.0,0.0,0.0,0.0,0.0,0.0,0.0,0.0,0.0,0.0,0.0,0.0,0.0,0.0,0.0,0.0,-0.2826,-0.3649,-0.5598,-0.6004,-0.6576,-0.7647,-0.8372,-0.8649,-0.8356,0.0,0.0,0.0,0.0,0.0,0.0,0.0,0.0,0.0,0.0,0.0,0.0,0.0,0.0,0.0,0.0,0.0,0.0,0.0,0.0,0.0,0.0,0.0,0.0,0.0,0.0,0.0,0.0,0.0,0.0,0.0,0.0,0.0,0.0,0.0,0.0,0.0,0.0,0.0,0.0,0.0,0.0,0.0,0.0,0.0,0.0,0.0,0.0,0.0,0.0,0.0,0.0,0.0,0.0,0.0,0.0,0.0,0.0,0.0,0.0,0.0,0.0,0.0,0.0,0.0,0.0,0.0,0.0,0.0,0.0,0.0,0.0,0.0,0.0,0.0,0.0,0.0,0.0,0.0,0.0,0.0,0.0,0.0,0.0,0.0,0.0,0.0,0.0,0.0,0.0,0.0,0.0,0.0,0.0,0.0,0.0,0.0,0.0,0.0,0.0,0.0,0.0,-0.256,-0.2648,-0.3236,-0.4816,-0.5129,-0.5642,-0.6608,-0.7292,-0.7706,-0.7837,0.0,0.0,0.0,0.0,0.0,0.0,0.0,0.0,0.0,0.0,0.0,0.0,0.0,0.0,0.0,0.0,0.0,0.0,0.0,0.0,0.0,0.0,0.0,0.0,0.0,0.0,0.0,0.0,0.0,0.0,0.0,0.0,0.0,0.0,0.0,0.0,0.0,0.0,0.0,0.0,0.0,0.0,0.0,0.0,0.0,0.0,0.0,0.0,0.0,0.0,0.0,0.0,0.0,0.0,0.0,0.0,0.0,0.0,0.0,0.0,0.0,0.0,0.0,0.0,0.0,0.0,0.0,0.0,0.0,0.0,0.0,0.0,0.0,0.0,0.0,0.0,0.0,0.0,0.0,0.0,0.0,0.0,0.0,0.0,0.0,0.0,0.0,0.0,0.0,0.0,0.0,0.0,0.0,0.0,0.0,0.0,0.0,0.0,0.0,0.0,0.0,0.0,-0.1987,-0.2156,-0.2417,-0.2764,-0.3277,-0.4116,-0.5481,-0.5603,-0.6223,0.0,0.0,0.0,0.0,0.0,0.0,0.0,0.0,0.0,0.0,0.0,0.0,0.0,0.0,0.0,0.0,0.0,0.0,0.0,0.0,0.0,0.0,0.0,0.0,0.0,0.0,0.0,0.0,0.0,0.0,0.0,0.0,0.0,0.0,0.0,0.0,0.0,0.0,0.0,0.0,0.0,0.0,0.0,0.0,0.0,0.0,0.0,0.0,0.0,0.0,0.0,0.0,0.0,0.0,0.0,0.0,0.0,0.0,0.0,0.0,0.0,0.0,0.0,0.0,0.0,0.0,0.0,0.0,0.0,0.0,0.0,0.0,0.0,0.0,0.0,0.0,0.0,0.0,0.0,0.0,0.0,0.0,0.0,0.0,0.0,0.0,0.0,0.0,0.0,0.0,0.0,0.0,0.0,0.0,0.0,0.0,0.0,0.0,0.0,0.0,0.0,0.0,0.0,-0.2242,-0.2276,-0.2517,-0.3016,-0.3229,-0.3428,-0.3725,-0.4563,-0.541,-0.6341,0.0,0.0,0.0,0.0,0.0,0.0,0.0,0.0,0.0,0.0,0.0,0.0,0.0,0.0,0.0,0.0,0.0,0.0,0.0,0.0,0.0,0.0,0.0,0.0,0.0,0.0,0.0,0.0,0.0,0.0,0.0,0.0,0.0,0.0,0.0,0.0,0.0,0.0,0.0,0.0,0.0,0.0,0.0,0.0,0.0,0.0,0.0,0.0,0.0,0.0,0.0,0.0,0.0,0.0,0.0,0.0,0.0,0.0,0.0,0.0,0.0,0.0,0.0,0.0,0.0,0.0,0.0,0.0,0.0,0.0,0.0,0.0,0.0,0.0,0.0,0.0,0.0,0.0,0.0,0.0,0.0,0.0,0.0,0.0,0.0,0.0,0.0,0.0,0.0,0.0,0.0,0.0,0.0,0.0,0.0,0.0,0.0,0.0,0.0,0.0,0.0,0.0,-0.2262,-0.2177,-0.2227,-0.2815,-0.2876,-0.2882,-0.282,-0.3713,-0.4522,-0.5194,0.0,0.0,0.0,0.0,0.0,0.0,0.0,0.0,0.0,0.0,0.0,0.0,0.0,0.0,0.0,0.0,0.0,0.0,0.0,0.0,0.0,0.0,0.0,0.0,0.0,0.0,0.0,0.0,0.0,0.0,0.0,0.0,0.0,0.0,0.0,0.0,0.0,0.0,0.0,0.0,0.0,0.0,0.0,0.0,0.0,0.0,0.0,0.0,0.0,0.0,0.0,0.0,0.0,0.0,0.0,0.0,0.0,0.0,0.0,0.0,0.0,0.0,0.0,0.0,0.0,0.0,0.0,0.0,0.0,0.0,0.0,0.0,0.0,0.0,0.0,0.0,0.0,0.0,0.0,0.0,0.0,0.0,0.0,0.0,0.0,0.0,0.0,0.0,0.0,0.0,0.0,0.0,0.0,0.0,0.0,0.0,0.0,0.0,0.0,0.0,0.0,0.0,-0.2132,-0.1904,-0.1839,-0.2311,-0.2367,-0.2429,-0.2532,-0.2998,-0.358,-0.4294,0.0,0.0,0.0,0.0,0.0,0.0,0.0,0.0,0.0,0.0,0.0,0.0,0.0,0.0,0.0,0.0,0.0,0.0,0.0,0.0,0.0,0.0,0.0,0.0,0.0,0.0,0.0,0.0,0.0,0.0,0.0,0.0,0.0,0.0,0.0,0.0,0.0,0.0,0.0,0.0,0.0,0.0,0.0,0.0,0.0,0.0,0.0,0.0,0.0,0.0,0.0,0.0,0.0,0.0,0.0,0.0,0.0,0.0,0.0,0.0,1.1567,0.0,0.0,0.0,0.0,0.0,0.0,0.0,0.0,0.0,0.0,0.0,0.0,0.0,0.0,0.0,0.0,0.0,0.0,0.0,0.0,0.0,0.0,0.0,0.0,0.0,0.0,0.0,0.0,0.0,0.0,0.0,0.0,0.0,0.0,0.0,0.0,0.0,0.0,0.0,0.0,0.0,-0.1672,-0.1859,-0.1936,-0.206,-0.2289,-0.2297,-0.2054,-0.2303,-0.285,-0.3789,-0.438,0.0,0.0,0.0,0.0,0.0,0.0,0.0,0.0,0.0,0.0,0.0,0.0,0.0,0.0,0.0,0.0,0.0,0.0,0.0,0.0,0.0,0.0,0.0,0.0,0.0,0.0,0.0,0.0,0.0,0.0,0.0,0.0,0.0,0.0,0.0,0.0,0.0,0.0,0.0,0.0,0.0,0.0,0.0,0.0,0.0,0.0,0.0,0.0,0.0,0.0,0.0,0.0,0.0,0.0,0.0,0.0,0.0,0.0,0.0,0.0,1.0759,0.0,0.0,0.0,0.0,0.0,0.0,0.0,0.0,0.0,0.0,0.0,0.0,0.0,0.0,0.0,0.0,0.0,0.0,0.0,0.0,0.0,0.0,0.0,0.0,0.0,0.0,0.0,0.0,0.0,0.0,0.0,0.0,0.0,0.0,0.0,0.0,0.0,0.0,0.0,0.0,-0.1399,-0.1429,-0.1474,-0.1615,-0.1947,-0.1968,-0.1554,-0.2047,-0.2543,-0.2954,-0.3571,0.0,0.0,0.0,0.0,0.0,0.0,0.0,0.0,0.0,0.0,0.0,0.0,0.0,0.0,0.0,0.0,0.0,0.0,0.0,0.0,0.0,0.0,0.0,0.0,0.0,0.0,0.0,0.0,0.0,0.0,0.0,0.0,0.0,0.0,0.0,0.0,0.0,0.0,0.0,0.0,0.0,0.0,0.0,0.0,0.0,0.0,0.0,0.0,0.0,0.0,0.0,0.0,0.0,1.4988,1.4485,1.3552,1.2059,1.139,1.1315,1.0791,1.0654,1.0777,1.006,0.0,0.0,0.0,0.0,0.0,0.0,0.0,0.0,0.0,0.0,0.0,0.0,0.0,0.0,0.0,0.0,0.0,0.0,0.0,0.0,0.0,0.0,0.0,0.0,0.8552,0.7325,0.0,0.0,0.0,0.0,0.0,0.0,0.0,0.0,0.0,0.0,0.0,0.0,-0.0647,-0.0614,-0.0653,-0.0856,-0.1426,-0.1602,-0.1205,-0.1889,-0.2283,-0.2201,-0.2729,-0.292,0.0,0.0,0.0,0.0,0.0,0.0,0.0,0.0,0.0,0.0,0.0,0.0,0.0,0.0,0.0,0.0,0.0,0.0,0.0,0.0,0.0,0.0,0.0,0.0,0.0,0.0,0.0,0.0,0.0,0.0,0.0,0.0,1.8284,1.8659,0.0,0.0,0.0,0.0,0.0,0.0,0.0,0.0,0.0,0.0,0.0,0.0,0.0,1.4492,1.4492,1.568,1.6268,1.6268,1.643,1.6451,1.6234,1.461,1.3579,1.3132,1.308,0.0,1.0428,1.0292,0.0,0.0,0.0,0.0,0.0,0.0,0.0,0.0,0.0,0.0,0.0,0.0,0.0,0.0,0.0,0.0,0.0,0.0,0.0,0.0,0.0,0.0,1.2452,1.1522,1.0904,1.0085,0.0,0.6154,0.4619,0.4994,0.4157,0.0,0.0,0.0,0.0,0.0,0.0,0.0,0.1657,0.0964,0.0419,0.038,-0.061,-0.1345,-0.1435,-0.1365,-0.1574,-0.2155,-0.2271,-0.2376,-0.2526,-0.2835,0.0,0.0,0.0,0.0,0.0,0.0,0.0,0.0,0.0,0.0,0.0,0.0,0.0,0.0,0.0,0.0,0.0,0.0,0.0,0.0,0.0,0.0,0.0,0.0,0.0,0.0,0.0,0.0,0.0,1.7098,1.7737,1.8442,1.8266,1.7838,0.0,0.0,0.0,0.0,0.0,0.0,0.0,0.0,0.0,1.656,1.68,1.6829,1.669,1.7601,1.8068,1.8068,1.8156,1.7856,1.7219,1.6369,1.5469,1.4602,1.4477,1.3577,1.2053,1.1039,1.0379,0.9972,0.0,0.0,0.0,0.0,0.8895,0.8828,0.9036,0.9637,0.0,1.0421,0.0,0.0,0.0,0.0,0.0,0.0,0.0,0.0,0.0,0.0,1.2371,1.259,1.1937,1.1025,1.0385,0.8209,0.6218,0.0,0.5168,0.443,0.3542,0.0,0.0,0.0,0.0,0.2328,0.2559,0.2271,0.2002,0.1884,0.114,0.068,0.0725,0.0629,0.0402,0.009,-0.0179,-0.0353,-0.0301,-0.1058,-0.1255,0.0,0.0,0.0,0.0,0.0,0.0,0.0,0.0,0.0,0.0,0.0,0.0,0.0,0.0,0.0,0.0,0.0,0.0,0.0,0.0,0.0,0.0,0.0,0.0,0.0,0.0,0.0,0.0,1.6863,1.7514,1.8374,1.8428,1.8254,0.0,0.0,0.0,0.0,0.0,0.0,1.8534,1.8456,1.8438,1.847,1.8841,1.894,1.8748,1.9287,1.948,1.948,1.948,1.9049,1.8251,1.8067,1.7383,1.6328,1.6145,1.546,1.427,1.2304,1.1047,1.038,1.0543,1.0204,0.9704,1.026,1.0513,1.0607,1.096,1.1563,1.2226,1.2272,1.2514,1.2802,1.2761,0.0,0.0,0.0,0.0,1.0484,1.1445,1.181,1.2178,1.3246,1.2679,1.1836,1.1725,1.0133,0.8334,0.0,0.6282,0.5509,0.4367,0.0,0.0,0.0,0.0,0.3686,0.3731,0.37,0.3621,0.3446,0.2816,0.2457,0.2591,0.2233,0.1965,0.1878,0.1563,0.1429,0.1565,0.0715,0.0397,0.0811,0.0,0.0,0.0,0.0,0.0,0.0,0.0,0.0,0.0,0.0,0.0,0.0,0.0,0.0,0.0,0.0,0.0,0.0,0.0,0.0,0.0,0.0,0.0,0.0,0.0,0.0,0.0,0.0,0.0,1.9163,1.9566,0.0,0.0,0.0,0.0,1.8488,1.8303,1.8565,1.9392,1.9195,1.9445,2.0346,2.0128,2.0033,2.0033,2.0063,2.0078,2.0078,2.0078,2.0027,1.9975,1.996,1.9465,1.8643,1.8396,1.7833,1.6835,1.4169,1.2448,1.1361,1.0811,1.056,1.0586,1.0836,1.1131,1.1421,1.2102,1.251,1.2775,1.2969,1.2933,1.2779,1.2724,1.2258,0.0,0.0,1.228,1.2432,1.2911,1.3182,1.3415,1.3473,1.3424,1.3074,1.1948,1.1386,1.0558,0.0,0.7296,0.6334,0.6277,0.0,0.517,0.5488,0.4995,0.4941,0.5823,0.5348,0.4907,0.4907,0.3842,0.3084,0.2904,0.2635,0.2368,0.2099,0.2054,0.2054,0.2054,0.201,0.1785,0.1379,0.1841,0.0,0.0,0.0,0.0,0.0,0.0,0.0,0.0,0.0,0.0,0.0,0.0,0.0,0.0,0.0,0.0,0.0,0.0,0.0,0.0,0.0,0.0,0.0,0.0,0.0,0.0,0.0,0.0,2.0111,2.0516,0.0,1.9613,1.9692,1.9668,1.9415,1.9867,2.0331,2.0628,2.0744,2.0857,2.1011,2.0731,2.0629,2.0609,2.0609,2.0609,2.0609,2.0609,2.0609,2.0609,2.0609,2.0447,2.0166,2.0051,1.9456,1.8407,1.7339,1.5601,1.3496,1.2178,1.1816,1.2009,1.2125,1.2219,1.2316,1.2554,1.2907,1.3298,1.3721,1.3838,1.3743,1.3519,1.3327,1.3142,1.3136,1.3134,1.3224,1.3507,1.3571,1.3593,1.3915,1.3766,1.3414,1.3176,1.2299,1.1364,1.0691,0.8917,0.7263,0.6526,0.6381,0.6278,0.6009,0.6114,0.6242,0.6288,0.6195,0.6074,0.5938,0.5536,0.5181,0.4961,0.487,0.4648,0.4247,0.4202,0.4158,0.3978,0.3846,0.3714,0.3534,0.3527,0.332,0.0,0.0,0.0,0.0,0.0,0.0,0.0,0.0,0.0,0.0,0.0,0.0,0.0,0.0,0.0,0.0,0.0,0.0,0.0,0.0,0.0,0.0,0.0,0.0,0.0,2.0459,2.1315,2.1374,2.1563,2.1423,2.0851,2.0506,2.0366,2.0366,2.105,2.142,2.1361,2.1564,2.1564,2.142,2.1353,2.1259,2.1291,2.1181,2.1173,2.1173,2.1173,2.1173,2.1173,2.1173,2.1095,2.0927,2.1119,2.0707,1.9891,1.9342,1.8153,1.6473,1.4077,1.3287,1.3485,1.3556,1.3522,1.357,1.3763,1.3769,1.3823,1.4202,1.4298,1.425,1.407,1.4022,1.4022,1.3829,1.3775,1.3806,1.3963,1.3891,1.3814,1.4198,1.3993,1.3789,1.3927,1.3028,1.2152,1.2057,1.0218,0.8346,0.7161,0.7239,0.7144,0.6348,0.6594,0.6714,0.6456,0.6632,0.669,0.6514,0.6511,0.6479,0.6349,0.6092,0.5906,0.5766,0.5607,0.5512,0.5494,0.521,0.5044,0.5044,0.471,0.4409,0.4094,0.0,0.0,0.0,0.0,0.0,0.0,0.0,0.0,0.0,0.0,0.0,0.0,0.0,0.0,0.0,0.0,0.0,0.0,0.0,0.0,0.0,0.0,0.0,2.0216,2.1235,2.2361,2.2924,2.276,2.2574,2.255,2.181,2.1369,2.1326,2.1573,2.1666,2.154,2.1515,2.1574,2.1692,2.1886,2.2004,2.1996,2.1827,2.1725,2.1725,2.1725,2.1725,2.1725,2.1725,2.1487,2.1057,2.152,2.162,2.1346,2.0163,2.0046,2.0156,1.639,1.4894,1.49,1.5038,1.5086,1.5134,1.563,1.5175,1.4388,1.4346,1.4346,1.434,1.4346,1.4298,1.4298,1.4346,1.4346,1.4285,1.4219,1.4238,1.4211,1.419,1.4211,1.4167,1.4145,1.3639,1.3115,1.2814,1.1262,0.9628,0.8379,0.8197,0.7833,0.6752,0.6479,0.0,0.6511,0.6653,0.6715,0.6715,0.6794,0.6786,0.6795,0.6151,0.5941,0.6369,0.598,0.5911,0.6375,0.5974,0.5719,0.5764,0.5311,0.4981,0.4826,0.0,0.0,0.0,0.0,0.0,0.0,0.0,0.0,0.0,0.0,0.0,0.0,0.0,0.0,0.0,0.0,0.0,0.0,0.0,0.0,0.0,2.4597,2.4892,2.4237,2.495,2.5534,2.5498,2.5732,2.5199,2.3525,2.2994,2.2409,2.1674,2.1556,2.165,2.1853,2.2156,2.1953,2.1233,2.2011,2.2134,2.1584,2.207,2.2342,2.2342,2.2342,2.2342,2.2342,2.2342,2.2282,2.2144,2.2299,2.2164,2.1887,2.182,2.1752,2.1335,1.801,1.6848,1.7015,1.6753,1.6687,1.6617,1.6218,1.6267,1.6358,1.5609,1.5371,1.5283,1.4729,1.4592,1.464,1.4838,1.4885,1.4867,1.4839,1.4669,1.4499,1.4476,1.4351,1.4224,1.4353,1.4093,1.3903,1.3981,1.342,1.2329,1.0449,1.0136,0.9752,0.8636,0.8412,0.0,0.758,0.7365,0.7288,0.7288,0.7073,0.6905,0.682,0.6534,0.6359,0.6413,0.6274,0.6268,0.6381,0.6274,0.6539,0.7227,0.6961,0.7126,0.0,0.0,0.0,0.0,0.0,0.0,0.0,0.0,0.0,0.0,0.0,0.0,0.0,0.0,0.0,0.0,0.0,0.0,0.0,0.0,0.0,0.0,2.608,2.7099,2.7189,2.7473,2.7712,2.7742,2.7483,2.6778,2.5412,2.4788,2.415,2.3574,2.3187,2.2787,2.2297,2.2463,2.1707,1.9782,2.1599,2.2157,2.1236,2.2158,2.2594,2.2594,2.2594,2.2594,2.2594,2.2594,2.2422,2.209,2.2306,2.2105,2.1685,2.2055,2.2131,0.0,0.0,0.0,0.0,0.0,1.7948,1.7895,1.7462,1.7302,1.7196,1.6727,1.6586,1.6445,1.571,1.531,1.5054,1.4673,1.4466,1.4371,1.4468,1.4392,1.4295,1.4508,1.4403,1.432,1.4532,1.4334,1.4238,1.4801,1.4532,0.0,1.285,1.1977,1.1017,0.9838,0.9608,0.9403,0.8839,0.8691,0.8491,0.8072,0.7974,0.7761,0.7309,0.6914,0.0,0.0,0.0,0.6562,0.6989,0.7368,0.0,0.0,0.0,0.8248,0.8891,0.0,0.0,0.0,0.6513,0.6578,0.0,0.0,0.0,0.0,0.0,0.0,0.0,0.0,0.0,0.0,0.0,0.0,0.0,0.0,0.0,0.0,2.7527,2.8769,2.9203,2.9116,2.915,2.9486,2.8495,2.7714,2.762,2.6747,2.6174,2.603,2.5516,2.4582,2.326,0.0,0.0,0.0,0.0,2.2189,2.1162,2.2191,2.2695,2.2695,2.2695,2.2695,2.2644,2.2695,2.2275,2.1624,2.2036,2.1852,2.1254,2.1703,2.1828,2.1636,2.0475,1.9974,1.987,1.9116,1.8907,1.901,1.8929,0.0,0.0,1.784,1.7886,1.7747,1.6955,1.6391,1.5761,1.45,1.3933,1.3739,1.388,1.3861,1.3985,1.4466,1.4507,1.4523,1.4706,1.4469,1.4449,1.5238,1.497,1.4718,1.5072,1.3661,1.2101,1.085,1.0503,1.0351,1.0209,1.0264,0.9953,0.9137,0.0,0.0,0.8285,0.7589,0.7376,0.783,0.7229,0.7235,0.8061,0.8918,0.9195,0.8913,0.887,0.905,0.9452,0.9411,0.9647,1.0082,0.8921,0.8581,0.0,0.0,0.0,0.0,0.0,0.0,0.0,0.0,0.0,0.0,0.0,0.0,0.0,0.0,0.0,2.8574,2.9363,2.9977,3.0267,3.0303,3.0158,2.9863,2.9588,2.9095,2.8215,2.7772,2.7195,2.6376,2.5796,2.5846,2.6653,2.4907,2.3598,2.2963,2.3246,2.2958,2.1969,2.28,2.3247,2.3247,0.0,0.0,2.2946,2.3147,2.3067,2.2737,2.3026,2.29,2.257,2.2926,2.267,2.2044,2.112,2.0557,2.0129,1.9394,1.9628,2.0243,1.9573,1.9752,2.0158,1.9384,1.9155,1.9018,1.8257,1.798,0.0,1.659,1.6235,1.6012,1.5273,1.4918,1.481,1.5092,1.4963,1.4848,1.4972,1.4948,1.4981,1.5318,1.5328,1.5243,1.5325,1.4899,1.4145,1.2978,1.258,1.2195,1.145,1.1069,1.0788,1.0575,1.0325,1.0138,1.0067,0.9832,0.981,0.9981,0.9885,0.9881,1.0052,1.0223,1.0656,1.1304,1.1173,1.1643,1.2752,1.2626,1.2765,1.3167,1.0566,0.9473,0.0,0.0,0.0,0.0,0.0,0.0,0.0,0.0,0.0,0.0,0.0,2.8187,2.8126,0.0,2.9342,2.9987,3.0212,3.0453,3.0876,3.0937,3.0713,3.0136,3.0057,2.9852,2.9314,2.9119,2.8819,2.8344,2.8057,2.7923,2.7999,2.6702,2.5551,2.4736,2.4902,2.4355,2.2952,2.3761,2.3877,2.3397,2.3397,2.3347,2.3197,2.3347,2.3347,2.3197,2.3347,2.3197,2.2911,2.2728,2.2416,2.196,2.135,2.0983,2.0844,2.0536,2.0731,2.097,2.0571,2.0678,2.0952,2.0546,2.0464,2.032,1.9559,1.9114,1.8665,1.7536,1.71,1.6878,1.6528,1.6328,1.6372,1.6754,1.6702,1.6451,1.5922,1.5886,1.5845,1.5542,1.5509,1.5561,1.5733,1.5673,1.5333,1.4503,1.4378,1.4161,1.3607,1.3142,1.2753,1.2529,1.2135,1.1759,1.1321,1.0911,1.0668,1.0595,1.1047,1.1311,1.1311,1.174,1.2217,1.2705,1.2619,1.2875,1.3568,1.3568,1.3652,1.387,1.251,1.1901,0.0,0.0,0.0,0.0,0.0,0.0,0.0,2.8901,2.8819,2.9019,2.9703,3.0281,3.005,3.0501,3.1034,3.1474,3.1249,3.1149,3.1648,3.156,3.1217,3.0556,3.0408,3.0295,3.0215,3.0193,3.0216,3.0216,3.0216,2.9738,2.8702,2.8118,2.7245,2.6001,2.6353,2.5874,2.4386,2.5025,2.4933,2.4115,2.4115,2.4125,2.4075,2.3935,2.3836,2.3737,2.3596,2.3352,2.2988,2.2365,2.2031,2.1875,2.1496,2.1444,2.1526,2.1607,2.1607,2.1526,2.1482,2.1329,2.123,2.1383,2.1482,2.1338,2.0763,2.0236,1.9565,1.8253,1.7671,1.7499,1.7595,1.7631,1.7746,1.8337,1.8404,1.8101,1.7106,1.7054,1.6975,1.6293,1.6061,1.6034,1.6273,1.6245,1.6038,1.5609,1.5609,1.565,1.5477,1.5103,1.4678,1.4315,1.3993,1.3487,1.2711,1.2151,1.1766,1.1552,1.2254,1.265,1.265,1.33,1.3646,1.3646,1.3519,1.3568,1.373,1.3857,1.3984,1.4153,1.4398,1.4349,2.7041,2.6413,2.6595,2.7648,2.8757,2.9698,0.0,3.1528,3.2681,3.2681,3.3226,3.3753,3.4002,3.4106,3.4165,3.4157,3.3524,3.3106,3.3164,3.2457,3.1805,3.1559,3.113,3.0666,3.0246,3.0181,3.0216,3.0216,3.0216,3.0125,2.9977,2.8811,2.819,2.8318,2.7516,2.6995,2.6798,2.69,2.6904,2.6761,2.6761,2.6655,2.6406,2.5722,2.5294,2.505,2.4381,2.3843,2.3381,2.299,2.258,2.2217,2.2051,2.2,2.1963,2.1571,2.166,2.2008,2.1741,2.1785,2.1954,2.1741,2.1651,2.1651,2.1553,2.1489,2.112,1.9694,1.9237,1.9049,1.8238,1.8046,1.8162,1.8571,1.8652,1.8611,1.8421,1.8373,1.8373,1.8302,1.7631,1.7131,1.7172,1.6714,1.6278,1.6046,1.5824,1.5692,1.565,1.5477,1.5311,1.5262,1.5179,1.5137,1.5012,1.4963,1.488,1.488,1.497,1.5012,1.5012,1.4734,1.4566,1.4566,1.3984,1.4075,1.4922,1.4699,1.5033,1.5839,1.588,1.5242,2.8074,2.8799,2.9832,3.0021,3.0983,3.1903,3.2089,3.2729,3.3389,3.3597,3.4119,3.4692,3.5248,3.512,3.5047,3.5359,3.462,3.3925,3.3782,3.3335,3.2803,3.2257,3.1452,3.0619,2.9973,3.0266,3.0337,2.997,3.0269,3.0352,3.0216,2.9658,2.9429,2.9566,2.9176,2.8656,2.8096,2.8049,2.7767,2.7189,2.7189,2.7132,2.7037,2.6723,2.6532,2.6378,2.6099,2.5382,2.4421,2.3994,2.369,2.3428,2.3195,2.3634,2.4233,2.2775,2.223,2.2309,2.2441,2.2309,2.2097,2.2087,2.1841,2.1558,2.1689,2.1705,2.1475,2.0974,2.0829,2.075,2.0357,2.0249,2.0317,2.0479,2.049,2.0312,1.9572,1.941,1.9294,1.88,1.841,1.8245,1.8417,1.8261,1.784,1.7038,1.6547,1.6278,1.6278,1.5989,1.5824,1.5824,1.5824,1.5824,1.5824,1.5567,1.5394,1.5394,1.5394,1.5394,1.5394,1.5228,1.511,1.511,1.4817,1.4901,1.5276,1.5276,1.5492,1.5873,1.6046,1.5797,2.9614,3.0857,3.2001,3.2171,3.2824,3.343,3.3506,3.3649,3.391,3.4315,3.4859,3.5451,3.6081,3.5877,3.5797,3.6288,3.5485,3.4888,3.5032,3.4285,3.325,3.2031,3.1363,3.051,2.9312,3.003,3.0475,3.0211,3.0514,3.0634,3.0454,3.0408,3.0454,3.0487,3.0487,3.0204,2.9555,2.9555,2.9119,2.8308,2.8308,2.8308,2.8226,2.7934,2.7652,2.7358,2.7243,2.6547,2.5464,2.5025,2.475,2.4589,2.4357,2.4973,2.5817,2.4253,2.3454,2.3159,2.3178,2.2882,2.2495,2.2574,2.2201,2.174,2.1912,2.1796,2.1598,2.1678,2.173,2.1701,2.1706,2.172,2.1746,2.1796,2.1814,2.1552,2.0687,2.0494,2.0305,1.9736,1.9373,1.923,1.9473,1.9262,1.8747,1.7882,1.7461,1.7133,1.6838,1.6862,1.6782,1.6484,1.6557,1.6477,1.617,1.5838,1.566,1.566,1.566,1.5665,1.5714,1.583,1.5793,1.5609,1.5918,1.6034,1.5918,1.6329,1.6576,1.6698,1.687,1.6919,3.1803,3.1631,3.128,3.302,3.3562,3.3753,3.4028,3.4568,3.5152,3.5553,3.6012,3.6538,3.7161,3.7092,3.7014,3.7211,3.652,3.6341,3.7517,3.5381,3.2832,3.0455,3.0731,3.0248,2.8084,2.9282,3.0499,3.1118,3.1041,3.0984,3.0984,3.0984,3.1062,3.1261,3.1261,3.1395,3.1617,3.1617,3.1484,3.116,3.116,3.1083,3.0838,2.9806,2.8797,2.7845,2.7352,2.6875,2.6443,2.5867,2.5573,2.5388,2.5367,2.5481,2.5753,2.5942,2.5577,2.4882,2.382,2.346,2.3416,2.3144,2.2808,2.2467,2.2467,2.2165,2.1736,2.1559,2.152,2.1501,2.1511,2.1494,2.1571,2.1752,2.1818,2.1807,2.1749,2.1749,2.1749,2.17,2.083,2.007,2.008,1.9161,1.8424,1.8378,1.8525,1.8249,1.7212,1.811,1.8442,1.7455,1.7653,1.742,1.6382,1.6275,1.6267,1.6267,1.6267,1.6346,1.646,1.6839,1.6725,1.6079,1.7245,1.7632,1.7261,1.8083,1.8771,1.9177,1.9216,1.9058,3.1262,3.246,3.39,3.416,3.444,3.4688,3.4842,3.4918,3.506,3.5582,3.5481,3.5465,3.604,3.5945,3.6021,3.6656,3.6919,3.7054,3.7183,3.5491,3.3757,3.2458,3.1306,3.0586,3.0385,3.0417,3.0315,2.9881,3.0692,3.1139,3.1029,3.0984,3.1017,3.1107,3.1229,3.135,3.1439,3.1617,3.1661,3.1572,3.1572,3.154,3.1439,3.0528,2.9954,2.9597,2.9049,2.8102,2.6941,2.6973,2.6772,2.6569,2.6709,2.735,2.8084,2.7614,2.7412,2.7128,2.54,2.4606,2.4264,2.3734,2.3008,2.2514,2.3515,2.3388,2.2951,2.2988,2.3023,2.2815,2.1801,2.1501,2.1417,2.1406,2.1343,2.1271,2.1271,2.1271,2.1271,2.1271,2.0953,2.0695,2.0695,2.038,2.016,2.0247,1.938,1.8606,1.8378,1.8735,1.8845,1.8497,1.8561,1.8479,1.8128,1.8091,1.8091,1.8091,1.8091,1.8119,1.8172,1.8457,1.8504,1.8291,1.8904,1.9167,1.9018,1.9335,1.9532,1.9698,1.9846,1.9846,3.2938,3.4484,3.6034,3.5894,3.6023,3.6104,3.5915,3.6091,3.6291,3.6333,3.6357,3.6244,3.5892,3.5877,3.6019,3.6335,3.6968,3.7403,3.7367,3.6067,3.4901,3.4237,3.2587,3.1456,3.1411,3.1254,3.0804,2.9893,3.0666,3.1121,3.0956,3.0956,3.1095,3.133,3.1584,3.1705,3.1793,3.2057,3.2145,3.2057,3.1893,3.1741,3.1622,3.111,3.062,3.0151,2.9816,2.8923,2.7775,2.7963,2.7931,2.7832,2.8089,2.8682,2.9341,2.8779,2.8661,2.853,2.6648,2.5808,2.5546,2.5115,2.4409,2.3921,2.4889,2.479,2.4347,2.4385,2.4405,2.4187,2.317,2.2803,2.2725,2.2557,2.2455,2.236,2.2335,2.2335,2.2185,2.1748,2.1574,2.1366,2.0936,2.081,2.0829,2.0989,2.0135,1.954,1.9733,1.9776,1.9639,1.9254,1.9324,1.9219,1.875,1.8715,1.8689,1.8663,1.8689,1.8757,1.8831,1.9421,1.964,1.942,2.0331,2.0644,2.0323,2.0644,2.0798,2.0798,2.0952,2.0981,3.6551,3.7427,3.7551,3.8042,3.8128,3.7899,3.7131,3.7951,3.8596,3.7612,3.8332,3.8508,3.6437,3.6555,3.6823,3.6257,3.6751,3.7433,3.8109,3.7127,3.6124,3.5582,3.4338,3.2918,3.1275,3.1845,3.1908,3.1039,0.0,3.0958,3.0958,3.0958,3.1274,3.1969,3.2257,3.2475,3.2667,3.2939,3.2939,3.2711,3.222,3.184,3.1552,3.1448,3.0763,2.9586,2.9573,2.9245,2.8758,2.8782,2.8924,2.9094,2.9341,2.9457,2.9457,2.9457,2.9457,2.9211,2.7545,2.7058,2.7139,2.711,2.6835,2.65,2.6563,2.6232,2.5814,2.5614,2.5571,2.5526,2.5253,2.518,2.5144,2.492,2.4885,2.4814,2.4685,2.4649,2.4307,2.3078,2.2638,2.2105,2.0959,2.0666,2.0638,2.0799,2.0958,2.1041,2.1108,2.1144,2.0796,1.9792,1.9966,1.9661,1.8469,1.8335,1.8277,1.8162,1.8277,1.8422,1.862,1.9808,2.0149,1.957,2.1411,2.2021,2.1211,2.2042,2.244,2.244,2.244,2.244,3.6482,3.7853,3.9234,3.9272,3.8657,3.7991,3.7966,3.826,3.8123,3.6611,3.6589,3.6243,3.4327,3.4238,3.472,3.5551,3.6483,3.7302,3.7842,3.7152,3.6391,3.5843,3.4889,3.4153,3.3911,3.3832,3.3264,3.195,3.165,3.1512,3.1512,3.1512,3.1573,3.1749,3.1981,3.2125,3.2157,3.2431,3.2605,3.2711,3.2172,3.1943,3.198,3.1046,3.026,2.9656,2.9258,2.8761,2.8263,2.8863,2.905,2.9024,2.9668,2.9908,2.9908,2.9908,3.0024,3.005,2.9457,2.8727,2.7947,2.7302,2.6741,2.6456,2.7462,2.7146,2.6493,2.654,2.655,2.6306,2.5316,2.4981,2.4849,2.4585,2.442,2.4241,2.4073,2.404,2.3924,2.3603,2.3494,2.333,2.3046,2.2837,2.2727,2.277,2.2658,2.2204,2.131,2.1047,2.0935,2.0796,2.0732,2.0624,2.0452,2.0452,2.0355,2.0161,2.0193,2.0248,2.0303,2.0829,2.1243,2.1409,2.2154,2.2542,2.2531,2.2729,2.2852,2.2852,2.3001,2.3075,3.7924,3.8875,3.9849,3.9668,3.9125,3.8493,3.7916,3.8286,3.8142,3.592,3.6014,3.5799,3.3616,3.3839,3.4622,3.5385,3.6481,3.7436,3.797,3.7542,3.7091,3.6782,3.6094,3.5706,3.5773,3.5588,3.4955,3.3727,3.2566,3.1766,3.1356,3.1356,3.1476,3.1705,3.1893,3.2038,3.2169,3.2213,3.2221,3.2191,3.1955,3.1589,3.1069,3.0547,2.9731,2.8736,0.0,2.8308,2.783,2.8506,2.8734,2.8736,2.9516,2.9783,2.9732,2.9986,3.019,3.0228,3.0011,2.9639,2.9186,2.8715,2.8341,2.8122,2.8499,2.8125,2.7509,2.7458,2.731,2.7049,2.6514,2.6314,2.6184,2.5945,2.5803,2.5671,2.546,2.5427,2.5253,2.4752,2.41,2.3628,2.3628,2.3466,2.335,2.3411,2.3288,2.2955,2.2286,2.1614,2.1093,2.0761,2.0615,2.0554,2.0584,2.0584,2.0523,2.0349,2.0699,2.0919,2.0919,2.1558,2.202,2.2228,2.2455,2.2639,2.2681,2.2609,2.262,2.262,2.2728,2.2764,3.9664,3.9969,3.9901,3.9642,3.9537,3.9151,3.7759,3.8335,3.8363,3.5649,3.603,3.6101,3.3803,3.447,3.5429,3.5609,3.6641,3.7584,3.8063,3.7991,3.7866,3.7777,3.7492,3.7255,3.7147,3.7003,3.6574,3.576,3.3878,3.2391,3.1467,3.1394,3.1515,3.1857,3.2057,3.2164,3.2289,3.2265,3.2111,3.1749,3.1805,3.1145,2.9973,3.0317,2.9508,2.7854,2.8339,0.0,2.7787,2.8178,2.8297,2.8397,2.9166,2.937,2.9286,2.9872,3.0114,3.0088,2.9935,3.0152,3.0482,3.0406,3.0393,3.0239,2.9552,2.8924,2.8402,2.8135,2.7709,2.74,2.7774,2.7853,2.7807,2.763,2.7617,2.7637,2.7452,2.7419,2.7137,2.6049,2.4753,2.3842,2.3842,2.3631,2.3501,2.3637,2.3603,2.3555,2.3524,2.2522,2.1496,2.064,2.0546,2.0446,2.0288,2.0288,2.0241,2.0105,2.0783,2.1223,2.1223,2.2173,2.2667,2.2577,2.2809,2.2832,2.2685,2.2674,2.2674,2.2674,2.2674,2.2674,3.9325,3.9705,4.0188,4.0037,3.9833,3.9584,3.9308,3.9056,3.8352,3.6529,3.5713,3.513,3.4428,3.447,3.5058,3.6133,3.6926,3.727,3.6866,3.7684,3.8077,3.754,3.7606,3.7893,3.8399,3.7657,3.7019,3.6668,3.6129,3.5358,3.426,3.39,3.342,3.2778,3.2834,3.2462,3.1657,3.2998,3.3313,3.2592,3.2189,3.1678,3.1182,3.1257,3.0679,2.9646,2.9752,0.0,2.9094,2.8615,2.8391,2.8456,2.909,2.9311,2.9353,2.9889,3.0097,3.0162,3.0629,3.0823,3.0823,3.052,3.0286,3.0121,2.998,2.8911,2.7696,2.7827,2.7104,2.6382,2.6583,2.6601,2.6583,2.6426,2.672,2.7012,2.6882,2.7012,2.7051,2.6609,2.6316,2.6138,2.6138,2.5745,2.5413,2.5443,2.5116,2.4576,2.3759,2.3267,2.2988,2.2905,2.2816,2.2786,2.2862,2.2862,2.2803,2.2668,2.2785,2.2865,2.2865,2.3083,2.3304,2.3554,2.4183,2.4583,2.4685,2.5296,2.5561,2.5561,2.5561,2.5561,3.9125,3.9512,4.0188,4.0113,3.9995,3.9505,3.7915,3.792,3.7492,3.4857,3.4778,3.4827,3.3706,3.4021,3.4773,3.5809,3.6507,3.706,3.7434,3.8003,3.8272,3.7958,3.8022,3.8228,3.8576,3.8144,3.7783,3.7681,3.7287,3.6476,3.513,3.4829,3.45,3.4142,3.3827,3.3513,3.3118,3.3542,3.3456,3.2791,3.2751,3.233,3.1607,3.1848,3.1557,3.0819,3.0819,0.0,2.8994,2.9718,2.9389,2.8579,3.0241,3.0504,3.0009,3.1248,3.1276,3.0815,3.1789,3.2137,3.2101,3.1905,3.1269,3.0479,3.0069,2.9082,2.8082,2.7981,2.7065,2.6157,2.643,2.6285,2.6029,2.606,2.6334,2.6564,2.6501,2.6595,2.664,2.6501,2.6434,2.638,2.638,2.6065,2.5795,2.5795,2.5548,2.5218,2.4792,2.4647,2.4142,2.3098,2.292,2.292,2.2976,2.2976,2.2948,2.2892,2.3192,2.3417,2.3417,2.3732,2.3916,2.3949,2.4205,2.4504,2.4855,2.5095,2.5438,2.5828,2.5828,2.5828,3.9359,3.9656,4.0096,4.0096,4.0096,3.9402,3.6721,3.6791,3.6595,3.3686,3.4028,3.4561,3.3645,3.3985,3.4741,3.5752,3.6024,3.6552,3.7988,3.8063,3.8078,3.8362,3.8392,3.8452,3.8601,3.8482,3.8452,3.8601,3.8087,3.7169,3.5773,3.544,3.5265,3.5277,3.4844,3.4492,3.4337,3.4166,3.3766,3.3124,3.3442,3.3051,3.2094,3.2583,3.2511,3.1928,3.1928,0.0,0.0,3.0881,3.0452,2.909,3.1385,3.1607,3.0842,3.2471,3.2396,3.1625,3.2793,3.3248,3.3318,3.3213,3.2426,3.1352,3.0728,2.9839,2.902,2.8803,2.7691,2.6624,2.6854,2.6568,2.6233,2.6294,2.6431,2.6622,2.6818,2.6846,2.6846,2.6919,2.6832,2.6761,2.6761,2.6344,2.5993,2.5993,2.5689,2.5481,2.5591,2.5619,2.4998,2.3325,2.3191,2.3232,2.3232,2.3232,2.3232,2.3232,2.3714,2.401,2.3969,2.4468,2.4637,2.4334,2.4353,2.4511,2.4879,2.4849,2.5292,2.6054,2.6054,2.6151,4.0431,4.0358,4.0096,4.0096,4.0096,3.969,3.8058,3.7097,3.6306,3.547,3.4253,3.3885,3.5866,3.528,3.5102,3.6999,3.585,3.5357,3.724,3.7015,3.709,3.8242,3.8392,3.8631,3.926,3.8751,3.8646,3.9239,3.8928,3.8316,3.7443,3.6624,3.5979,3.5568,3.5485,3.4841,3.3523,3.496,3.515,3.4167,3.4216,3.3902,3.3347,3.3864,3.3825,3.3325,3.3325,3.284,0.0,3.1659,3.1044,3.0417,3.1438,3.1674,3.1504,3.2353,3.2498,3.2398,3.3002,3.3394,3.3593,3.3304,3.3122,3.3003,3.2912,3.1696,3.0399,3.0655,2.9448,2.8011,2.7704,2.7572,2.7501,2.7391,2.7391,2.7605,2.8392,2.8579,2.865,2.8889,2.8915,2.8926,2.8926,2.7833,2.696,2.696,2.5981,2.523,2.523,2.5397,2.5453,2.5259,2.5439,2.5589,2.5589,2.5589,2.5589,2.5589,2.5645,2.5604,2.5494,2.555,2.5411,2.5118,2.5806,2.6135,2.6044,2.6697,2.7423,2.8227,2.8227,2.858,3.9745,4.0089,4.0507,4.0427,4.0254,3.9486,3.7187,3.6631,3.6207,3.4706,3.4438,3.4674,3.5276,3.5298,3.5454,3.6137,3.533,3.5385,3.7631,3.7432,3.7524,3.8856,3.9005,3.896,3.8811,3.8556,3.8391,3.8424,3.8279,3.7989,3.7577,3.7212,3.7032,3.7091,3.6353,3.5737,3.525,3.5524,3.5448,3.5019,3.5019,3.4919,3.4697,3.4901,3.4919,3.4697,3.4697,3.3615,0.0,3.3331,3.2791,3.1254,3.3258,3.3597,3.3147,3.4227,3.4212,3.3818,3.4821,3.5272,3.537,3.5222,3.519,3.4919,3.3364,3.2231,3.1411,3.1231,3.0232,2.9144,2.891,2.8629,2.8303,2.7869,2.7808,2.7935,2.8201,2.8259,2.8391,2.8814,2.8958,2.9013,2.9013,2.8669,2.8328,2.8188,2.775,2.7425,2.7425,2.722,2.7099,2.7165,2.6269,2.58,2.6161,2.6189,2.6189,2.6189,2.6189,2.6106,2.5825,2.5811,2.5811,2.5729,2.6063,2.6372,2.6693,2.6974,2.7524,2.832,2.832,2.8491,3.9589,4.0254,4.0995,4.0879,4.0261,3.9,3.6517,3.5868,3.5379,3.385,3.4213,3.4818,3.4882,3.5166,3.5463,3.5755,3.5336,3.5627,3.7555,3.7438,3.7538,3.8661,3.8826,3.8796,3.8691,3.8691,3.846,3.7946,3.7895,3.775,3.7395,3.7204,3.7243,3.7525,3.6669,3.6205,3.6193,3.5744,3.5504,3.5504,3.5504,3.5262,3.4857,3.5292,3.5248,3.4857,3.5292,3.4275,0.0,3.4624,3.4176,3.2383,3.4756,3.5168,3.4566,3.5763,3.5734,3.5213,3.6183,3.6554,3.6616,3.6523,3.6554,3.6245,3.4021,3.3081,3.2691,3.2182,3.1333,3.0528,3.043,3.0006,2.9459,2.8993,2.894,2.9026,2.9105,2.9109,2.9292,2.9814,2.9975,2.9975,2.9975,2.9773,2.9572,2.9431,2.8967,2.8662,2.8662,2.8184,2.7891,2.798,2.6808,2.6226,2.6692,2.6735,2.6735,2.6735,2.696,2.6886,2.6406,2.6589,2.6642,2.6481,2.6481,2.6697,2.7117,2.6982,2.7394,2.8304,2.8151,2.821,4.0552,4.1244,4.1481,4.1481,4.003,3.8207,3.664,3.4822,3.344,3.3406,3.3423,3.3858,3.5329,3.5052,3.5094,3.6536,3.6114,3.5859,3.6597,3.66,3.6748,3.7338,3.7434,3.7958,3.9239,3.9373,3.9032,3.8148,3.8089,0.0,3.7134,3.6531,3.6208,3.6208,3.6208,3.5997,3.5519,3.5504,3.5504,3.5504,3.5504,3.4737,3.3359,3.4827,3.4707,3.3389,3.4857,3.5115,0.0,3.522,3.484,3.4016,3.5583,3.5876,3.5476,3.6368,3.66,3.6476,3.6492,3.6724,3.6938,3.6616,3.6708,3.6719,3.5301,3.4634,3.4305,3.3882,3.3058,3.2266,3.2266,3.1719,3.1158,3.1182,3.1182,3.1306,3.184,3.1956,3.2139,3.2741,3.2703,3.2563,3.2563,3.1472,3.0591,3.0591,2.9178,2.8104,2.8104,2.7647,2.7297,2.7297,2.7297,2.7348,2.7479,2.7489,2.7489,2.7489,2.8312,2.8398,2.7519,2.8237,2.8277,2.74,2.7385,2.7385,2.7385,2.6935,2.7354,2.8587,2.8066,2.8232,3.8042,3.8452,3.8752,3.8656,3.7784,3.6573,3.5076,3.4042,3.3406,3.3406,3.3406,3.3842,3.5329,3.5492,3.5849,3.7192,3.6936,3.7263,3.9279,3.8974,3.8968,4.0082,4.0119,4.0035,3.994,3.9253,3.8572,3.8145,3.7307,3.6713,3.6505,3.6297,3.6261,3.641,3.5977,3.5648,3.5504,3.5504,3.5504,3.5504,3.5504,3.4929,3.3953,3.5021,3.4914,3.3938,3.4653,0.0,0.0,3.4287,3.394,3.3363,3.4288,3.5033,3.5626,3.5903,3.6131,3.628,3.628,3.6311,3.6297,3.6296,3.6371,3.6303,3.5493,3.5023,3.4558,3.3697,3.3229,3.2977,3.2977,3.2819,3.2519,3.2045,3.1959,3.1956,3.1992,3.2013,3.2181,3.2783,3.2843,3.2816,3.2816,3.2532,3.2323,3.2323,3.1506,3.0887,3.0887,2.9981,2.9339,2.9339,2.9005,2.8561,2.7954,2.7921,2.7958,2.8021,2.817,2.8099,2.778,2.8394,2.8779,2.8767,2.921,2.9439,2.9439,2.8845,2.8495,2.8375,2.8227,2.8273,3.6658,3.7304,3.7739,3.7667,3.6632,3.5404,3.4467,3.3396,3.273,3.3288,3.3846,3.4501,3.543,3.6141,3.6672,3.6998,3.7633,3.8417,3.9358,3.9592,3.9898,4.0436,4.0895,4.0967,4.0502,3.9773,3.9032,3.8345,3.7499,3.6921,3.6662,3.6647,3.6711,3.6822,3.5959,3.5504,3.5504,3.5504,3.5504,3.5504,3.5504,3.4914,3.3893,3.512,3.4895,3.3615,3.4497,0.0,0.0,3.3864,3.3604,3.3218,3.383,3.4463,3.5045,3.5309,3.5549,3.5707,3.5707,3.5636,3.5623,3.5909,3.5849,3.5621,3.5479,3.4915,3.4152,3.3492,3.3309,3.3309,3.3309,3.3309,3.3198,3.2782,3.2687,3.2635,3.2447,3.2421,3.2573,3.3145,3.3235,3.3261,3.3303,3.3393,3.3366,3.3203,3.2692,3.2336,3.2336,3.1484,3.0743,3.0472,3.0142,2.9618,2.8759,2.865,2.865,2.875,2.89,2.8838,2.8518,2.9137,2.9459,2.9428,2.985,3.0203,3.0503,3.0153,2.9492,2.8614,2.8803,2.8818,0.0,3.7285,3.7865,3.7865,3.6201,3.4569,3.4569,3.286,0.0,3.3262,3.468,3.5656,3.5752,3.7026,3.7621,3.6341,3.8258,3.9362,3.7728,3.9073,3.9951,3.9162,4.0217,4.0989,4.0878,4.0736,4.0069,3.8704,3.8442,3.8081,3.7401,3.737,3.737,3.737,3.6227,3.5619,3.5619,3.5587,3.5542,3.5484,3.5542,3.4788,3.3393,3.5227,3.4849,0.0,0.0,0.0,0.0,3.3923,3.3675,3.3416,3.4104,3.4242,3.4119,3.482,3.507,3.507,3.5023,3.5008,3.5077,3.5529,3.5257,3.4844,3.5286,3.4449,3.3346,3.3372,3.3398,3.3398,3.3398,3.3398,3.3398,3.3398,3.3398,3.3372,3.3229,3.3203,3.333,3.3783,3.3878,3.3928,3.4045,3.4103,3.3928,3.3513,3.3035,3.2746,3.2746,3.2241,3.1641,3.0978,3.0875,3.0655,3.0024,2.9679,2.9518,2.9518,3.0142,3.0206,2.955,3.0206,3.027,2.9592,2.9624,2.9996,3.0672,3.0819,3.0289,2.9159,2.9714,2.9723,3.4081,0.0,3.4534,3.4534,3.3878,3.3251,0.0,3.2459,3.245,3.5012,3.5654,3.6084,3.7161,3.8575,3.9106,3.7689,3.9001,4.0222,4.0256,4.1429,4.1931,4.0943,4.1663,4.1842,4.0783,4.0274,3.9628,3.8685,3.8086,3.7603,3.7191,3.7191,3.7191,3.7191,3.689,3.6814,3.6966,3.643,3.5891,3.5274,3.6104,3.5444,3.3531,3.5896,3.6103,0.0,0.0,0.0,3.428,3.4241,3.3578,3.2761,3.3869,3.4691,3.534,3.6479,3.6901,3.682,3.6367,3.6104,3.591,3.5597,3.5398,3.5237,3.484,3.4248,3.3764,3.4109,3.4317,3.4423,3.4325,3.4374,3.4448,3.4448,3.4448,3.4423,3.4276,3.4251,3.4309,3.4529,3.456,3.4616,3.4821,3.4938,3.4962,3.4844,3.4401,3.4063,3.4063,3.3455,3.2957,3.2772,3.2756,3.2689,3.2542,3.0751,2.9697,2.9808,2.9685,2.9633,2.9653,3.0167,3.0408,3.0334,3.0846,3.095,3.0621,3.0705,3.0335,2.957,3.0409,3.0758,3.3393,3.3393,3.3574,3.4317,3.3638,3.2991,3.3739,3.2964,3.2945,3.5953,3.6262,3.6735,3.9198,3.9798,3.9795,3.9435,4.0035,4.0794,4.1594,4.2271,4.2343,4.1414,4.1774,4.1636,4.0475,4.0425,4.0089,3.9262,3.8786,3.8474,3.8306,3.8278,3.8278,3.8278,3.8362,3.8121,3.7602,3.7219,3.654,3.5529,3.6813,3.6429,3.4687,3.6914,3.7317,0.0,0.0,0.0,3.5427,3.4888,3.4516,3.4329,3.4979,3.5514,3.5975,3.6354,3.6502,3.6388,3.5815,3.5678,3.5745,3.5423,3.5331,3.533,3.5225,3.4857,3.4439,3.448,3.4578,3.4658,3.4561,3.461,3.4658,3.4658,3.4658,3.4642,3.4609,3.4609,3.4728,3.5128,3.5266,3.5357,3.5526,3.5676,3.5693,3.5453,3.5177,3.5028,3.5055,3.4699,3.4351,3.4074,3.404,3.3904,3.3522,3.2261,3.1487,3.1508,3.1243,3.1156,3.1303,3.1505,3.1368,3.0842,3.1535,3.1474,3.0613,3.1003,3.1147,3.1083,3.1609,3.1951,3.3364,3.3454,3.3906,3.5424,3.4423,3.3514,3.5124,3.3981,3.3529,3.6757,3.703,3.7714,4.1055,4.1148,4.0764,4.0954,4.1071,4.1399,4.2279,4.2413,4.2174,4.1426,4.1393,4.1078,4.0239,4.0705,4.0755,4.0002,3.9807,3.9703,3.9677,3.9677,3.9677,3.9677,3.9772,3.9312,3.8173,3.8032,3.7346,3.6192,3.7666,3.7584,3.6198,3.8056,3.8438,3.7637,0.0,0.0,3.6814,3.5976,3.599,3.6525,3.6473,3.6473,3.6408,3.5923,3.5744,3.5654,3.5053,3.5048,3.5328,3.5351,3.5351,3.5397,3.5849,3.5677,3.5214,3.4818,3.4699,3.4723,3.4715,3.4723,3.4771,3.4771,3.4818,3.4849,3.4878,3.4885,3.5071,3.5737,3.595,3.6075,3.6203,3.6326,3.6262,3.5859,3.5815,3.582,3.589,3.5912,3.5698,3.5208,3.5139,3.4861,3.4182,3.413,3.4073,3.3953,3.3469,3.3191,3.3187,3.3136,3.2572,3.1435,3.2082,3.1935,3.0974,3.1679,3.2285,3.2785,3.2923,3.3213,3.3325,3.3733,3.4438,3.5537,3.5093,3.4833,3.6447,3.5353,3.5018,3.87,3.9151,3.9452,4.1209,4.3489,4.4132,4.1082,4.1679,4.2582,4.2851,4.2933,4.276,4.2123,4.1662,4.1154,4.0504,4.044,4.0349,4.0087,3.9935,3.9772,3.9537,3.9511,3.9511,3.9511,3.9554,3.9625,3.9756,3.9086,3.8305,3.7434,3.8567,3.8432,3.7228,3.8992,3.9475,3.8954,0.0,3.8711,3.7734,3.796,3.751,3.6715,3.7095,3.7219,3.7277,3.7621,3.7753,3.7674,3.7058,3.6416,3.591,3.5997,3.5975,3.5893,3.5975,3.5866,3.5689,3.5622,3.5689,3.5739,3.5622,3.5805,3.6028,3.6028,3.6212,3.6318,3.6237,3.6216,3.628,3.6502,3.6544,3.6626,3.6831,3.6871,3.6871,3.6811,3.6791,3.6774,3.6794,3.6794,3.6761,3.6676,3.6659,3.6624,3.6481,3.6464,3.6464,3.6444,3.4401,3.3166,3.3114,3.3093,3.3,3.2813,3.2897,3.2892,3.2705,3.2897,3.3021,3.314,3.4003,3.4415,3.3198,3.3725,3.4733,3.6555,3.6096,3.5838,3.8369,3.6946,3.6199,4.0075,3.9524,3.9437,4.2917,4.3817,4.3753,4.2857,4.3764,4.4466,4.4126,4.3728,4.323,4.2556,0.0,4.1168,4.0161,4.0453,4.0524,4.0121,4.0037,3.9961,3.9833,3.9807,3.9807,3.9807,3.9884,3.9986,4.0096,3.9808,3.9076,3.7997,3.9383,3.9316,3.7997,3.9703,4.0336,4.0095,0.0,3.9372,3.8836,3.8529,3.8084,3.7643,3.7763,3.7835,3.7824,3.7746,3.7494,3.7131,3.6866,3.6504,3.6174,3.6233,3.6212,3.617,3.6122,3.617,3.6237,3.6287,3.6049,3.58,3.5905,3.6019,3.617,3.628,3.6402,3.6502,3.6602,3.6602,3.6708,3.7069,3.7129,3.7225,3.7541,3.7595,3.7523,3.73,3.7449,3.7541,3.7393,3.7541,3.7685,3.7756,3.7756,3.765,3.7393,3.7374,3.7279,3.7027,3.5896,3.5238,3.5214,3.5214,3.4864,3.4129,3.4216,3.4154,3.3922,3.4057,3.449,3.5203,3.5665,3.6018,3.3101,3.3663,3.4774,3.692,3.6683,3.6772,4.004,3.8355,3.7176,4.0926,3.9824,3.9624,4.4221,4.3974,4.3501,4.4835,4.5726,4.6023,4.5439,4.4564,4.3719,4.2992,4.2189,4.1328,4.0311,4.0781,4.0919,4.0353,4.0279,4.0254,4.0254,4.0254,4.0254,4.0254,4.037,4.0252,3.9884,3.9983,3.9589,3.8713,3.9864,3.9798,3.87,3.9841,4.0359,4.0325,3.9663,3.9388,3.9388,3.8614,3.8351,3.8419,3.814,3.7906,3.7706,3.7339,3.6865,3.6388,3.6388,3.6451,3.6512,3.6388,3.643,3.6512,3.6509,3.6635,3.6781,3.6867,3.6467,3.6062,3.627,3.6354,3.6437,3.66,3.6681,3.6779,3.6989,3.7029,3.7147,3.756,3.7632,3.7738,3.8051,3.8101,3.8,3.7685,3.7896,3.8017,3.7827,3.8017,3.8218,3.8318,3.8334,3.8168,3.7774,3.7756,3.7613,3.728,3.7166,3.7126,3.7126,3.7166,3.6714,3.5677,3.5734,3.5578,3.5236,3.5402,3.6013,3.7015,3.7054,3.7262,3.3101,3.3602,3.4394,3.557,3.6387,3.7721,4.089,3.9221,3.7893,4.1053,4.0944,4.1107,4.3867,4.4907,4.5579,4.6248,4.6522,4.6597,4.6422,4.5326,4.4307,4.3626,4.2466,4.1696,4.1746,4.1696,4.145,4.0966,4.0825,4.0754,4.0754,4.0754,4.0754,4.0754,4.0754,4.0278,3.9261,3.9261,3.9574,4.016,3.9685,3.9463,3.9403,3.898,3.8767,3.875,3.8698,3.8663,3.8663,3.8612,3.8594,3.8525,3.7836,3.709,3.6477,3.6803,3.6816,3.6666,3.6666,3.6865,3.7076,3.6698,3.6818,3.7169,3.7358,3.7323,3.7286,3.747,3.7416,3.7271,3.7289,3.7434,3.7578,3.7596,3.779,3.7983,3.8,3.8,3.8017,3.8051,3.8068,3.8068,3.8101,3.8101,3.8085,3.8068,3.8085,3.8085,3.8068,3.8085,3.8118,3.8118,3.8118,3.805,3.7894,3.7894,3.7911,3.8017,3.7685,3.7469,3.7469,3.765,3.7702,3.7595,3.7304,3.7151,3.7113,3.7173,3.7283,3.7355,3.7503,3.7558,3.3042,3.3877,3.513,3.6626,3.7216,3.8041,4.0366,3.9209,3.8556,4.1721,4.1378,4.1089,4.3066,4.4519,4.5662,4.6377,4.6545,4.6563,4.6504,4.5222,4.4185,4.3936,4.3041,4.2358,4.2113,4.2032,4.1821,4.1343,4.1276,4.123,4.123,4.123,4.123,4.123,4.0755,4.0282,3.9886,3.9396,3.9292,3.9546,3.9032,3.8774,3.8803,3.867,3.8594,3.8594,3.8594,3.8336,3.7927,3.7927,3.7611,3.7172,3.7151,3.6917,3.6655,3.7073,3.7132,3.6999,3.6999,3.7076,3.717,3.7034,3.7151,3.7377,3.7322,3.7542,3.7808,3.7841,3.8012,3.8097,3.7701,3.7631,3.7754,3.7911,3.8033,3.8101,3.8101,3.8101,3.8152,3.8316,3.8378,3.8457,3.8631,3.8691,3.8658,3.8442,3.8582,3.8628,3.838,3.8523,3.8649,3.8603,3.8415,3.8316,3.8389,3.8096,3.7962,3.8094,3.7964,3.7912,3.7978,3.808,3.8114,3.8114,3.8115,3.8099,3.8099,3.8249,3.8332,3.8332,3.838,3.8415,3.3371,3.4272,3.556,3.7023,3.7184,3.756,3.9824,3.9319,3.9156,4.1864,4.2048,4.1941,4.2756,4.4262,4.5551,4.6033,4.6361,4.6472,4.616,4.5164,4.4277,4.3769,4.3245,4.2769,4.2458,4.2418,4.2218,4.176,4.1717,4.1717,4.1717,4.147,4.1329,4.1329,4.0546,3.9993,3.9663,3.9094,3.8728,3.8561,3.8185,3.8127,3.833,3.8109,3.807,3.8177,3.8177,3.7797,3.724,3.7349,3.7123,3.6719,3.6978,3.7094,3.7133,3.7542,3.7614,3.7542,3.7506,3.7596,3.7685,3.7469,3.7614,3.7808,3.7703,3.7965,3.8302,3.8296,3.8507,3.867,3.8194,3.8076,3.816,3.8378,3.841,3.841,3.841,3.8412,3.8428,3.8634,3.8676,3.8752,3.8935,3.9007,3.896,3.8737,3.8884,3.8931,3.8664,3.8833,3.8964,3.8964,3.8755,3.8691,3.8832,3.8499,3.8339,3.8456,3.8468,3.8455,3.8465,3.8499,3.853,3.8545,3.8579,3.8594,3.8594,3.8752,3.8844,3.8844,3.8877,3.891,3.4227,3.47,3.5417,3.6272,3.5949,3.627,3.9462,3.968,3.9662,4.1268,4.3028,4.3994,4.3065,4.4359,4.5508,4.533,4.6079,4.6354,4.5419,4.5273,4.4693,4.31,4.2901,4.2901,4.2901,4.2901,4.2711,4.2239,4.2216,4.2216,4.2216,4.1448,4.102,4.102,4.0216,3.9334,3.832,3.8239,3.7929,3.7412,3.7264,3.7556,3.8161,3.7226,3.6954,3.7207,3.7207,3.6976,3.6635,3.7034,3.7321,3.7505,3.7505,3.7596,3.7753,3.8162,3.8291,3.8275,3.814,3.8421,3.8698,3.8097,3.8181,3.8525,3.8658,3.8707,3.8738,3.8866,3.891,3.891,3.891,3.8954,3.9007,3.9073,3.9101,3.9101,3.9101,3.905,3.8993,3.9011,3.8935,3.891,3.891,3.891,3.891,3.891,3.8892,3.8892,3.8892,3.8892,3.8964,3.9087,3.9101,3.9129,3.9197,3.9142,3.917,3.9298,3.9251,3.9078,3.881,3.8937,3.9045,3.9101,3.8778,3.8609,3.8609,3.867,3.8715,3.8715,3.8844,3.891,3.4748,3.5129,3.5417,3.6343,3.7184,3.8078,3.9193,3.9265,3.9608,4.1268,4.2028,4.2338,4.2103,4.3428,4.4536,4.4477,4.4696,4.4769,4.4513,4.3969,4.3425,4.2973,4.2901,4.2901,4.2901,4.2901,4.2844,4.2692,4.2692,4.2692,4.2692,4.2009,4.1631,4.1631,4.0347,3.9497,3.9139,3.8563,3.8167,3.7968,3.7685,3.7519,3.7485,3.7217,3.7131,3.7207,3.7207,3.7131,3.7054,3.7302,3.7488,3.7666,3.7943,3.8062,3.8096,3.8504,3.8585,3.8504,3.847,3.8535,3.8615,3.8412,3.8491,3.8698,3.859,3.867,3.878,3.8765,3.8765,3.8765,3.8822,3.8833,3.8881,3.895,3.8964,3.8964,3.8964,3.8935,3.8925,3.8881,3.8881,3.8896,3.8837,3.8881,3.891,3.891,3.9059,3.9192,3.9251,3.9248,3.9216,3.9183,3.9261,3.9396,3.9599,3.9652,3.9746,3.992,3.9867,3.9679,3.9369,3.9388,3.9432,3.9445,3.9349,3.929,3.929,3.9317,3.9317,3.9317,3.938,3.9393,3.6385,3.6855,3.7311,3.8518,3.9279,3.9876,4.0307,4.0004,4.0094,4.1737,4.21,4.2138,4.2157,4.3226,4.4095,4.4095,4.4367,4.4458,4.4132,4.3679,4.3263,4.2955,4.2901,4.2901,4.2901,4.2901,4.2901,4.2901,4.2901,4.2774,4.2522,4.1833,4.1269,4.096,3.9739,3.9066,3.9017,3.8528,3.8241,3.8242,3.8003,3.7792,3.7595,3.7468,3.7468,3.7595,3.7469,3.7523,3.7667,3.7685,3.7893,3.8211,3.8455,3.8548,3.8594,3.8829,3.8859,3.8796,3.8796,3.8796,3.8781,3.8725,3.8788,3.8848,3.8695,3.8728,3.8822,3.8881,3.8881,3.8877,3.9045,3.9087,3.9069,3.9059,3.9059,3.9087,3.9192,3.9115,3.9007,3.8964,3.8979,3.8964,3.8935,3.9045,3.9142,3.9142,3.9305,3.9445,3.9512,3.9522,3.9522,3.9488,3.9545,3.9701,3.9948,3.9973,4.0034,4.0196,4.0129,4.0011,3.9837,3.9804,3.9804,3.9826,3.9826,3.9834,3.9811,3.9811,3.9811,3.9811,3.977,3.9781,3.8493,3.9124,4.0042,4.1511,4.1498,4.1356,4.23,4.1549,4.1053,4.2554,4.2827,4.2829,4.2976,4.3594,4.4084,4.4083,4.4663,4.4898,4.4134,4.4025,4.3754,4.301,4.2919,4.2919,4.2919,4.2919,4.2901,4.2901,4.2882,4.2594,4.1923,4.1124,4.0324,3.9526,3.8725,3.8307,3.8307,3.8241,3.8242,3.829,3.8242,3.8209,3.8225,3.7898,3.7915,3.8207,3.7983,3.81,3.843,3.818,3.8423,3.8925,3.8925,3.8993,3.9101,3.9101,3.9101,3.9101,3.9101,3.9101,3.9087,3.9021,3.9063,3.9133,3.9075,3.9069,3.9153,3.9388,3.9415,3.9442,3.9671,3.9733,3.9708,3.9607,3.9444,3.937,3.9635,3.9439,3.9224,3.9224,3.9183,3.9142,3.9142,3.9331,3.952,3.9556,3.9606,3.9694,3.9754,3.9756,3.9806,3.9907,3.9937,4.0024,4.0195,4.0177,4.0186,4.0251,4.0195,4.0186,4.026,4.0158,4.0129,4.0205,4.0205,4.0177,4.0101,4.0101,4.0101,4.0091,4.0032,4.0062,3.8245,3.8719,3.897,3.9415,3.9978,4.0967,4.3018,4.2869,4.2498,4.3275,4.2685,4.2376,4.3478,4.3837,4.3917,4.3801,4.3931,4.3883,4.3452,4.3378,4.3324,4.316,4.3105,4.3049,4.3049,4.2957,4.2901,4.2901,4.2861,4.2499,4.1778,4.0981,4.0219,3.9526,3.8773,3.8336,3.8307,3.829,3.8257,0.0,3.8209,3.8257,3.8352,3.8172,3.8189,3.8368,3.8449,3.8624,3.8788,3.8725,3.884,3.9059,3.9059,3.9073,3.9101,3.9101,3.9101,3.9101,3.9101,3.9101,3.9087,3.9021,3.9565,4.024,4.0186,4.0731,4.1406,4.1456,4.1469,4.1469,4.153,4.1542,4.1578,4.176,4.0611,3.9458,3.952,3.9489,3.9439,3.9439,3.9408,3.9408,3.9408,3.9513,3.9656,3.9935,4.0024,4.009,4.0155,4.0229,4.0193,4.0081,4.0203,4.03,4.0345,4.0527,4.066,4.0666,4.066,4.066,4.0666,4.0356,4.0196,4.0205,4.0205,4.0177,4.0101,4.0101,4.0062,4.0022,4.0012,4.0022,3.8728,3.9437,4.0115,4.1397,4.2088,4.2779,4.405,4.3905,4.3647,4.4123,4.3528,4.3118,4.3862,4.4001,4.3971,4.3893,4.3893,4.3815,4.3656,4.3623,4.3623,4.3623,4.3609,4.3575,4.3575,4.3523,4.3387,4.316,4.2795,4.2141,4.118,4.0419,3.9674,3.8944,3.8556,3.8322,3.8241,3.8241,3.8224,3.8209,3.8274,3.8647,3.9286,3.8711,3.8467,3.851,3.8716,3.8855,3.8892,3.8964,3.9031,3.9152,3.9706,3.9922,3.9973,4.0439,4.0627,4.0627,4.0607,4.0332,4.0076,4.0411,4.0652,4.0785,4.076,4.1086,4.1422,4.1169,4.1363,4.1552,4.1293,4.1516,4.1738,4.151,4.1193,4.0965,4.1095,4.1029,4.0931,4.0931,4.0931,4.0821,4.0479,4.0202,4.0119,4.0348,4.0396,4.0427,4.0523,4.0542,4.0492,4.0406,4.0454,4.05,4.05,4.0614,4.0713,4.0746,4.0713,4.0713,4.0746,4.0527,4.0422,4.0481,4.0465,4.0406,4.0345,4.0339,4.0321,4.0295,4.0258,4.0257,3.9036,4.0174,4.1692,4.4123,4.4609,4.4571,4.4898,4.4607,4.4391,4.4862,4.4519,4.4157,4.4261,4.4276,4.4261,4.4233,4.4214,4.42,4.4161,4.4161,4.4161,4.4161,4.4146,4.4132,4.4132,4.4098,4.3952,4.3557,4.2816,4.1873,4.0772,4.0024,3.9238,3.8437,3.8368,3.8322,3.8241,3.8224,3.8257,3.8289,3.8494,3.9213,4.0328,3.9493,3.9036,3.8936,3.8929,3.895,3.8993,3.9101,3.9165,3.9307,4.024,4.061,4.071,4.1546,4.1952,4.2047,4.1836,4.1434,4.1076,4.1604,4.1439,4.104,4.104,4.1097,4.1075,4.0636,4.0942,4.1303,4.0864,4.1237,4.1562,4.0912,4.1676,4.2544,4.2479,4.2288,4.2167,4.2311,4.2351,4.2134,4.1407,4.0861,4.0566,4.07,4.0668,4.0674,4.079,4.0739,4.07,4.07,4.0654,4.0686,4.0841,4.0848,4.0952,4.117,4.099,4.0887,4.0958,4.0752,4.0688,4.0806,4.0733,4.0668,4.0622,4.0626,4.0619,4.0633,4.0574,4.0568,3.7661,3.9378,4.1582,4.3536,4.3463,4.3325,4.4889,4.4611,4.4276,4.5072,4.4739,4.4409,4.4881,4.4972,4.4905,4.4739,4.4714,4.4637,4.4397,4.4355,4.4355,4.4355,4.4299,4.4275,4.4275,4.418,4.4069,4.4009,4.3155,4.2322,4.1585,4.0624,3.9721,3.8847,3.8715,3.8569,3.8385,3.8366,3.8444,3.8643,3.9127,3.9808,4.0659,4.0679,4.0528,4.0197,3.9407,3.9183,3.9324,3.935,3.9464,3.9635,3.9783,3.9852,3.9852,3.9988,4.054,4.1069,4.029,4.046,4.0887,4.0233,4.059,4.1265,4.1265,4.1903,4.2604,4.2536,4.2574,4.2632,4.2564,4.263,4.2688,4.2592,4.2698,4.244,4.0969,4.0607,4.0817,4.1561,4.1769,4.1585,4.0914,4.0684,4.0628,4.0778,4.0784,4.0784,4.0797,4.0739,4.07,4.07,4.0694,4.1023,4.1831,4.1903,4.2242,4.3071,4.2343,4.1925,4.2002,4.1212,4.0814,4.0889,4.0705,4.0642,4.0699,4.0693,4.0715,4.0771,4.0771,4.0752,3.8451,3.9822,4.1298,4.4009,4.3677,4.3183,4.4904,4.4628,4.4255,4.5125,4.5057,4.4927,4.5181,4.5203,4.5192,4.5098,4.5087,4.5034,4.4929,4.5285,4.5569,4.5569,4.5994,4.6253,4.6253,4.5773,4.5337,4.5077,4.3429,4.2171,4.1628,4.0351,3.9447,3.9077,3.9022,3.8938,3.8839,3.8857,3.9179,3.9839,4.0545,4.1449,4.2415,4.1917,4.1581,4.1425,4.101,4.0885,4.0979,4.0979,4.0765,4.0502,4.1094,4.1035,4.0656,4.1227,4.1688,4.1943,4.1569,4.1369,4.1292,4.1407,4.1431,4.1417,4.1417,4.1743,4.2029,4.1561,4.1771,4.2125,4.2125,4.2125,4.2125,4.2125,4.1771,4.136,4.1046,4.1389,4.1894,4.2358,4.2107,4.174,4.1467,4.1023,4.0906,4.1496,4.1549,4.1715,4.2247,4.229,4.2274,4.2274,4.2239,4.2186,4.2106,4.2097,4.2087,4.2054,4.1611,4.1408,4.1466,4.1043,4.0815,4.0837,4.0791,4.0784,4.0801,4.0766,4.0776,4.081,4.081,4.081,3.8765,3.9804,4.0673,4.3596,4.3386,4.2908,4.459,4.4322,4.3997,4.5067,4.5307,4.5307,4.5307,4.5307,4.5307,4.5307,4.5307,4.5373,4.5583,4.6118,4.6577,4.6806,4.7387,4.7788,4.7788,4.7207,4.6694,4.6323,4.4059,4.2524,4.2175,4.0453,3.9457,3.9389,3.9577,3.9639,3.9575,3.9826,4.0359,4.1173,4.1856,4.2773,4.3825,4.302,4.2787,4.2957,4.2427,4.2226,4.2262,4.2035,4.1623,4.1188,4.1791,4.1615,4.1148,4.1896,4.2298,4.247,4.247,4.2183,4.1934,4.2584,4.2354,4.182,4.182,4.182,4.1667,4.0845,4.1036,4.1504,4.1532,4.138,4.1256,4.1494,4.1065,4.0769,4.1361,4.2393,4.3166,4.3071,4.2772,4.2509,4.2351,4.1676,4.1387,4.2096,4.2165,4.2388,4.3082,4.3365,4.3497,4.3497,4.346,4.3261,4.2851,4.2618,4.2338,4.1956,4.1455,4.1217,4.1275,4.1003,4.0855,4.0879,4.0937,4.0933,4.0933,4.0874,4.0859,4.0879,4.0879,4.0879,3.7349,3.8438,3.9489,4.1266,4.1628,4.2011,4.3682,4.3443,4.3329,4.4953,4.5307,4.5307,4.5307,4.5307,4.5307,4.5307,4.5307,4.5564,4.6328,4.6481,4.6806,4.7635,4.7769,4.7788,4.7788,4.775,4.7731,4.7708,4.5394,4.398,4.397,4.16,4.0167,3.9963,4.0563,4.0818,4.0622,4.1561,4.2181,4.2408,4.2654,4.3184,4.3977,4.3928,4.4348,4.5036,4.3057,4.2316,4.2419,4.1581,4.1335,4.1399,4.0693,4.0396,4.0358,4.0396,4.0903,4.1581,4.1581,4.2087,4.2737,4.2794,4.2775,4.2737,4.2737,4.2737,4.2545,4.1686,4.1457,4.1533,4.1667,4.1041,4.0596,4.1475,4.1558,4.1437,4.1495,4.2843,4.3819,4.3049,4.3709,4.4131,4.3348,4.2622,4.2144,4.2187,4.2206,4.2206,4.2268,4.2988,4.3494,4.3494,4.3494,4.3849,4.4682,4.4,4.388,4.4731,4.317,4.2245,4.2311,4.1468,4.1017,4.1083,4.1085,4.1064,4.0987,4.0987,4.102,4.1083,4.1083,4.1083,3.7234,3.7559,3.7933,4.0177,4.0731,4.1017,4.2144,4.3004,4.3729,4.4289,4.4874,4.5307,4.5307,4.5307,4.5307,4.5307,4.5307,4.5583,4.6385,4.6978,4.7665,4.8525,4.9098,4.9404,4.9404,4.8945,4.8621,4.8621,4.53,4.3752,4.4812,4.1953,4.0768,4.177,4.1491,4.1296,4.1214,4.2648,4.3395,4.3476,4.4111,4.4551,4.4838,4.4838,4.4991,4.5258,4.4511,4.4233,4.423,4.3361,4.2744,4.224,4.1399,4.1074,4.1074,4.1074,4.1609,4.2335,4.2335,4.2545,4.2794,4.2794,4.2794,4.2794,4.2794,4.2794,4.2622,4.1743,4.1953,4.2474,4.2522,4.2359,4.2252,4.2577,4.3015,4.3357,4.3357,4.3382,4.3349,4.3199,4.351,4.3726,4.3471,4.3221,4.3238,4.3841,4.3923,4.415,4.4741,4.5097,4.5289,4.5289,4.4802,4.4592,4.4938,4.365,4.3205,4.4114,4.25,4.1796,4.2375,4.1544,4.1076,4.1109,4.1109,4.1083,4.1068,4.1068,4.1076,4.1109,4.1109,4.1109,3.653,3.6663,3.6884,3.8601,3.9432,4.012,4.1246,4.2584,4.3729,4.427,4.4885,4.5328,4.5328,4.5329,4.5329,4.5307,4.5547,4.6006,4.6792,4.7674,4.8533,4.9362,4.9965,5.029,5.0267,4.9794,4.95,4.95,4.6143,0.0,4.5703,4.2843,4.1791,4.3157,4.2641,4.2469,4.2775,4.3883,4.4437,4.4437,4.501,4.5307,4.5307,4.5307,4.5307,4.5288,4.4991,4.4857,4.48,4.3959,4.3119,4.2316,4.1724,4.1495,4.1533,4.182,4.2297,4.2832,4.3119,4.3013,4.2869,4.3463,4.3433,4.3242,4.3599,4.3723,4.3542,4.2716,4.2939,4.3481,4.3536,4.3598,4.3653,4.3614,4.4005,4.4486,4.4826,4.439,4.3943,4.4073,4.4203,4.4301,4.4335,4.4155,4.4127,4.4451,4.4495,4.4719,4.5342,4.5421,4.5539,4.5831,4.509,4.4563,4.4563,4.3235,4.265,4.3235,4.191,4.1367,4.1941,4.1415,4.1087,4.1072,4.1072,4.1072,4.1072,4.1099,4.1109,4.1109,4.1109,4.1095,0.0,0.0,0.0,3.6453,3.7677,3.9299,4.0989,4.2087,4.3233,4.4876,4.5291,4.537,4.5408,4.539,4.5371,4.5309,4.6037,4.6849,4.7587,4.851,4.9362,5.0104,5.0255,5.0278,5.0219,5.0267,5.0302,5.0302,4.8031,4.6675,4.6732,4.4346,4.3283,4.3968,4.4025,4.4437,4.5239,4.5288,4.5307,4.5307,4.5307,4.5307,4.5307,4.5307,4.5288,4.5201,4.4369,4.3968,4.3864,4.31,4.2259,4.1495,4.1476,4.1495,4.1628,4.2488,4.2813,4.2947,4.3768,4.347,4.303,4.4743,4.4713,4.4149,4.5179,4.5504,4.5348,4.4608,4.4426,4.4476,4.4608,4.4634,4.4615,4.4483,4.4452,4.4718,4.5693,4.5802,4.5694,4.5671,4.58,4.5931,4.5936,4.5382,4.468,4.3821,4.3705,4.3705,4.3705,4.3705,4.4016,4.4875,4.4172,4.3686,4.3725,4.2905,4.2437,4.2516,4.1677,4.1182,4.1211,4.1152,4.1091,4.1031,4.1012,4.0992,4.0992,4.1072,4.1093,4.1093,4.1093,4.1105,3.516,0.0,0.0,0.0,0.0,0.0,3.8648,4.0404,4.2221,4.3212,4.401,4.471,4.5284,4.5438,4.5457,4.5371,4.6009,4.6784,4.7517,4.8393,4.9243,5.0038,5.0145,5.017,5.0207,5.0231,5.0255,0.0,4.7433,4.6231,4.7495,4.5744,4.4489,4.4025,4.4609,4.4743,4.435,4.4972,4.5307,4.5307,4.5307,4.5307,4.5307,4.5307,4.4953,4.435,4.4102,4.3359,4.2304,4.2001,4.1724,4.1437,4.0807,4.1332,4.2469,4.2658,4.3106,4.3738,4.4729,4.449,4.3924,4.5184,4.5419,4.5265,4.5539,4.5632,4.5467,4.4631,4.4926,4.5512,4.5639,4.5682,4.5672,4.5638,4.5631,4.5709,4.5973,4.6027,4.5823,4.522,4.4699,4.4341,4.4346,4.4183,4.3977,4.3744,4.3705,4.3705,4.3705,4.3705,4.3782,4.4036,4.3274,4.3244,4.445,4.324,4.3183,4.5034,4.3742,4.3193,4.3812,4.2645,4.1958,4.1944,4.1371,4.1062,4.1077,4.1047,4.103,4.103,4.103,4.1028,3.5009,3.5134,3.5204,3.5201,0.0,0.0,3.8075,3.9992,4.1905,4.3012,4.4039,4.4776,4.4873,4.4967,4.5028,4.4998,4.5908,4.6861,4.754,4.8654,4.9562,5.0012,5.0082,5.0108,5.0133,5.0163,5.0078,4.9778,4.766,4.6517,4.6853,4.5934,4.5148,4.4551,4.4685,4.4685,4.4551,4.4341,4.4609,4.5288,4.459,4.4437,4.4743,4.4399,4.3978,4.3472,4.3119,4.247,4.1675,4.1213,4.1033,4.1024,4.0797,4.1322,4.2306,4.3024,4.3569,4.4134,4.5215,4.497,4.4357,4.5359,4.5449,4.5198,4.5645,4.5783,4.5675,4.5201,4.5493,4.596,4.6061,4.6081,4.6071,4.6099,4.6099,4.6104,4.6103,4.5834,4.5563,4.5456,4.508,4.4774,4.4777,4.4777,4.466,4.4309,4.4231,4.4236,4.4209,4.3878,4.3803,4.416,4.3418,4.3301,4.4272,4.345,4.3388,4.4509,4.3627,4.3115,4.3279,4.2309,4.1755,4.1766,4.1296,4.1217,4.1554,4.1202,4.1039,4.1039,4.1007,4.0996,3.4841,3.5057,3.5198,3.5193,3.5774,0.0,3.8362,3.9936,4.1513,4.3119,4.4202,4.4617,4.3946,4.3904,4.3998,4.3993,4.5345,4.6675,4.7485,4.9063,5.0088,4.993,5.0057,5.0107,5.0057,5.0169,4.9916,4.9114,4.8288,4.7125,4.5525,4.5429,4.5399,4.5319,4.4466,4.4369,4.5144,4.3596,4.3558,4.4991,4.3501,4.3176,4.3834,4.3129,4.2823,4.2785,4.203,4.1749,4.183,4.1042,4.0649,4.0625,4.1217,4.1571,4.1934,4.3531,4.4114,4.4276,4.534,4.511,4.4488,4.5422,4.5171,4.4669,4.5628,4.5912,4.5912,4.598,4.6002,4.6007,4.6071,4.6042,4.6037,4.61,4.6104,4.6111,4.6115,4.5553,4.5289,4.6055,4.6104,4.6017,4.6007,4.601,4.574,4.4958,4.4844,4.4815,4.4765,4.4081,4.3902,4.4678,4.405,4.3638,4.3732,4.3732,4.3443,4.2765,4.2726,4.2364,4.161,4.1471,4.1425,4.1416,4.1318,4.1626,4.2343,4.1688,4.1372,4.137,4.1317,4.1287,3.4898,3.5046,0.0,3.5201,3.5335,0.0,3.6748,3.7327,3.8116,3.9714,4.0371,4.081,4.1293,4.1443,4.15,4.149,4.285,4.4624,4.6696,4.8971,5.0179,4.9525,5.0015,5.0449,5.048,5.0519,5.0212,4.9458,4.8059,4.6785,4.5708,4.5585,4.5528,4.5455,4.4508,4.4083,4.4255,4.3291,4.2966,4.3271,4.2966,4.2889,4.3023,4.2938,4.2916,4.2953,4.2911,4.2941,4.306,4.2776,4.2244,4.1612,4.1686,4.259,4.3847,4.4155,4.4262,4.4402,4.5488,4.5253,4.4627,4.5626,4.5811,4.5714,4.5911,4.5975,4.598,4.5997,4.6002,4.6002,4.6026,4.6056,4.6084,4.6108,4.6138,4.6176,4.6189,4.6064,4.6019,4.6234,4.5164,4.421,4.4211,4.4152,4.4062,4.3905,4.3864,4.3872,4.3866,4.3708,4.3666,4.3835,4.3704,4.3872,4.4593,4.4657,4.4844,4.532,4.536,4.5289,4.5121,4.4435,4.4068,4.405,4.3369,4.311,4.3337,4.3125,4.3031,4.303,4.3013,4.3004,0.0,0.0,0.0,3.5209,3.4901,0.0,0.0,3.6545,3.7087,3.875,3.9222,3.949,3.9958,3.9756,3.9686,4.0218,4.1645,4.3156,4.4437,4.7298,4.9268,4.9306,5.001,5.05,5.0548,5.022,4.9514,4.8353,4.7105,4.6206,4.5722,4.5672,4.5607,4.5498,4.4631,4.4307,4.4647,4.3494,4.332,4.4144,4.3378,4.2997,4.3008,4.3023,4.2822,4.2483,4.2987,4.3279,4.338,4.3333,4.3315,4.3297,4.2683,4.2972,4.3802,4.4233,4.4402,4.4559,4.5583,4.5638,4.5328,4.585,4.6002,4.6002,4.6002,4.6002,4.6007,4.6032,4.6061,4.6066,4.6089,4.6115,4.615,4.615,4.618,4.6198,4.6197,4.6209,4.6201,4.625,4.5547,4.4941,4.4956,4.4922,4.4895,4.4895,4.4902,4.4883,4.4858,4.4841,4.4855,4.4842,4.4845,4.5014,4.5465,4.548,4.5449,4.5457,4.5444,4.5264,4.4865,4.4437,4.4199,4.4205,4.416,4.4169,4.4204,4.4603,4.4365,4.3544,4.3544,4.3539,0.0,0.0,0.0,0.0,0.0,3.4359,0.0,0.0,0.0,3.7836,3.8324,3.8528,3.8653,3.8171,3.8035,3.8916,0.0,0.0,0.0,4.4791,0.0,4.8566,4.9247,4.9697,4.9888,4.9208,4.8292,4.7161,4.6279,4.5796,4.5809,4.5764,4.5715,4.5599,4.4743,4.4572,4.5141,4.3707,4.3687,4.5029,4.3786,4.3202,4.3189,4.3228,4.295,4.2479,4.3206,4.3685,4.3943,4.3943,4.439,4.4944,4.3853,4.3529,4.3752,4.4518,4.4796,4.4905,4.5717,4.6002,4.6002,4.6002,4.6002,4.6002,4.6012,4.6017,4.6027,4.6098,4.613,4.6138,4.6189,4.6203,4.6209,4.6209,4.6215,4.6228,4.6203,4.619,4.619,4.6209,4.6197,4.6184,4.6208,4.6195,4.6171,4.6171,4.6165,4.6142,4.6087,4.6072,4.6076,4.6081,4.6095,4.61,4.61,4.6047,4.5736,4.5094,4.505,4.4763,4.4115,4.4072,4.4048,4.4048,4.4699,4.5021,4.5021,4.5741,4.54,4.4048,4.4048,4.4024,0.0,0.0,0.0,0.0,3.4606,0.0,3.4243,0.0,3.4358,3.4616,0.0,3.5969,3.6101,0.0,0.0,0.0,3.7172,3.8317,3.9884,4.1747,4.3832,4.6266,4.6522,4.6849,4.7674,4.6985,4.6717,4.7306,4.6608,4.615,4.6131,4.6032,4.5956,4.5939,4.487,4.4383,4.459,4.3532,4.3162,4.3453,4.3279,4.3189,4.3195,4.3319,4.374,4.4381,4.4612,4.5157,4.5885,4.5885,4.5912,4.5855,4.4958,4.504,4.5678,4.5786,4.5825,4.585,4.5958,4.6002,4.6002,4.6002,4.6002,4.6007,4.6075,4.6089,4.6098,4.6162,4.6192,4.6192,4.6196,4.6203,4.6203,4.6203,4.6243,4.6267,4.621,4.6191,4.619,4.6209,4.615,4.6134,4.6183,4.6153,4.6112,4.6112,4.6052,4.6013,4.6003,4.6003,4.6017,4.6007,4.6066,4.61,4.61,4.6095,4.605,4.5957,4.5954,4.5906,4.5828,4.577,4.5735,4.5735,4.5813,4.5852,4.5871,4.5968,4.591,4.5735,4.5735,4.5716,0.0,0.0,0.0,0.0,0.0,0.0,3.5274,0.0,3.3458,0.0,0.0,0.0,0.0,0.0,0.0,0.0,3.6685,3.7459,0.0,0.0,4.1429,4.5028,0.0,0.0,4.661,4.5857,0.0,0.0,4.5617,4.5445,4.5459,4.5874,4.6084,4.6002,4.5531,4.5266,4.5207,4.4886,4.4776,4.483,4.49,4.4676,4.4209,4.4762,4.495,4.4852,4.5414,4.587,4.6209,4.6209,4.6169,4.6056,4.5692,4.5731,4.6002,4.6002,4.6002,4.6002,4.6002,4.6002,4.6002,4.6002,4.6002,4.6012,4.608,4.6098,4.6111,4.6174,4.6209,4.6212,4.6248,4.626,4.6255,4.6216,4.6222,4.621,4.6167,4.6134,4.6121,4.6095,4.6052,4.6059,4.6076,4.6052,4.6046,4.6046,4.6027,4.6002,4.6002,4.6032,4.6061,4.6061,4.6071,4.61,4.61,4.6056,4.6032,4.6032,4.6042,4.6037,4.6037,4.6007,4.6002,4.6002,4.6002,4.6002,4.6002,4.6002,4.6026,4.6061,4.6061,4.6061,3.6883,0.0,0.0,0.0,0.0,0.0,0.0,0.0,0.0,0.0,0.0,0.0,0.0,0.0,0.0,0.0,0.0,3.6937,0.0,3.7737,3.9487,4.3075,0.0,0.0,0.0,4.469,4.447,0.0,0.0,4.4899,4.4894,4.5732,4.615,4.6066,4.6017,4.5956,4.584,4.5956,4.6012,4.6052,4.6142,4.5857,4.5246,4.587,4.5831,4.5266,4.5908,4.6174,4.6177,4.6173,4.6132,4.61,4.6071,4.6037,4.6002,4.6002,4.6002,4.6002,4.6002,4.6002,4.6002,4.6017,4.6022,4.6037,4.6115,4.6131,4.6146,4.6206,4.6238,4.6243,4.6296,4.6288,4.6259,4.621,4.6191,4.6181,4.6105,4.6098,4.6099,4.6032,4.6007,4.6002,4.6012,4.6007,4.6002,4.6002,4.6002,4.6002,4.6002,4.6037,4.6071,4.6071,4.6071,4.6071,4.61,4.6061,4.6032,4.6032,4.6037,4.6037,4.6032,4.6037,4.6022,4.6022,4.6022,4.6022,4.6022,4.6022,4.6052,4.611,4.61,4.6105,0.0,0.0,0.0,3.683,0.0,0.0,0.0,0.0,3.1603,0.0,0.0,0.0,0.0,0.0,0.0,0.0,0.0,0.0,0.0,3.7218,3.7926,3.9748,4.1424,0.0,0.0,4.3156,4.3635,0.0,0.0,0.0,4.4894,4.5732,4.6196,4.6196,4.6071,4.6066,4.6169,4.6071,4.6081,4.6185,4.6209,4.6158,4.6059,4.6098,4.6098,4.6059,4.6098,4.6098,4.6098,4.609,4.61,4.6095,4.6032,4.6002,4.6002,4.6002,4.6002,4.6002,4.6002,4.6002,4.6007,4.608,4.6093,4.6111,4.6186,4.6203,4.6211,4.6275,4.63,4.63,4.63,4.6243,4.6191,4.6191,4.6204,4.6173,4.6115,4.6098,4.6103,4.6095,4.6037,4.6026,4.6095,4.6037,4.6002,4.6002,4.6002,4.6002,4.6002,4.6002,4.6002,4.6002,4.6002,4.6032,4.6095,4.61,4.61,4.61,4.6099,4.6104,4.61,4.6099,4.6093,4.6093,4.6093,4.6093,4.6093,4.6093,4.6093,4.6093,4.609,4.6095,0.0,0.0,4.0954,3.9698,0.0,0.0,0.0,0.0,0.0,0.0,0.0,0.0,0.0,0.0,0.0,0.0,0.0,0.0,0.0,3.6331,3.6763,3.7932,3.9559,4.08,0.0,0.0,0.0,0.0,4.3006,0.0,0.0,4.454,4.5342,4.5342,4.5862,4.6146,4.6197,4.6149,4.6141,4.6126,4.6126,4.6122,4.6098,4.6098,4.6098,4.6098,4.6098,4.6108,4.609,4.61,4.6071,4.6032,4.6002,4.6002,4.6002,4.6002,4.6002,4.6002,4.6002,4.6022,4.6075,4.6089,4.6134,4.6169,4.6195,4.6206,4.6214,4.6275,4.6293,4.6283,4.6246,4.6211,4.62,4.6132,4.6136,4.6134,4.6095,4.6111,4.6091,4.6108,4.6075,4.6075,4.6104,4.6075,4.6042,4.6007,4.6002,4.6026,4.6066,4.6066,4.6071,4.6071,4.6071,4.6075,4.6104,4.6104,4.6104,4.6104,4.6093,4.6093,4.6104,4.6093,4.6098,4.6098,4.6098,4.6098,4.6098,4.6098,4.6122,4.6177,4.6169,4.6169,4.2062,4.267,0.0,4.123,3.9467,0.0,3.6365,0.0,3.3325,0.0,0.0,0.0,0.0,0.0,0.0,0.0,0.0,0.0,0.0,3.5908,3.6103,3.6668,3.8244,3.9617,4.0484,0.0,0.0,0.0,0.0,0.0,0.0,0.0,4.4853,4.4853,4.571,4.615,4.6158,4.6158,4.6145,4.6104,4.6104,4.6099,4.6051,4.6051,4.6051,4.6051,4.6051,4.6061,4.6066,4.6066,4.6037,4.6002,4.6002,4.5997,4.6005,4.5997,4.6002,4.6002,4.6022,4.6051,4.6102,4.6131,4.6153,4.62,4.6228,4.6216,4.6278,4.6632,4.6502,4.6328,4.6581,4.6435,4.6193,4.615,4.6342,4.6551,4.6556,4.6804,4.7012,4.7021,4.7017,4.7012,4.7021,4.7017,4.6804,4.6129,4.6047,4.6056,4.609,4.6095,4.6099,4.6093,4.6098,4.6117,4.6126,4.6134,4.6138,4.6149,4.6084,4.6084,4.6126,4.6084,4.6089,4.6138,4.6138,4.6138,4.6138,4.6138,4.6166,4.6201,4.6201,4.6201]}]]